[[{"header":{"parameterUnit":"m.s-1","parameterCategory":1,"la1":30.6,"la2":28.766,"lo1":-90.7593,"lo2":-88.6598,"dy":0.0162,"dx":0.0183,"nx":116,"ny":114,"refTime":"2024-02-22T06:00:00:Z","depth":0,"parameterNumber":2,"parameterNumberName":"U-component_of_WINDS"},"data":[0.0,0.0,0.0,0.0,0.0,0.0,0.0,0.0,0.0,0.0,0.0,0.0,0.0,0.0,0.0,0.0,0.0,0.0,0.0,0.0,0.0,0.0,0.0,0.0,0.0,0.0,0.0,0.0,0.0,0.0,0.0,0.0,0.0,0.0,0.0,0.0,0.0,0.0,0.0,0.0,0.0,0.0,0.0,0.0,0.0,0.0,0.0,0.0,0.0,0.0,0.0,0.0,0.0,0.0,0.0,0.0,0.0,0.0,0.0,0.0,0.0,0.0,0.0,0.0,0.0,0.0,0.0,0.0,0.0,0.0,0.0,0.0,0.0,0.0,0.0,0.0,0.0,0.0,0.0,0.0,0.0,0.0,0.0,0.0,0.0,0.0,0.0,0.0,0.0,0.0,0.0,0.0,0.0,0.0,0.0,0.0,0.0,0.0,0.0,0.0,0.0,0.0,0.0,0.0,0.0,0.0,0.0,0.0,0.0,0.0,0.0,0.0,0.0,0.0,0.0,0.0,0.0,0.0,0.0,0.0,0.0,0.0,0.0,0.0,0.0,0.0,0.0,0.0,0.0,0.0,0.0,0.0,0.0,0.0,0.0,0.0,0.0,0.0,0.0,0.0,0.0,0.0,0.0,0.0,0.0,0.0,0.0,0.0,0.0,0.0,0.0,0.0,0.0,0.0,0.0,0.0,0.0,0.0,0.0,0.0,0.0,0.0,0.0,0.0,0.0,0.0,0.0,0.0,0.0,0.0,0.0,0.0,0.0,0.0,0.0,0.0,0.0,0.0,0.0,0.0,0.0,0.0,0.0,0.0,0.0,0.0,0.0,0.0,0.0,0.0,0.0,0.0,0.0,0.0,0.0,0.0,0.0,0.0,0.0,0.0,0.0,0.0,0.0,0.0,0.0,0.0,0.0,0.0,0.0,0.0,0.0,0.0,0.0,0.0,0.0,0.0,0.0,0.0,0.0,0.0,0.0,0.0,0.0,0.0,0.0,0.0,0.0,0.0,0.0,0.0,0.0,0.0,0.0,0.0,0.0,0.0,0.0,0.0,0.0,0.0,0.0,0.0,0.0,0.0,0.0,0.0,0.0,0.0,0.0,0.0,0.0,0.0,0.0,0.0,0.0,0.0,0.0,0.0,0.0,0.0,0.0,0.0,0.0,0.0,0.0,0.0,0.0,0.0,0.0,0.0,0.0,0.0,0.0,0.0,0.0,0.0,0.0,0.0,0.0,0.0,0.0,0.0,0.0,0.0,0.0,0.0,0.0,0.0,0.0,0.0,0.0,0.0,0.0,0.0,0.0,0.0,0.0,0.0,0.0,0.0,0.0,0.0,0.0,0.0,0.0,0.0,0.0,0.0,0.0,0.0,0.0,0.0,0.0,0.0,0.0,0.0,0.0,0.0,0.0,0.0,0.0,0.0,0.0,0.0,0.0,0.0,0.0,0.0,0.0,0.0,0.0,0.0,0.0,0.0,0.0,0.0,0.0,0.0,0.0,0.0,0.0,0.0,0.0,0.0,0.0,0.0,0.0,0.0,0.0,0.0,0.0,0.0,0.0,0.0,0.0,0.0,0.0,0.0,0.0,0.0,0.0,0.0,0.0,0.0,0.0,0.0,0.0,0.0,0.0,0.0,0.0,0.0,0.0,0.0,0.0,0.0,0.0,0.0,0.0,0.0,0.0,0.0,0.0,0.0,0.0,0.0,0.0,0.0,0.0,0.0,0.0,0.0,0.0,0.0,0.0,0.0,0.0,0.0,0.0,0.0,0.0,0.0,0.0,0.0,0.0,0.0,0.0,0.0,0.0,0.0,0.0,0.0,0.0,0.0,0.0,0.0,0.0,0.0,0.0,0.0,0.0,0.0,0.0,0.0,0.0,0.0,0.0,0.0,0.0,0.0,0.0,0.0,0.0,0.0,0.0,0.0,0.0,0.0,0.0,0.0,0.0,0.0,0.0,0.0,0.0,0.0,0.0,0.0,0.0,0.0,0.0,0.0,0.0,0.0,0.0,0.0,0.0,0.0,0.0,0.0,0.0,0.0,0.0,0.0,0.0,0.0,0.0,0.0,0.0,0.0,0.0,0.0,0.0,0.0,0.0,0.0,0.0,0.0,0.0,0.0,0.0,0.0,0.0,0.0,0.0,0.0,0.0,0.0,0.0,0.0,0.0,0.0,0.0,0.0,0.0,0.0,0.0,0.0,0.0,0.0,0.0,0.0,0.0,0.0,0.0,0.0,0.0,0.0,0.0,0.0,0.0,0.0,0.0,0.0,0.0,0.0,0.0,0.0,0.0,0.0,0.0,0.0,0.0,0.0,0.0,0.0,0.0,0.0,0.0,0.0,0.0,0.0,0.0,0.0,0.0,0.0,0.0,0.0,0.0,0.0,0.0,0.0,0.0,0.0,0.0,0.0,0.0,0.0,0.0,0.0,0.0,0.0,0.0,0.0,0.0,0.0,0.0,0.0,0.0,0.0,0.0,0.0,0.0,0.0,0.0,0.0,0.0,0.0,0.0,0.0,0.0,0.0,0.0,0.0,0.0,0.0,0.0,0.0,0.0,0.0,0.0,0.0,0.0,0.0,0.0,0.0,0.0,0.0,0.0,0.0,0.0,0.0,0.0,0.0,0.0,0.0,0.0,0.0,0.0,0.0,0.0,0.0,0.0,0.0,0.0,0.0,0.0,0.0,0.0,0.0,0.0,0.0,0.0,0.0,0.0,0.0,0.0,0.0,0.0,0.0,0.0,0.0,0.0,0.0,0.0,0.0,0.0,0.0,0.0,0.0,0.0,0.0,0.0,0.0,0.0,0.0,0.0,0.0,0.0,0.0,0.0,0.0,0.0,0.0,0.0,0.0,0.0,0.0,0.0,0.0,0.0,0.0,0.0,0.0,0.0,0.0,0.0,0.0,0.0,0.0,0.0,0.0,0.0,0.0,0.0,0.0,0.0,0.0,0.0,0.0,0.0,0.0,0.0,0.0,0.0,0.0,0.0,0.0,0.0,0.0,0.0,0.0,0.0,0.0,0.0,0.0,0.0,0.0,0.0,0.0,0.0,0.0,0.0,0.0,0.0,0.0,0.0,0.0,0.0,0.0,0.0,0.0,0.0,0.0,0.0,0.0,0.0,0.0,0.0,0.0,0.0,0.0,0.0,0.0,0.0,0.0,0.0,0.0,0.0,0.0,0.0,0.0,0.0,0.0,0.0,0.0,0.0,0.0,0.0,0.0,0.0,0.0,0.0,0.0,0.0,0.0,0.0,0.0,0.0,0.0,0.0,0.0,0.0,0.0,0.0,0.0,0.0,0.0,0.0,0.0,0.0,0.0,0.0,0.0,0.0,0.0,0.0,0.0,0.0,0.0,0.0,0.0,0.0,0.0,0.0,0.0,0.0,0.0,0.0,0.0,0.0,0.0,0.0,0.0,0.0,0.0,0.0,0.0,0.0,0.0,0.0,0.0,0.0,0.0,0.0,0.0,0.0,0.0,0.0,0.0,0.0,0.0,0.0,0.0,0.0,0.0,0.0,0.0,0.0,0.0,0.0,0.0,0.0,0.0,0.0,0.0,0.0,0.0,0.0,0.0,0.0,0.0,0.0,0.0,0.0,0.0,0.0,0.0,0.0,0.0,0.0,0.0,0.0,0.0,0.0,0.0,0.0,0.0,0.0,0.0,0.0,0.0,0.0,0.0,0.0,0.0,0.0,0.0,0.0,0.0,0.0,0.0,0.0,0.0,0.0,0.0,0.0,0.0,0.0,0.0,0.0,0.0,0.0,0.0,0.0,0.0,0.0,0.0,0.0,0.0,0.0,0.0,0.0,0.0,0.0,0.0,0.0,0.0,0.0,0.0,0.0,0.0,0.0,0.0,0.0,0.0,0.0,0.0,0.0,0.0,0.0,0.0,0.0,0.0,0.0,0.0,0.0,0.0,0.0,0.0,0.0,0.0,0.0,0.0,0.0,0.0,0.0,0.0,0.0,0.0,0.0,0.0,0.0,0.0,0.0,0.0,0.0,0.0,0.0,0.0,0.0,0.0,0.0,0.0,0.0,0.0,0.0,0.0,0.0,0.0,0.0,0.0,0.0,0.0,0.0,0.0,0.0,0.0,0.0,0.0,0.0,0.0,0.0,0.0,0.0,0.0,0.0,0.0,0.0,0.0,0.0,0.0,0.0,0.0,0.0,0.0,0.0,0.0,0.0,0.0,0.0,0.0,0.0,0.0,0.0,0.0,0.0,0.0,0.0,0.0,0.0,0.0,0.0,0.0,0.0,0.0,0.0,0.0,0.0,0.0,0.0,0.0,0.0,0.0,0.0,0.0,0.0,0.0,0.0,0.0,0.0,0.0,0.0,0.0,0.0,0.0,0.0,0.0,0.0,0.0,0.0,0.0,0.0,0.0,0.0,0.0,0.0,0.0,0.0,0.0,0.0,0.0,0.0,0.0,0.0,0.0,0.0,0.0,0.0,0.0,0.0,0.0,0.0,0.0,0.0,0.0,0.0,0.0,0.0,0.0,0.0,0.0,0.0,0.0,0.0,0.0,0.0,0.0,0.0,0.0,0.0,0.0,0.0,0.0,0.0,0.0,0.0,0.0,0.0,0.0,0.0,0.0,0.0,0.0,0.0,0.0,0.0,0.0,0.0,0.0,0.0,0.0,0.0,0.0,0.0,0.0,0.0,0.0,0.0,0.0,0.0,0.0,0.0,0.0,0.0,0.0,0.0,0.0,0.0,0.0,0.0,0.0,0.0,0.0,0.0,0.0,0.0,0.0,0.0,0.0,0.0,0.0,0.0,0.0,0.0,0.0,0.0,0.0,0.0,0.0,0.0,0.0,0.0,0.0,0.0,0.0,0.0,0.0,0.0,0.0,0.0,0.0,0.0,0.0,0.0,0.0,0.0,0.0,0.0,0.0,0.0,0.0,0.0,0.0,0.0,0.0,0.0,0.0,0.0,0.0,0.0,0.0,0.0,0.0,0.0,0.0,0.0,0.0,0.0,0.0,0.0,0.0,0.0,0.0,0.0,0.0,0.0,0.0,0.0,0.0,0.0,0.0,0.0,0.0,0.0,0.0,0.0,0.0,0.0,0.0,0.0,0.0,0.0,0.0,0.0,0.0,0.0,0.0,0.0,0.0,0.0,0.0,0.0,0.0,0.0,0.0,0.0,0.0,0.0,0.0,0.0,0.0,0.0,0.0,0.0,0.0,0.0,0.0,0.0,0.0,0.0,0.0,0.0,0.0,0.0,0.0,0.0,0.0,0.0,0.0,0.0,0.0,0.0,0.0,0.0,0.0,0.0,0.0,0.0,0.0,0.0,0.0,0.0,0.0,0.0,0.0,0.0,0.0,0.0,0.0,0.0,0.0,0.0,0.0,0.0,0.0,0.0,0.0,0.0,0.0,0.0,0.0,0.0,0.0,0.0,0.0,0.0,0.0,0.0,0.0,0.0,0.0,0.0,0.0,0.0,0.0,0.0,0.0,0.0,0.0,0.0,0.0,0.0,0.0,0.0,0.0,0.0,0.0,0.0,0.0,0.0,0.0,0.0,0.0,0.0,0.0,0.0,0.0,0.0,0.0,0.0,0.0,0.0,0.0,0.0,0.0,0.0,0.0,0.0,0.0,0.0,0.0,0.0,0.0,0.0,0.0,0.0,0.0,0.0,0.0,0.0,0.0,0.0,0.0,0.0,0.0,0.0,0.0,0.0,0.0,0.0,0.0,0.0,0.0,0.0,0.0,0.0,0.0,0.0,0.0,0.0,0.0,0.0,0.0,0.0,0.0,0.0,0.0,0.0,0.0,0.0,0.0,0.0,0.0,0.0,0.0,0.0,0.0,0.0,0.0,0.0,0.0,0.0,0.0,0.0,0.0,0.0,0.0,0.0,0.0,0.0,0.0,0.0,0.0,0.0,0.0,0.0,0.0,0.0,0.0,0.0,0.0,0.0,0.0,0.0,0.0,0.0,0.0,0.0,0.0,0.0,0.0,0.0,0.0,0.0,0.0,0.0,0.0,0.0,0.0,0.0,0.0,0.0,0.0,0.0,0.0,0.0,0.0,0.0,0.0,0.0,0.0,0.0,0.0,0.0,0.0,0.0,0.0,0.0,0.0,-5.7945,0.0,0.0,0.0,0.0,0.0,0.0,0.0,0.0,0.0,0.0,0.0,0.0,0.0,0.0,0.0,0.0,0.0,0.0,0.0,0.0,0.0,0.0,0.0,0.0,0.0,0.0,0.0,-5.5703,-5.5703,-5.5703,-5.5703,-5.5703,-5.5703,-5.5703,-5.5703,-5.5703,-5.5703,-5.5703,-5.5703,-5.6126,-5.678,-5.7588,-5.7165,-5.6742,-5.6329,0.0,0.0,0.0,0.0,0.0,0.0,0.0,0.0,0.0,0.0,0.0,0.0,0.0,0.0,0.0,0.0,0.0,0.0,0.0,0.0,0.0,0.0,0.0,0.0,0.0,0.0,0.0,0.0,0.0,0.0,0.0,0.0,0.0,0.0,0.0,0.0,0.0,0.0,0.0,0.0,0.0,0.0,0.0,0.0,0.0,0.0,0.0,0.0,0.0,0.0,0.0,0.0,0.0,0.0,0.0,0.0,0.0,0.0,0.0,0.0,0.0,0.0,0.0,0.0,0.0,0.0,0.0,0.0,0.0,0.0,0.0,-5.7819,0.0,0.0,0.0,0.0,0.0,0.0,0.0,0.0,0.0,0.0,0.0,0.0,0.0,0.0,0.0,0.0,0.0,0.0,0.0,0.0,0.0,0.0,0.0,-5.5703,-5.5703,-5.5703,-5.5703,-5.5703,-5.5703,-5.5703,-5.5703,-5.5703,-5.5703,-5.5703,-5.5703,-5.5703,-5.578,-5.5934,-5.6934,-5.7808,-5.8511,-5.8511,-5.8127,-5.7407,-5.6549,0.0,0.0,0.0,0.0,0.0,0.0,0.0,0.0,0.0,0.0,0.0,0.0,0.0,0.0,0.0,0.0,0.0,0.0,0.0,0.0,0.0,0.0,0.0,0.0,0.0,0.0,0.0,0.0,0.0,0.0,0.0,0.0,0.0,0.0,0.0,0.0,0.0,0.0,0.0,0.0,0.0,0.0,0.0,0.0,0.0,0.0,0.0,0.0,0.0,0.0,0.0,0.0,0.0,0.0,0.0,0.0,0.0,0.0,0.0,0.0,0.0,0.0,0.0,-5.8742,-5.8742,-5.8742,-5.8742,-5.8742,-5.8742,-5.8588,-5.8896,-5.9396,-5.8038,0.0,0.0,0.0,0.0,0.0,0.0,0.0,0.0,0.0,0.0,0.0,0.0,0.0,0.0,0.0,0.0,0.0,0.0,0.0,0.0,0.0,-5.5703,-5.5703,-5.5703,-5.5703,-5.5703,-5.5703,-5.5703,-5.5703,-5.5703,-5.5703,-5.5703,-5.5703,-5.5703,-5.6049,-5.683,-5.8396,-5.9242,-5.9358,-5.9358,-5.9281,-5.9127,-5.8319,0.0,0.0,0.0,0.0,0.0,0.0,0.0,0.0,0.0,0.0,0.0,0.0,0.0,0.0,0.0,0.0,0.0,0.0,0.0,0.0,0.0,0.0,0.0,0.0,0.0,0.0,0.0,0.0,0.0,0.0,0.0,0.0,0.0,0.0,0.0,0.0,0.0,0.0,0.0,0.0,0.0,0.0,0.0,-5.733,-5.8204,0.0,0.0,0.0,0.0,0.0,0.0,0.0,0.0,0.0,0.0,0.0,0.0,0.0,-5.8511,-5.9319,-5.9358,-5.9704,-6.0473,-6.0473,-6.0473,-6.0473,-6.0473,-6.0473,-6.0435,-5.9665,0.0,-5.9496,-5.9437,0.0,0.0,0.0,0.0,0.0,0.0,0.0,0.0,0.0,0.0,0.0,0.0,0.0,0.0,0.0,0.0,0.0,0.0,0.0,0.0,0.0,-5.6137,-5.6445,-5.6445,-5.6896,-5.6934,-5.6483,-5.6445,-5.6214,-5.5703,-5.5703,-5.5703,-5.5703,-5.6175,-5.7099,-5.8396,-5.9127,-5.9742,-6.0242,-6.0242,-6.0242,-6.0204,-5.9858,-5.8973,-5.7742,-5.7742,0.0,0.0,0.0,0.0,0.0,0.0,0.0,0.0,0.0,0.0,0.0,0.0,0.0,0.0,0.0,0.0,0.0,0.0,0.0,0.0,0.0,0.0,0.0,0.0,0.0,0.0,0.0,0.0,0.0,0.0,0.0,0.0,0.0,0.0,0.0,0.0,0.0,0.0,0.0,-5.7165,-5.805,-5.8896,-5.8588,-5.8165,0.0,0.0,0.0,0.0,0.0,0.0,0.0,0.0,0.0,-5.8934,-5.8973,-5.9396,-6.0204,-6.0242,-6.0435,-6.0781,-6.0781,-6.0781,-6.0781,-6.0781,-6.0781,-6.0793,-6.0496,-6.0335,-6.0307,-5.9955,-5.9744,-5.9631,0.0,0.0,0.0,0.0,-5.8148,-5.8297,0.0,0.0,0.0,0.0,0.0,0.0,0.0,0.0,0.0,0.0,0.0,0.0,-5.6011,-5.6819,-5.7319,-5.7319,-5.7934,-5.7934,-5.706,-5.6983,-5.6599,-5.5742,-5.5703,-5.5703,-5.5703,-5.678,-5.805,-5.9511,-5.9704,-6.0165,-6.0781,-6.0781,-6.0781,-6.0781,-6.0781,-5.9973,-5.8627,-5.8627,-5.8127,0.0,0.0,0.0,0.0,0.0,0.0,0.0,0.0,0.0,0.0,0.0,0.0,0.0,0.0,0.0,0.0,0.0,0.0,0.0,0.0,0.0,0.0,0.0,0.0,0.0,0.0,0.0,0.0,0.0,0.0,0.0,0.0,0.0,0.0,0.0,0.0,0.0,0.0,-5.7742,-5.8588,-5.9396,-5.9165,-5.8858,0.0,0.0,0.0,0.0,0.0,0.0,-5.8588,-5.8627,-5.8973,-5.9819,-5.9819,-6.0127,-6.0781,-6.0781,-6.0781,-6.0781,-6.0781,-6.0781,-6.0781,-6.0781,-6.0827,-6.0877,-6.0963,-6.1031,-6.1011,-6.0483,-6.0204,-6.0181,-6.0094,-5.9645,-5.9099,-5.9061,-5.917,-5.9306,0.0,0.0,0.0,0.0,0.0,0.0,0.0,0.0,0.0,0.0,0.0,-5.6945,-5.6945,-5.7703,-5.8242,-5.8242,-5.828,-5.7934,-5.706,-5.6983,-5.6599,-5.5742,-5.5703,-5.5703,-5.5703,-5.7357,-5.8665,-5.9511,-6.0319,-6.0742,-6.0781,-6.0781,-6.0781,-6.0781,-6.0781,-6.0281,-5.9435,-5.9435,-5.8973,-5.8165,0.0,0.0,0.0,0.0,0.0,0.0,0.0,0.0,0.0,0.0,0.0,0.0,0.0,0.0,0.0,0.0,0.0,0.0,0.0,0.0,0.0,0.0,0.0,0.0,0.0,0.0,0.0,0.0,0.0,0.0,0.0,0.0,0.0,0.0,0.0,0.0,0.0,0.0,0.0,-5.9396,-6.0204,0.0,0.0,0.0,0.0,-5.828,-5.828,-5.8627,-5.9396,-5.9435,-5.9858,-6.0704,-6.0742,-6.0742,-6.0781,-6.0781,-6.0781,-6.0781,-6.0781,-6.0781,-6.0781,-6.0781,-6.086,-6.0988,-6.0997,-6.112,-6.1283,-6.1374,-6.1357,-6.1172,-6.0453,-6.0174,-6.0129,-6.0135,-6.0214,-6.0429,0.0,0.0,0.0,0.0,0.0,0.0,0.0,0.0,-5.7973,-5.7099,-5.6983,-5.6983,-5.6983,-5.8242,-5.9088,-5.9088,-5.9588,-5.955,-5.8665,-5.8127,-5.7434,-5.656,-5.6011,-5.6242,-5.7357,-5.8473,-5.9473,-6.0319,-6.0666,-6.0781,-6.0781,-6.0781,-6.0781,-6.0781,-6.0781,-6.0627,-6.0319,-6.0319,-5.9858,-5.905,-5.8742,-5.7973,0.0,0.0,0.0,0.0,0.0,0.0,0.0,0.0,0.0,0.0,0.0,0.0,0.0,0.0,0.0,0.0,0.0,0.0,0.0,0.0,0.0,0.0,0.0,0.0,0.0,0.0,0.0,0.0,0.0,0.0,0.0,0.0,0.0,0.0,0.0,0.0,0.0,-5.9396,-5.9781,0.0,-5.9511,-5.9511,-5.9396,-5.9088,-5.9588,-6.0012,-6.0319,-6.0319,-6.0473,-6.0781,-6.0781,-6.0781,-6.0781,-6.0781,-6.0781,-6.0781,-6.0781,-6.0781,-6.0793,-6.0902,-6.0954,-6.1014,-6.1232,-6.1378,-6.1424,-6.1579,-6.1568,-6.1424,-6.1229,-6.1165,-6.1165,-6.1165,-6.1208,-6.1289,0.0,0.0,0.0,0.0,0.0,0.0,0.0,0.0,-5.8588,-5.833,-5.8011,-5.7973,-5.8253,-5.9281,-5.9935,-5.9935,-6.0473,-6.0319,-5.9165,-5.8588,-5.778,-5.6599,-5.6291,-5.6934,-5.8665,-5.9242,-5.9935,-6.0781,-6.0781,-6.0781,-6.0781,-6.0781,-6.0781,-6.0781,-6.0781,-6.0781,-6.0781,-6.0781,-6.0473,-5.9896,-5.9627,-5.8665,-5.7407,0.0,0.0,0.0,0.0,0.0,0.0,0.0,0.0,0.0,0.0,0.0,0.0,0.0,0.0,0.0,0.0,0.0,0.0,0.0,0.0,0.0,0.0,0.0,0.0,0.0,0.0,0.0,0.0,0.0,0.0,0.0,0.0,0.0,0.0,0.0,-5.8896,-5.9435,-5.9742,-5.9935,-5.9935,-5.9935,-5.9935,-5.9935,-6.0473,-6.0781,-6.0781,-6.0781,-6.0781,-6.0781,-6.0781,-6.0781,-6.0781,-6.0781,-6.0781,-6.0781,-6.0781,-6.0781,-6.0793,-6.0925,-6.104,-6.1128,-6.1396,-6.1517,-6.1579,-6.1678,-6.1636,-6.1579,-6.1678,-6.1719,-6.1719,-6.1719,-6.1719,-6.1719,0.0,0.0,0.0,0.0,0.0,0.0,0.0,-6.005,-5.9819,-6.0704,-6.005,-5.9819,-6.0704,-6.0781,-6.0781,-6.0781,-6.0781,-6.0089,-5.8434,-5.8319,-5.755,-5.5818,-5.6599,-5.7819,-5.9473,-5.9511,-5.9935,-6.0781,-6.0781,-6.0781,-6.0781,-6.0781,-6.0781,-6.0781,-6.0781,-6.0781,-6.0781,-6.0781,-6.0781,-6.0742,-5.9896,-5.905,-5.8242,0.0,0.0,0.0,0.0,0.0,0.0,0.0,0.0,0.0,0.0,0.0,0.0,0.0,0.0,0.0,0.0,0.0,0.0,0.0,0.0,0.0,0.0,0.0,0.0,0.0,0.0,0.0,0.0,0.0,0.0,0.0,0.0,0.0,-5.8204,-5.9011,-5.9511,-5.955,-6.0281,-6.0781,-6.0781,-6.0781,-6.0781,-6.0781,-6.0781,-6.0781,-6.0781,-6.0781,-6.0781,-6.0781,-6.0781,-6.0781,-6.0781,-6.0781,-6.0781,-6.0781,-6.0781,-6.0793,-6.0816,-6.0935,-6.1128,-6.1301,-6.1467,-6.158,-6.1719,-6.1719,-6.1719,-6.1719,-6.1719,-6.1719,-6.1719,-6.1719,-6.1719,-6.1719,0.0,0.0,0.0,0.0,0.0,0.0,0.0,-6.005,-5.9819,-6.0704,-6.005,-5.9819,-6.0704,-6.0781,-6.0781,-6.0781,-6.0781,-6.0319,-5.9242,-5.8627,-5.778,-5.6676,-5.805,-5.9011,-5.9473,-6.0127,-6.055,-6.0781,-6.0781,-6.0781,-6.0781,-6.0781,-6.0781,-6.0781,-6.0781,-6.0781,-6.0781,-6.0781,-6.0781,-6.0781,-6.055,-5.9935,-5.9127,0.0,0.0,0.0,0.0,0.0,0.0,0.0,0.0,0.0,0.0,0.0,0.0,0.0,0.0,0.0,0.0,0.0,0.0,0.0,0.0,0.0,0.0,0.0,0.0,0.0,0.0,0.0,0.0,0.0,0.0,0.0,-5.8434,-5.8896,-5.9127,-5.9358,-5.9742,-6.0358,-6.0666,-6.0781,-6.0781,-6.0781,-6.0781,-6.0781,-6.0781,-6.0781,-6.0781,-6.0781,-6.0781,-6.0781,-6.0781,-6.0781,-6.0781,-6.0781,-6.0781,-6.0781,-6.0781,-6.0867,-6.0944,-6.1135,-6.1306,-6.1432,-6.1582,-6.1678,-6.1719,-6.1719,-6.1719,-6.1719,-6.1719,-6.1719,-6.1719,-6.1719,-6.1719,-6.1719,0.0,0.0,0.0,0.0,0.0,0.0,0.0,-6.0358,-6.0473,-6.1704,-6.1127,-6.0896,-6.1743,-6.155,-6.1204,-6.0819,-6.0473,-5.9896,-5.905,-5.8204,-5.7819,-5.805,0.0,-5.9665,-6.005,-6.055,-6.0781,-6.0781,-6.0781,-6.0781,-6.0781,-6.0781,-6.0781,-6.0781,-6.0781,-6.0781,-6.0781,-6.0781,-6.0781,-6.0781,-6.0781,-6.0281,-5.9511,-5.9511,-5.9011,-5.8319,-5.8319,-5.8319,-5.8204,-5.7703,0.0,0.0,0.0,0.0,0.0,0.0,0.0,0.0,0.0,0.0,0.0,0.0,0.0,0.0,0.0,0.0,0.0,0.0,0.0,0.0,0.0,0.0,0.0,0.0,-5.8973,-5.9627,-5.9973,-6.005,-6.0242,-6.0742,-6.0781,-6.0781,-6.0781,-6.0781,-6.0781,-6.0781,-6.0781,-6.0781,-6.0781,-6.0781,-6.0781,-6.0781,-6.0781,-6.0781,-6.0781,-6.0781,-6.0781,-6.0781,-6.0877,-6.0935,-6.1014,-6.1283,-6.1413,-6.1507,-6.1635,-6.1719,-6.1719,-6.1719,-6.1719,0.0,0.0,0.0,0.0,0.0,-6.1719,-6.1719,0.0,0.0,0.0,0.0,0.0,0.0,0.0,-6.0781,-6.1396,-6.3077,-6.2589,-6.2435,-6.3358,-6.2627,-6.1793,-6.1012,-6.005,-5.9165,-5.8357,-5.7665,-5.7934,-5.9435,-5.9588,-6.0012,-6.0781,-6.0781,-6.0781,-6.0781,-6.0781,-6.0781,-6.0781,-6.0781,-6.0781,-6.0781,-6.0781,-6.0781,-6.0781,-6.0781,-6.0781,-6.0781,-6.0781,-6.0319,-5.9665,-5.9665,-5.9204,-5.8588,-5.8588,-5.8588,-5.8588,-5.8473,0.0,0.0,0.0,0.0,0.0,0.0,0.0,0.0,0.0,0.0,0.0,0.0,0.0,0.0,0.0,0.0,0.0,0.0,0.0,0.0,0.0,0.0,0.0,0.0,-5.9127,-5.9935,-6.0704,-6.0781,-6.0781,-6.0781,-6.0781,-6.0781,-6.0781,-6.0781,-6.0781,-6.0781,-6.0781,-6.0781,-6.0781,0.0,0.0,0.0,0.0,-6.0781,-6.0781,-6.0781,-6.0781,-6.0793,-6.0925,-6.1014,-6.1056,-6.1378,-6.1507,-6.152,-6.1637,-6.1719,-6.1719,-6.1719,-6.1719,-6.1719,-6.1719,-6.1719,-6.1719,-6.1719,-6.1719,-6.1719,0.0,0.0,0.0,0.0,0.0,0.0,0.0,-6.0781,-6.1396,-6.3077,-6.2589,-6.2666,-6.4166,-6.3012,-6.2024,-6.187,-6.0396,-5.9165,-5.8357,0.0,-5.9165,-5.9473,-6.0165,-6.0627,-6.0781,-6.0781,-6.0781,-6.0781,-6.0781,-6.0781,-6.0781,-6.0781,-6.0781,-6.0781,-6.0781,-6.0781,-6.0781,-6.0781,-6.0781,-6.0781,-6.0781,-6.0704,-6.055,-6.055,-6.0435,-6.0319,-6.0319,-6.0319,-6.0204,-5.9511,-5.9281,-5.9165,-5.8511,0.0,0.0,0.0,0.0,0.0,0.0,0.0,0.0,0.0,0.0,0.0,0.0,0.0,0.0,0.0,0.0,0.0,0.0,0.0,0.0,-5.9242,-5.9973,-6.0589,-6.0781,-6.0781,-6.0781,-6.0781,-6.0781,-6.0781,-6.0781,-6.0781,-6.0781,-6.0781,-6.0781,-6.0781,-6.0781,-6.0781,-6.0781,-6.0781,-6.0781,-6.0781,-6.0781,-6.0781,-6.0781,-6.0793,0.0,0.0,-6.1246,-6.1413,-6.1573,-6.1678,-6.1679,-6.1719,-6.1719,-6.1719,-6.1719,-6.1719,-6.1719,-6.1719,-6.1719,-6.1719,-6.1719,-6.1719,0.0,0.0,0.0,0.0,0.0,0.0,0.0,-6.0781,-6.1243,-6.2512,-6.2358,-6.2409,-6.3243,-6.2204,-6.1281,-6.0819,-5.9627,-5.8742,0.0,-5.905,-5.9704,-6.0127,-6.055,-6.0781,-6.0781,-6.0781,-6.0781,-6.0781,-6.0781,-6.0781,-6.0781,-6.0781,-6.0781,-6.0781,-6.0781,-6.0781,-6.0781,-6.0781,-6.0781,-6.0781,-6.0781,-6.0781,-6.0781,-6.0781,-6.0781,-6.0781,-6.0781,-6.0781,-6.0742,-6.0281,-6.0165,-6.0089,-5.9665,-5.8934,-5.8165,0.0,0.0,0.0,0.0,0.0,0.0,0.0,0.0,0.0,0.0,0.0,0.0,0.0,0.0,-5.8319,-5.8319,0.0,-5.9511,-5.9511,-6.0242,-6.0781,-6.0781,-6.0781,-6.0781,-6.0781,-6.0781,-6.0781,-6.0781,-6.0781,-6.0781,-6.0781,-6.0781,-6.0781,-6.0781,-6.0781,-6.0781,-6.0781,-6.0781,-6.0781,-6.0781,-6.0781,-6.0781,-6.0793,-6.1044,-6.1207,-6.1295,-6.1507,-6.1634,-6.1719,-6.1719,-6.1719,-6.1719,-6.1719,-6.1719,-6.1719,-6.1719,-6.1719,-6.1719,-6.1719,-6.1719,-6.1719,0.0,0.0,0.0,0.0,0.0,0.0,0.0,-6.0781,-6.1089,-6.1985,-6.2101,-6.2178,-6.2332,-6.155,-6.055,-5.9358,-5.8819,0.0,0.0,-5.9204,-6.0089,-6.0781,-6.0781,-6.0781,-6.0781,-6.0781,-6.0781,-6.0781,-6.0781,-6.0781,-6.0781,-6.0781,-6.0781,-6.0781,-6.0781,-6.0781,-6.0781,-6.0781,-6.0781,-6.0781,-6.0781,-6.0781,-6.0781,-6.0781,-6.0781,-6.0781,-6.0781,-6.0704,-6.055,-6.0742,-6.0704,-6.0589,-6.0742,-6.0204,-5.9358,-5.8704,-5.8434,0.0,0.0,0.0,0.0,0.0,0.0,0.0,0.0,0.0,-5.8588,-5.8742,-5.8781,-5.8781,-5.8781,-5.9319,-5.9742,-5.9742,-6.0319,-6.0781,-6.0781,-6.0781,-6.0781,-6.0781,-6.0781,-6.0781,-6.0781,-6.0781,-6.0781,-6.0781,-6.0781,-6.0781,-6.0781,-6.0781,-6.0781,-6.0781,-6.0781,-6.0781,-6.0781,-6.085,-6.0834,-6.0845,-6.1172,-6.1328,-6.1339,-6.1584,-6.1719,-6.1719,-6.1719,-6.1719,-6.1719,-6.1719,-6.1719,-6.1719,-6.1719,-6.1719,-6.1719,-6.1719,-6.1719,-6.1719,0.0,0.0,0.0,0.0,0.0,0.0,0.0,0.0,-6.1089,-6.1985,-6.2101,-6.2358,-6.3089,-6.2435,-6.1012,-5.8627,0.0,0.0,-5.8357,-5.9781,-6.0704,-6.0781,-6.0781,-6.0781,-6.0781,-6.0781,-6.0781,-6.0781,-6.0781,-6.0781,-6.0781,-6.0781,-6.0781,-6.0781,-6.0781,-6.0781,-6.0781,-6.0781,-6.0781,-6.0781,-6.0781,-6.0781,-6.0781,-6.0781,-6.0781,-6.0781,-6.0781,-6.0281,-5.9742,-6.055,-6.0281,-5.9781,-6.055,-6.0204,-5.9473,-5.9396,0.0,-5.8127,-5.7253,-5.706,-5.7137,-5.7137,-5.7665,-5.8357,0.0,0.0,-5.9588,-6.0358,-6.0512,-6.0512,-6.0512,-6.0589,-6.0666,-6.0666,-6.0742,-6.0781,-6.0781,-6.0781,-6.0781,-6.0781,-6.0781,-6.0781,-6.0781,-6.0781,-6.0781,-6.0781,-6.0781,-6.0781,-6.0781,-6.0781,-6.0781,-6.0781,-6.0781,-6.0781,-6.0781,-6.0925,-6.0961,-6.097,-6.1305,-6.1488,-6.1491,-6.1633,-6.1719,-6.1719,-6.1719,-6.1719,-6.1719,-6.1719,-6.1719,-6.1719,-6.1719,-6.1719,-6.1719,-6.1719,-6.1719,-6.1719,0.0,0.0,0.0,0.0,0.0,0.0,0.0,0.0,0.0,-6.1281,-6.1331,-6.1473,-6.182,-6.1089,-5.9781,-5.7703,0.0,0.0,-5.8357,-5.9858,-6.0781,-6.0781,-6.0781,-6.0781,-6.0781,-6.0781,-6.0781,-6.0781,-6.0781,-6.0781,-6.0781,-6.0781,-6.0781,-6.0781,-6.0781,-6.0781,-6.0781,-6.0781,-6.0781,-6.0781,-6.0781,-6.0781,-6.0781,-6.0781,-6.0781,-6.0742,-6.0242,-5.9819,0.0,0.0,-5.9819,-5.9665,-6.0512,-6.0204,-5.9511,-5.9511,-5.8934,0.0,-5.8434,-5.8088,-5.7973,0.0,-5.9088,-5.9204,-6.005,-6.0242,-6.0358,-6.0704,-6.0781,-6.0781,-6.0781,-6.0781,-6.0781,0.0,-6.0781,-6.0781,-6.0781,-6.0781,-6.0781,-6.0781,-6.0781,-6.0781,-6.0781,-6.0781,-6.0781,-6.0781,-6.0781,-6.0781,-6.0781,-6.0781,-6.0781,-6.0781,-6.0781,-6.0781,-6.0781,-6.0916,-6.0997,-6.1006,-6.1325,-6.1504,-6.1507,-6.1635,-6.1719,-6.1719,-6.1719,-6.1719,-6.1719,-6.1719,-6.1719,-6.1719,-6.1719,-6.1719,-6.1719,-6.1719,-6.1719,-6.1719,0.0,0.0,0.0,0.0,0.0,0.0,0.0,0.0,0.0,0.0,-6.0781,-6.0781,-6.0781,-6.0012,-5.9011,0.0,0.0,0.0,0.0,-5.9781,-6.055,-6.0781,-6.0781,-6.0781,-6.0781,-6.0781,-6.0781,-6.0781,-6.0781,-6.0781,-6.0781,-6.0781,-6.0781,-6.0781,-6.0781,-6.0781,-6.0781,-6.0781,-6.0781,-6.0781,-6.0781,-6.0781,-6.0781,-6.0781,-6.0666,-6.0358,-5.9742,-5.9358,0.0,0.0,-5.9011,-5.8973,-5.9819,-5.9665,-5.9165,-5.9165,-5.8588,-5.8127,-5.8934,-5.8742,0.0,-6.0089,-6.0165,-6.0012,-6.0666,-6.0781,-6.0781,-6.0781,-6.0781,-6.0781,-6.0781,-6.0781,-6.0781,-6.0781,-6.0781,-6.0781,-6.0781,-6.0781,-6.0781,-6.0781,-6.0781,-6.0781,-6.0781,-6.0781,-6.0781,-6.0781,-6.0781,-6.0781,-6.0781,-6.0781,-6.0781,-6.0781,-6.0781,-6.0827,-6.0828,-6.0954,-6.1065,-6.114,-6.1396,-6.1515,-6.1573,-6.1677,-6.1719,-6.1719,-6.1719,-6.1719,-6.1719,-6.1719,-6.1719,-6.1719,-6.1719,-6.1719,-6.1719,-6.1719,-6.1719,-6.1719,0.0,0.0,0.0,0.0,0.0,0.0,0.0,0.0,0.0,0.0,0.0,0.0,0.0,0.0,-5.9473,0.0,0.0,0.0,0.0,-5.9511,-5.9935,-6.0742,-6.0781,-6.0781,-6.0781,-6.0781,-6.0781,-6.0781,-6.0781,-6.0781,-6.0781,-6.0781,-6.0781,-6.0781,-6.0781,-6.0781,-6.0781,-6.0781,-6.0781,-6.0781,-6.0781,-6.0781,-6.0781,-6.0781,-6.0281,-5.955,-5.9511,0.0,0.0,0.0,-5.778,-5.7253,-5.8088,-5.8357,0.0,-5.8357,-5.7703,-5.7253,-5.8088,0.0,-5.8511,-5.9319,-6.0165,-6.0781,-6.0781,-6.0781,-6.0781,-6.0781,-6.0781,-6.0781,-6.0781,-6.0781,-6.0781,-6.0781,-6.0781,-6.0781,-6.0781,-6.0781,-6.0781,-6.0781,-6.0781,-6.0781,0.0,-6.0781,-6.0781,-6.0781,-6.0781,-6.0781,-6.0781,-6.0781,-6.0781,-6.0781,-6.0781,-6.085,-6.0988,-6.0997,-6.1161,-6.1495,-6.1501,-6.1575,-6.168,-6.1719,-6.1719,-6.1719,-6.1719,-6.1719,-6.1719,-6.1719,-6.1719,-6.1719,-6.1719,-6.1719,-6.1719,-6.1719,-6.1719,-6.1719,0.0,0.0,0.0,0.0,0.0,0.0,0.0,0.0,0.0,0.0,0.0,0.0,0.0,0.0,0.0,0.0,0.0,0.0,0.0,-6.005,-6.0473,-6.0781,-6.0781,-6.0781,-6.0781,-6.0781,-6.0781,-6.0781,-6.0781,-6.0781,-6.0781,-6.0781,-6.0781,-6.0781,-6.0781,-6.0781,-6.0781,-6.0781,-6.0781,-6.0781,-6.0781,-6.0435,-5.9935,-5.9935,-5.9435,-5.8627,0.0,0.0,0.0,-5.7434,-5.7253,-5.7137,-5.805,-5.7896,-5.7434,-5.7434,-5.7627,-5.805,-5.8858,0.0,-5.9319,-6.0165,-6.0589,-6.0781,-6.0781,-6.0781,-6.0781,-6.0781,-6.0319,-5.9935,-5.9935,-5.9511,-5.9319,-5.9858,-5.9935,-6.0127,-6.0704,-6.0781,-6.0781,-6.0781,-6.0781,0.0,0.0,0.0,0.0,-6.0781,-6.0781,-6.0781,-6.0781,-6.0781,-6.0781,-6.0781,-6.0781,-6.085,-6.0997,-6.1143,-6.1312,-6.1504,-6.1584,-6.1677,-6.1719,-6.1719,-6.1719,-6.1719,-6.1719,-6.1719,-6.1719,-6.1719,-6.1719,-6.1719,-6.1719,-6.1719,-6.1719,-6.1719,-6.1719,-6.1719,0.0,0.0,0.0,0.0,0.0,0.0,0.0,0.0,0.0,0.0,0.0,0.0,0.0,0.0,0.0,0.0,0.0,0.0,0.0,0.0,-6.0319,-6.0319,-6.0319,-6.0204,-5.9896,-5.9896,-5.9896,-5.9896,-6.0204,-6.0319,-6.0319,-6.0666,-6.0781,-6.0781,-6.0781,-6.0781,-6.0781,-6.0781,-6.0627,-6.0319,-6.0319,-5.9819,-5.9088,-5.9088,-5.855,0.0,0.0,0.0,0.0,-5.656,-5.656,-5.6676,-5.755,-5.7434,-5.706,-5.7357,-5.7627,-5.8088,-5.9204,-5.9511,-5.9704,-6.0589,-6.0781,-6.0781,-6.0781,-6.0781,-6.0704,-6.0396,-5.9896,-5.9396,-5.9127,-5.8665,-5.855,-5.9358,-5.9511,-5.9819,-6.0666,-6.0781,-6.0781,-6.0781,-6.0781,-6.0781,0.0,0.0,0.0,-6.0781,-6.0781,-6.0781,-6.0781,-6.0781,-6.0781,-6.0781,-6.0781,-6.0902,-6.1112,-6.1172,-6.1312,-6.1504,-6.1634,-6.1719,-6.1719,-6.1719,-6.1719,-6.1719,-6.1719,-6.1719,-6.1719,-6.1719,-6.1719,-6.1719,-6.1719,-6.1719,-6.1719,-6.1719,-6.1719,-6.1719,0.0,0.0,0.0,0.0,0.0,0.0,0.0,0.0,0.0,0.0,0.0,0.0,0.0,0.0,0.0,0.0,0.0,0.0,0.0,0.0,0.0,-5.9588,-5.9511,-5.9127,-5.8396,-5.8319,-5.8319,-5.8319,-5.905,-5.9435,-5.9473,-6.0281,-6.0666,-6.0666,-6.0666,-6.0666,-6.0666,-6.0666,-6.0204,-5.9435,-5.9435,-5.8934,-5.8242,-5.8242,0.0,0.0,0.0,0.0,0.0,-5.5703,-5.5742,-5.5934,-5.6791,-5.706,-5.7253,-5.8127,-5.778,-5.7484,-5.9127,-5.9588,-5.9781,-6.0589,-6.0781,-6.0781,-6.0781,-6.0781,-6.0512,-5.9665,-5.9435,-5.9127,0.0,0.0,-5.8511,-5.9319,-5.9473,-5.9819,-6.0666,-6.0781,-6.0781,0.0,0.0,0.0,0.0,0.0,0.0,-6.0781,0.0,-6.0781,-6.0781,-6.0781,-6.0793,-6.0804,-6.0793,-6.0945,-6.1295,-6.1143,-6.1201,-6.1509,-6.1635,-6.1719,-6.1719,-6.1719,-6.1719,-6.1719,-6.1719,-6.1719,-6.1719,-6.1719,-6.1719,-6.1719,-6.1719,-6.1719,-6.1719,-6.1719,-6.1719,-6.1719,0.0,0.0,0.0,0.0,0.0,0.0,0.0,0.0,0.0,0.0,0.0,0.0,0.0,0.0,0.0,0.0,0.0,0.0,0.0,0.0,0.0,0.0,0.0,0.0,0.0,0.0,0.0,0.0,0.0,-5.8627,-5.8627,-5.8819,-5.8934,-5.8934,-5.8934,-5.8934,-5.8934,-5.8934,-5.8819,-5.8627,0.0,-5.8088,-5.7319,0.0,0.0,0.0,0.0,0.0,0.0,0.0,0.0,0.0,0.0,-5.7973,-5.8127,-5.8934,-5.905,-5.9088,-6.0165,-6.0473,-6.0512,-6.0742,-6.0781,-6.0781,-6.0781,-6.0281,-5.9781,-5.955,-5.8511,-5.755,0.0,0.0,0.0,-5.8473,-5.9127,0.0,-6.0666,-6.0781,0.0,-6.0781,0.0,-6.0781,-6.0781,-6.0781,0.0,0.0,-6.0781,-6.0781,-6.0781,-6.0781,-6.0856,-6.0944,-6.0867,-6.0991,-6.1428,-6.1512,-6.1541,-6.1637,-6.1679,-6.1719,-6.1719,-6.1719,-6.1719,-6.1719,-6.1719,-6.1719,-6.1719,-6.1719,-6.1719,-6.1719,-6.1719,-6.1719,-6.1719,-6.1719,-6.1719,-6.1719,0.0,0.0,0.0,0.0,0.0,0.0,0.0,0.0,0.0,0.0,0.0,0.0,0.0,0.0,0.0,0.0,0.0,0.0,0.0,0.0,0.0,0.0,0.0,0.0,0.0,0.0,0.0,0.0,0.0,0.0,0.0,-5.8127,-5.8319,-5.8319,-5.8319,-5.8319,-5.8319,-5.8319,0.0,0.0,0.0,0.0,0.0,0.0,0.0,0.0,0.0,0.0,0.0,0.0,0.0,-5.8165,-5.8665,-5.8819,-5.8973,-5.9819,0.0,-5.9704,-6.055,-6.0781,-6.0781,-6.0781,-6.0781,-6.0704,-6.0319,-5.9858,-5.9281,-5.855,-5.7638,0.0,-5.6983,-5.6983,0.0,0.0,0.0,0.0,-6.0666,-6.0781,-6.0781,0.0,-6.0781,0.0,-6.0781,-6.0781,-6.0781,0.0,-6.0781,-6.0781,-6.0781,-6.0867,-6.0935,-6.0997,-6.0945,-6.1079,-6.14,-6.1588,-6.1719,-6.1719,-6.1719,-6.1719,-6.1719,-6.1719,-6.1719,-6.1719,-6.1719,-6.1719,-6.1719,-6.1719,-6.1719,-6.1719,-6.1719,-6.1719,-6.1719,-6.1719,-6.1719,-6.1719,0.0,0.0,0.0,0.0,0.0,0.0,0.0,0.0,0.0,0.0,0.0,0.0,0.0,0.0,0.0,0.0,0.0,0.0,0.0,0.0,0.0,0.0,0.0,0.0,0.0,0.0,0.0,0.0,0.0,0.0,0.0,0.0,0.0,0.0,0.0,0.0,0.0,0.0,0.0,0.0,0.0,0.0,0.0,0.0,0.0,0.0,0.0,0.0,0.0,0.0,-5.8934,-5.9511,-5.9627,-5.9665,-5.9819,-6.0589,-6.0242,-5.9858,-6.0589,-6.0781,-6.0781,-6.0781,-6.0781,-6.055,-5.9704,-5.9435,-5.8896,-5.733,0.0,-5.6868,-5.6983,-5.6983,-5.7561,-5.9242,0.0,-5.9819,-6.0666,-6.0781,-6.0781,-6.0781,-6.0781,-6.0781,-6.0781,-6.0781,-6.0781,-6.0781,-6.0781,-6.0781,-6.0781,-6.0945,-6.1014,-6.1048,-6.1066,-6.1161,-6.1318,-6.1579,-6.1719,-6.1719,-6.1719,-6.1719,-6.1719,-6.1719,-6.1719,-6.1719,-6.1719,-6.1719,-6.1719,-6.1719,-6.1719,-6.1719,-6.1719,-6.1719,-6.1719,-6.1719,-6.1719,-6.1719,0.0,0.0,0.0,0.0,0.0,0.0,0.0,0.0,0.0,0.0,-6.4782,0.0,0.0,0.0,0.0,0.0,0.0,0.0,0.0,0.0,0.0,0.0,0.0,0.0,0.0,0.0,0.0,0.0,0.0,0.0,0.0,0.0,0.0,0.0,0.0,0.0,0.0,0.0,0.0,0.0,0.0,0.0,0.0,0.0,0.0,0.0,0.0,0.0,0.0,0.0,-5.9396,-5.9627,-6.0358,-6.055,-6.0589,-6.0742,-6.0704,-6.0589,-6.0742,-6.0781,-6.0781,-6.0781,-6.0781,-6.055,-5.9704,-5.8973,0.0,0.0,-5.6445,-5.6137,-5.6868,-5.6983,-5.7561,-5.9242,0.0,0.0,0.0,0.0,-6.0781,0.0,-6.0781,-6.0781,-6.0781,-6.0781,0.0,0.0,-6.0781,-6.0781,-6.0781,-6.0945,-6.1081,-6.124,-6.1452,-6.1532,-6.1481,-6.1631,-6.1719,-6.1719,-6.1719,-6.1719,-6.1719,-6.1719,-6.1719,-6.1719,-6.1719,0.0,-6.1719,-6.1719,-6.1719,-6.1719,-6.1719,-6.1719,-6.1719,-6.1719,-6.1719,-6.1719,0.0,0.0,0.0,0.0,0.0,0.0,0.0,0.0,0.0,-6.5897,-6.5551,-6.4782,0.0,0.0,0.0,0.0,0.0,0.0,0.0,0.0,0.0,0.0,0.0,0.0,0.0,0.0,0.0,0.0,0.0,0.0,0.0,0.0,0.0,0.0,0.0,0.0,0.0,0.0,0.0,0.0,0.0,0.0,0.0,0.0,0.0,0.0,0.0,0.0,0.0,0.0,-5.8511,-5.9088,-6.0396,-6.0781,-6.0704,-6.0242,-6.0435,-6.0704,-6.0242,-6.0435,-6.0781,-6.0781,-6.0781,-6.0473,-5.9165,0.0,0.0,0.0,-5.5972,-5.5972,-5.683,-5.6983,0.0,0.0,0.0,0.0,0.0,0.0,0.0,0.0,0.0,0.0,0.0,-6.0781,-6.0781,-6.0781,-6.0781,-6.0781,-6.0781,-6.1027,-6.1246,-6.1392,-6.1585,-6.1634,-6.1504,-6.1634,-6.1719,-6.1719,-6.1719,-6.1719,-6.1719,-6.1719,-6.1719,-6.1719,-6.1719,-6.1719,-6.1719,-6.1719,-6.1719,-6.1719,-6.1719,-6.1719,-6.1719,-6.1719,-6.1719,-6.1719,0.0,0.0,0.0,0.0,0.0,0.0,0.0,-6.5897,-6.5897,-6.5897,-6.5897,-6.5628,-6.4936,-6.3551,-6.2486,0.0,0.0,0.0,0.0,0.0,0.0,0.0,0.0,0.0,0.0,0.0,0.0,0.0,0.0,0.0,0.0,0.0,0.0,0.0,0.0,0.0,0.0,0.0,0.0,0.0,0.0,0.0,0.0,0.0,0.0,0.0,0.0,0.0,0.0,0.0,-5.7588,-5.855,-5.9858,-6.0242,-6.0165,-5.9665,-5.9973,-6.0396,-5.9896,-6.0281,-6.0781,-6.0781,-6.0781,-6.0358,-5.8665,-5.8319,0.0,0.0,-5.5703,-5.5972,-5.683,0.0,-5.706,0.0,-5.8665,0.0,0.0,0.0,0.0,0.0,0.0,0.0,0.0,-6.0781,0.0,-6.0781,-6.0781,-6.0816,-6.0845,-6.1151,-6.1354,-6.1501,-6.1633,-6.1637,-6.1527,-6.1636,-6.1719,-6.1719,-6.1719,-6.1719,-6.1719,-6.1719,-6.1719,-6.1719,-6.1719,-6.1719,-6.1719,-6.1719,-6.1719,-6.1719,-6.1719,-6.1719,-6.1719,-6.1719,-6.1719,-6.1719,0.0,0.0,0.0,0.0,0.0,0.0,0.0,-6.5897,-6.5897,-6.5897,-6.5897,-6.5859,-6.5782,-6.4936,-6.3743,0.0,0.0,0.0,0.0,0.0,0.0,0.0,0.0,0.0,0.0,0.0,0.0,0.0,0.0,0.0,0.0,0.0,0.0,0.0,0.0,0.0,0.0,0.0,0.0,0.0,0.0,0.0,0.0,0.0,0.0,0.0,0.0,0.0,0.0,0.0,0.0,-5.8319,-5.8473,-5.855,-5.8665,-5.9319,0.0,0.0,-6.0473,-6.0742,-6.0781,-6.0781,-6.0781,-6.0358,-5.8665,0.0,0.0,-5.6049,-5.5703,-5.5972,-5.683,-5.6368,-5.6357,0.0,0.0,-5.7753,0.0,0.0,0.0,0.0,0.0,0.0,0.0,0.0,0.0,-6.0781,-6.0781,-6.0867,-6.0991,-6.1186,-6.1354,-6.1501,-6.1633,-6.168,-6.1679,-6.168,-6.1719,-6.1719,-6.1719,-6.1719,-6.1719,-6.1719,-6.1719,-6.1719,-6.1719,-6.1719,0.0,-6.1719,-6.1719,-6.1719,-6.1719,-6.1719,-6.1719,-6.1719,-6.1719,-6.1719,0.0,0.0,0.0,0.0,0.0,0.0,0.0,-6.5897,-6.5897,-6.5897,-6.5897,-6.5897,-6.5897,-6.559,-6.4897,0.0,0.0,0.0,0.0,0.0,0.0,0.0,0.0,0.0,0.0,0.0,0.0,-6.0281,-5.9435,0.0,0.0,0.0,0.0,0.0,0.0,0.0,0.0,0.0,0.0,0.0,0.0,0.0,0.0,0.0,0.0,0.0,0.0,0.0,0.0,0.0,0.0,0.0,-5.6742,-5.6742,0.0,0.0,-5.8704,-5.9473,-5.9319,-6.0012,-6.0781,-6.0781,-6.0781,-6.0358,-5.8665,0.0,-5.7819,-5.6049,-5.5703,-5.5818,-5.6126,-5.5934,-5.5934,0.0,0.0,0.0,0.0,0.0,0.0,0.0,0.0,0.0,0.0,0.0,-6.0781,-6.0781,-6.0781,-6.0877,-6.0988,-6.1193,-6.1387,-6.1591,-6.1678,-6.1719,-6.1719,-6.1719,-6.1719,-6.1719,-6.1719,-6.1719,-6.1719,-6.1719,-6.1719,-6.1719,-6.1719,-6.1719,0.0,-6.1719,-6.1719,-6.1719,-6.1719,-6.1719,-6.1719,-6.1719,-6.1719,-6.1719,0.0,0.0,0.0,0.0,0.0,0.0,-6.5897,-6.5897,-6.5897,-6.5897,-6.5897,-6.5897,-6.5897,-6.5897,-6.5628,-6.5051,0.0,0.0,0.0,0.0,0.0,0.0,0.0,0.0,0.0,0.0,-6.0781,-6.0781,-6.0204,-5.9896,0.0,0.0,0.0,0.0,0.0,0.0,0.0,0.0,0.0,0.0,0.0,0.0,0.0,0.0,0.0,0.0,0.0,0.0,0.0,0.0,0.0,0.0,0.0,0.0,0.0,0.0,-5.7819,-5.8742,-5.8665,-5.9511,-6.0473,-6.0742,-6.0589,-6.005,0.0,0.0,-5.7473,-5.6011,-5.5703,-5.5703,-5.5703,-5.5703,-5.5703,0.0,0.0,-5.6907,0.0,0.0,0.0,0.0,0.0,0.0,0.0,-6.0666,-6.0781,-6.0781,-6.0834,-6.0925,-6.1089,-6.1271,-6.1467,-6.1634,-6.1679,-6.1719,-6.1719,-6.1719,-6.1719,-6.1719,-6.1719,-6.1719,-6.1719,-6.1719,-6.1719,-6.1719,-6.1719,-6.1719,0.0,-6.1719,-6.1719,-6.1719,-6.1719,-6.1719,-6.1719,-6.1719,-6.1719,-6.1719,0.0,0.0,0.0,0.0,0.0,0.0,0.0,-6.5897,-6.5897,-6.5897,-6.5897,-6.5897,-6.5897,-6.5897,-6.5897,-6.5897,0.0,0.0,0.0,0.0,0.0,0.0,0.0,0.0,0.0,0.0,-6.0781,-6.0781,-6.0781,-6.0781,-6.0781,-5.9896,-5.9473,0.0,0.0,0.0,0.0,0.0,0.0,0.0,0.0,0.0,0.0,0.0,0.0,0.0,0.0,0.0,0.0,0.0,0.0,0.0,0.0,-5.5703,-5.5857,0.0,-5.7022,-5.7407,-5.905,-5.9511,-5.9704,-6.0589,-6.0165,-5.9319,0.0,0.0,-5.6753,-5.5857,-5.5703,-5.5703,-5.5703,-5.5703,-5.5703,-5.5703,0.0,0.0,0.0,0.0,0.0,0.0,0.0,0.0,0.0,0.0,-6.0781,-6.0781,-6.0935,0.0,-6.1277,-6.1413,-6.1504,-6.1504,-6.1633,-6.1719,-6.1719,-6.1719,-6.1719,-6.1719,-6.1719,-6.1719,-6.1719,-6.1719,-6.1719,-6.1719,-6.1719,-6.1719,0.0,-6.1719,-6.1719,-6.1719,-6.1719,-6.1719,-6.1719,-6.1719,-6.1719,-6.1719,0.0,0.0,0.0,0.0,0.0,0.0,0.0,-6.5897,-6.5897,-6.5897,-6.5897,-6.5897,-6.5897,-6.5897,-6.5897,-6.5897,0.0,0.0,0.0,0.0,0.0,0.0,0.0,0.0,0.0,0.0,-6.0781,-6.0781,-6.0781,-6.0781,-6.0781,-6.0512,-6.0396,-6.0358,-5.9511,0.0,0.0,0.0,0.0,0.0,0.0,0.0,0.0,0.0,0.0,0.0,0.0,0.0,0.0,0.0,0.0,0.0,0.0,0.0,0.0,-5.6011,-5.6522,-5.7137,-5.7638,-5.8242,-5.8742,-5.9011,-5.8896,-5.8473,-5.7588,0.0,-5.6753,-5.5857,-5.5703,-5.5703,-5.5703,-5.5703,-5.5703,-5.5703,0.0,0.0,0.0,0.0,0.0,0.0,0.0,0.0,0.0,0.0,-6.0781,-6.0781,-6.0935,-6.1097,-6.1277,-6.1413,-6.1525,-6.1634,-6.1679,-6.1719,-6.1719,-6.1719,-6.1719,-6.1719,-6.1719,-6.1719,-6.1719,-6.1719,-6.1719,-6.1719,-6.1719,-6.1719,-6.1719,-6.1719,-6.1719,-6.1719,-6.1719,-6.1719,-6.1719,-6.1719,-6.1719,-6.1719,0.0,0.0,0.0,0.0,0.0,0.0,0.0,-6.5897,-6.5897,-6.5897,-6.5897,-6.5897,-6.5897,-6.5897,-6.5897,-6.5897,0.0,0.0,0.0,0.0,0.0,0.0,0.0,0.0,0.0,-6.0781,-6.0781,-6.0781,-6.0781,-6.0781,-6.0781,-6.0781,-6.0781,-6.0781,-6.0242,0.0,0.0,0.0,0.0,0.0,0.0,0.0,-5.5703,0.0,0.0,0.0,0.0,0.0,0.0,0.0,0.0,0.0,0.0,0.0,0.0,0.0,-5.6088,-5.6599,-5.6907,-5.7396,-5.7896,-5.8204,-5.805,-5.7665,0.0,0.0,-5.6368,-5.5818,-5.5703,-5.5703,-5.5703,-5.5703,-5.5703,-5.5703,-5.5703,0.0,0.0,0.0,0.0,0.0,0.0,0.0,0.0,-6.0589,-6.0827,-6.0871,-6.1036,-6.1207,-6.1359,-6.1504,-6.1591,-6.1719,-6.1719,-6.1719,-6.1719,-6.1719,-6.1719,-6.1719,-6.1719,-6.1719,-6.1719,-6.1719,-6.1719,-6.1719,-6.1719,-6.1719,0.0,-6.1719,-6.1719,-6.1719,-6.1719,-6.1719,-6.1719,-6.1719,-6.1719,-6.1719,0.0,0.0,0.0,0.0,0.0,0.0,0.0,0.0,0.0,0.0,-6.5897,-6.5897,-6.5897,-6.5897,-6.5897,0.0,0.0,0.0,0.0,0.0,0.0,0.0,0.0,0.0,-6.0781,-6.0781,-6.0781,-6.0781,-6.0781,-6.0781,-6.0781,-6.0781,-6.0781,-6.0781,-6.0781,-6.0358,0.0,0.0,0.0,0.0,-5.6945,-5.6406,0.0,0.0,0.0,0.0,0.0,0.0,0.0,0.0,0.0,0.0,0.0,0.0,0.0,0.0,0.0,0.0,0.0,-5.6907,-5.7099,-5.7896,-5.7511,-5.6907,-5.6907,0.0,0.0,0.0,0.0,-5.5703,-5.5703,-5.5703,-5.5703,-5.5703,0.0,0.0,0.0,0.0,0.0,0.0,0.0,0.0,-5.9588,-6.0319,-6.0867,-6.0979,-6.1193,-6.1349,-6.1498,-6.1632,-6.1719,-6.1719,-6.1719,-6.1719,-6.1719,-6.1719,-6.1719,-6.1719,-6.1719,-6.1719,-6.1719,-6.1719,-6.1719,0.0,-6.1719,-6.1719,-6.1719,-6.1719,-6.1719,-6.1719,-6.1719,-6.1719,-6.1719,-6.1719,-6.1719,-6.1719,0.0,0.0,0.0,0.0,0.0,0.0,0.0,0.0,0.0,0.0,-6.5897,-6.5897,-6.5897,-6.5897,-6.5897,0.0,0.0,0.0,0.0,0.0,0.0,0.0,0.0,0.0,-6.0781,-6.0781,-6.0781,-6.0781,-6.0781,-6.0781,-6.0781,-6.0781,-6.0781,-6.0781,-6.0781,-6.0704,0.0,0.0,0.0,0.0,-5.6549,-5.5857,0.0,0.0,0.0,0.0,-5.5703,-5.5703,0.0,0.0,0.0,0.0,0.0,0.0,0.0,0.0,-5.5703,-5.5742,-5.5934,0.0,-5.6049,-5.6242,-5.6165,-5.6011,0.0,0.0,0.0,0.0,0.0,0.0,0.0,0.0,0.0,0.0,0.0,0.0,0.0,0.0,0.0,0.0,-5.9973,-6.0473,-6.0473,-6.0666,-6.0867,-6.0979,-6.1193,-6.1349,-6.1498,-6.1632,-6.1719,-6.1719,-6.1719,-6.1719,-6.1719,-6.1719,-6.1719,-6.1719,-6.1719,-6.1719,-6.1719,-6.1719,-6.1719,-6.1719,-6.1719,-6.1719,-6.1719,-6.1719,-6.1719,-6.1719,-6.1719,-6.1719,-6.1719,-6.1719,-6.1719,-6.1719,0.0,0.0,0.0,0.0,0.0,0.0,0.0,0.0,0.0,0.0,0.0,0.0,0.0,0.0,0.0,0.0,0.0,0.0,0.0,0.0,0.0,0.0,0.0,-6.0781,-6.0781,-6.0781,-6.0781,-6.0781,-6.0781,-6.0781,-6.0781,-6.0781,-6.0781,-6.0781,-6.0781,-6.0781,-6.0704,-5.9396,-5.8627,-5.8165,-5.6819,0.0,0.0,0.0,0.0,0.0,-5.5703,-5.5703,0.0,-5.5703,-5.5703,-5.5703,0.0,0.0,0.0,0.0,-5.5703,-5.5703,-5.5703,-5.5703,-5.5703,-5.5703,-5.5703,-5.5703,-5.5703,0.0,0.0,0.0,0.0,0.0,0.0,0.0,0.0,0.0,-5.6049,0.0,0.0,0.0,0.0,0.0,0.0,-6.0781,0.0,-6.0867,-6.0944,-6.1128,-6.1306,-6.1432,-6.1582,-6.1677,-6.1719,-6.1719,-6.1719,-6.1719,-6.1719,-6.1719,-6.1719,-6.1719,-6.1719,-6.1719,-6.1719,-6.1719,-6.1719,-6.1719,-6.1719,-6.1719,-6.1719,-6.1719,-6.1719,-6.1719,-6.1719,-6.1719,-6.1719,-6.1719,-6.1719,-6.1719,0.0,0.0,0.0,0.0,0.0,0.0,0.0,0.0,0.0,0.0,0.0,0.0,0.0,0.0,0.0,0.0,0.0,0.0,0.0,0.0,0.0,0.0,0.0,-6.0935,-6.0781,-6.0781,-6.0781,-6.0781,-6.0781,-6.0781,-6.0781,-6.0781,-6.0781,-6.0781,-6.0781,-6.0781,-6.0742,-5.9742,-5.8934,-5.8204,-5.7203,0.0,0.0,0.0,0.0,0.0,0.0,0.0,0.0,-5.5703,-5.5703,-5.5703,-5.5703,0.0,0.0,0.0,0.0,0.0,-5.5703,-5.5703,-5.5703,-5.5703,-5.5703,-5.5703,-5.5703,0.0,0.0,0.0,0.0,0.0,0.0,-5.5895,0.0,0.0,0.0,0.0,0.0,0.0,0.0,0.0,0.0,0.0,-6.0811,-6.0916,-6.1105,-6.1306,-6.146,-6.1573,-6.168,-6.1719,-6.1719,-6.1719,-6.1719,-6.1719,-6.1719,-6.1719,-6.1719,-6.1719,-6.1719,-6.1719,-6.1719,-6.1719,-6.1719,-6.1719,-6.1719,0.0,-6.1719,-6.1719,-6.1719,-6.1719,-6.1719,-6.1719,-6.1719,-6.1719,-6.1719,-6.1719,0.0,0.0,0.0,0.0,0.0,0.0,0.0,0.0,0.0,0.0,0.0,0.0,0.0,0.0,0.0,0.0,0.0,0.0,0.0,0.0,0.0,0.0,-6.232,-6.1562,-6.0819,-6.0781,-6.0781,-6.0781,-6.0781,-6.0781,-6.0781,-6.0781,-6.0781,-6.0781,-6.0781,-6.0781,-6.0704,-5.9127,-5.8396,-5.8165,-5.6549,0.0,0.0,0.0,0.0,0.0,0.0,0.0,0.0,-5.5703,-5.5703,-5.5703,-5.5703,0.0,0.0,0.0,0.0,0.0,-5.5703,-5.5703,-5.5703,-5.5703,-5.5703,-5.5703,-5.5703,0.0,0.0,0.0,0.0,0.0,0.0,-5.6791,-5.7049,0.0,0.0,-5.8165,0.0,0.0,0.0,-5.9511,0.0,-6.0845,-6.0963,-6.0979,-6.1126,-6.1432,-6.1495,-6.1573,-6.168,-6.1719,-6.1719,-6.1719,-6.1719,-6.1719,-6.1719,-6.1719,-6.1719,-6.1719,-6.1719,-6.1719,-6.1719,-6.1719,-6.1719,-6.1719,0.0,-6.1719,-6.1719,-6.1719,-6.1719,-6.1719,-6.1719,-6.1719,-6.1719,-6.1719,-6.1719,-6.1719,0.0,0.0,0.0,0.0,0.0,0.0,0.0,0.0,0.0,0.0,0.0,0.0,0.0,0.0,0.0,0.0,0.0,0.0,0.0,0.0,0.0,-6.3346,-6.2935,-6.2127,-6.0819,-6.0781,-6.0781,-6.0781,-6.0781,-6.0781,-6.0781,-6.0781,-6.0781,-6.0781,-6.0781,-6.0781,-6.0704,-5.9011,-5.8319,-5.8165,0.0,0.0,0.0,0.0,0.0,0.0,0.0,0.0,0.0,0.0,-5.5703,-5.5703,-5.5703,0.0,0.0,0.0,0.0,0.0,-5.5703,-5.5703,-5.5818,-5.6291,-5.6049,-5.5703,0.0,0.0,0.0,0.0,0.0,0.0,0.0,0.0,-5.7445,-5.8742,0.0,-5.9127,-5.9588,-5.9973,-6.0204,0.0,0.0,-6.0867,-6.0979,-6.1105,-6.1277,-6.1495,-6.1575,-6.1634,-6.1719,-6.1719,-6.1719,-6.1719,-6.1719,-6.1719,-6.1719,-6.1719,-6.1719,-6.1719,-6.1719,-6.1719,-6.1719,-6.1719,-6.1719,-6.1719,0.0,-6.1719,-6.1719,-6.1719,-6.1719,-6.1719,-6.1719,-6.1719,-6.1719,-6.1719,-6.1719,-6.1719,0.0,0.0,0.0,0.0,0.0,0.0,0.0,0.0,0.0,0.0,0.0,0.0,0.0,0.0,0.0,0.0,0.0,0.0,0.0,0.0,-6.5128,-6.3397,-6.3308,-6.2512,-6.0819,-6.0781,-6.0781,-6.0781,-6.0781,-6.0781,-6.0781,-6.0781,-6.0781,-6.0781,-6.0781,-6.0781,-6.0704,-5.9011,-5.8319,-5.8165,0.0,0.0,0.0,0.0,0.0,0.0,0.0,0.0,0.0,0.0,0.0,0.0,0.0,0.0,0.0,-5.5703,-5.5703,-5.5703,-5.5703,-5.5703,-5.5857,-5.6522,0.0,0.0,0.0,0.0,0.0,0.0,0.0,0.0,0.0,0.0,0.0,0.0,-5.9665,-6.005,-6.0704,-6.0781,-6.0781,-6.0781,-6.0781,-6.085,-6.1048,-6.1214,-6.1359,-6.1522,-6.1635,-6.1719,-6.1719,-6.1719,-6.1719,-6.1719,-6.1719,-6.1719,-6.1719,-6.1719,-6.1719,-6.1719,-6.1719,-6.1719,-6.1719,-6.1719,-6.1719,-6.1719,-6.1719,-6.1719,-6.1719,-6.1719,-6.1719,-6.1719,-6.1719,-6.1719,-6.1719,-6.1719,-6.1719,-6.1719,0.0,0.0,0.0,0.0,0.0,0.0,0.0,0.0,0.0,0.0,0.0,0.0,0.0,0.0,0.0,0.0,0.0,0.0,0.0,0.0,-6.5128,-6.3397,-6.3308,-6.2512,-6.0819,-6.0781,-6.0781,-6.0781,-6.0781,-6.0781,-6.0781,-6.0781,-6.0781,-6.0781,-6.0781,-6.0781,-6.0704,-5.9011,-5.8319,-5.8165,-5.6395,0.0,0.0,0.0,0.0,0.0,0.0,0.0,0.0,0.0,0.0,0.0,0.0,0.0,-5.5703,-5.5703,-5.5703,-5.5703,-5.5703,-5.5703,-5.5703,-5.578,-5.6368,0.0,-5.7934,-5.8127,0.0,-5.8127,0.0,0.0,0.0,0.0,0.0,0.0,-6.0165,-6.0742,-6.0781,0.0,-6.0781,-6.0781,-6.0781,-6.0923,-6.124,-6.1277,-6.1396,-6.1678,-6.168,-6.1719,-6.1719,-6.1719,-6.1719,-6.1719,-6.1719,-6.1719,-6.1719,-6.1719,-6.1719,-6.1719,-6.1719,-6.1719,-6.1719,-6.1719,-6.1719,-6.1719,-6.1719,-6.1719,-6.1719,-6.1719,-6.1719,-6.1719,-6.1719,-6.1719,-6.1719,-6.1719,-6.1719,-6.1719,0.0,0.0,0.0,0.0,0.0,0.0,0.0,0.0,0.0,0.0,0.0,0.0,0.0,0.0,0.0,0.0,0.0,0.0,0.0,0.0,-6.5128,-6.3397,-6.3308,-6.2512,-6.0819,-6.0781,-6.0781,-6.0781,-6.0781,-6.0781,-6.0781,-6.0781,-6.0781,-6.0781,-6.0781,-6.0512,-5.9935,-5.8781,-5.7973,-5.7396,-5.6165,-5.5703,0.0,0.0,0.0,0.0,0.0,0.0,0.0,0.0,-5.5703,-5.5703,0.0,0.0,0.0,0.0,-5.5703,-5.5703,-5.5703,-5.6088,-5.6637,-5.7165,-5.755,0.0,0.0,-5.7896,-5.8319,-5.8319,-5.8319,0.0,0.0,0.0,0.0,0.0,0.0,-6.0781,-6.0781,-6.0781,-6.0781,-6.0781,-6.0871,-6.1036,-6.1265,-6.1369,-6.1504,-6.1679,-6.1719,-6.1719,-6.1719,-6.1719,-6.1719,-6.1719,-6.1719,-6.1719,-6.1719,-6.1719,-6.1719,-6.1719,-6.1719,-6.1719,-6.1719,-6.1719,-6.1719,-6.1719,-6.1719,-6.1719,-6.1719,-6.1719,-6.1719,-6.1719,-6.1719,-6.1719,-6.1719,-6.1719,-6.1719,-6.1797,0.0,0.0,0.0,0.0,0.0,0.0,0.0,0.0,0.0,0.0,0.0,0.0,0.0,0.0,0.0,0.0,0.0,0.0,-6.5897,-6.5897,-6.5128,-6.3397,-6.3308,-6.2512,-6.0819,-6.0781,-6.0781,-6.0781,-6.0781,-6.0781,-6.0781,-6.0781,-6.0781,-6.0781,-6.0512,-6.005,-5.9435,-5.8357,-5.755,-5.6907,-5.6049,-5.5703,0.0,0.0,0.0,0.0,0.0,0.0,0.0,0.0,-5.5703,-5.5703,0.0,0.0,0.0,0.0,-5.5703,-5.5703,-5.5703,-5.6329,-5.7137,-5.7742,0.0,0.0,-5.7934,-5.805,-5.8357,-5.8627,-5.8896,0.0,0.0,0.0,0.0,0.0,-6.0627,-6.0781,-6.0781,-6.0781,-6.0781,-6.0781,-6.0925,-6.1089,-6.1271,-6.1409,-6.1571,-6.1679,-6.1719,-6.1719,-6.1719,-6.1719,-6.1719,-6.1719,-6.1719,-6.1719,-6.1719,-6.1719,-6.1719,-6.1719,-6.1719,-6.1719,-6.1719,-6.1719,-6.1719,-6.1719,-6.1719,-6.1719,-6.1719,-6.1719,-6.1719,-6.1719,-6.1719,-6.1719,-6.1719,-6.1719,-6.1875,-6.2187,0.0,0.0,0.0,0.0,0.0,0.0,0.0,0.0,0.0,0.0,0.0,0.0,0.0,0.0,0.0,0.0,0.0,0.0,-6.5897,-6.5897,-6.5128,-6.3397,-6.3308,-6.2512,-6.0819,-6.0781,-6.0781,-6.0781,-6.0781,-6.0781,-6.0781,-6.0781,-6.0781,-6.0742,-5.9896,-5.9511,-5.9396,-5.7715,-5.6983,-5.6907,-5.6049,-5.5703,-5.5703,0.0,0.0,0.0,0.0,0.0,0.0,0.0,-5.5703,-5.5703,0.0,0.0,0.0,0.0,-5.5703,-5.5703,-5.5703,-5.6368,-5.7022,0.0,0.0,0.0,-5.9511,-5.8896,-5.855,-5.9319,0.0,-6.0512,-5.9665,0.0,0.0,-5.9665,-6.0242,-6.0781,-6.0781,-6.0781,-6.0781,-6.0781,-6.0925,-6.1089,-6.1271,-6.1409,-6.1571,-6.1679,-6.1719,-6.1719,-6.1719,-6.1719,-6.1719,-6.1719,-6.1719,-6.1719,-6.1719,-6.1719,-6.1719,-6.1719,-6.1719,-6.1719,-6.1719,-6.1719,-6.1719,-6.1719,-6.1719,-6.1719,-6.1719,-6.1719,-6.1719,-6.1719,-6.1719,-6.1719,-6.1719,-6.1719,-6.2265,-6.3008,0.0,0.0,0.0,0.0,0.0,0.0,0.0,0.0,0.0,0.0,0.0,0.0,0.0,0.0,0.0,0.0,0.0,0.0,-6.5897,-6.5897,-6.5128,-6.3397,-6.3308,-6.2512,-6.0819,-6.0781,-6.0781,-6.0781,-6.0781,-6.0781,-6.0781,-6.0781,-6.0781,-6.0742,-5.9896,-5.9204,-5.8588,-5.7484,-5.6637,-5.6049,-5.578,-5.5703,-5.5703,0.0,0.0,0.0,0.0,0.0,0.0,0.0,0.0,0.0,0.0,0.0,0.0,0.0,-5.6126,-5.6599,-5.6599,-5.7665,0.0,-5.8742,0.0,0.0,0.0,-5.9319,0.0,0.0,-5.9781,-6.0512,-5.9665,0.0,0.0,-6.0473,-6.0627,-6.0781,-6.0781,-6.0781,-6.0781,-6.0781,-6.1036,-6.1234,-6.1283,-6.1507,-6.1677,-6.1719,-6.1719,-6.1719,-6.1719,-6.1719,-6.1719,-6.1719,-6.1719,-6.1719,-6.1719,-6.1719,-6.1719,-6.1719,-6.1719,-6.1719,-6.1719,-6.1719,-6.1719,-6.1719,-6.1719,-6.1719,-6.1719,-6.1719,-6.1719,-6.1719,-6.1719,-6.1719,-6.1719,-6.1719,-6.2265,-6.3086,0.0,0.0,0.0,0.0,0.0,0.0,0.0,0.0,0.0,0.0,-6.5897,-6.5897,0.0,0.0,0.0,0.0,0.0,0.0,0.0,0.0,-6.4743,-6.3346,-6.2974,-6.2204,-6.0819,-6.0781,-6.0781,-6.0781,-6.0781,-6.0781,-6.0781,-6.0781,-6.0781,-6.0742,-5.955,-5.8742,-5.8204,-5.7011,-5.6175,-5.5703,-5.5703,-5.5703,-5.5703,0.0,0.0,0.0,0.0,0.0,0.0,0.0,0.0,0.0,0.0,0.0,0.0,-5.5703,-5.6329,-5.6983,-5.6983,-5.8204,0.0,-5.9511,-5.9742,-5.9935,-5.9588,0.0,0.0,0.0,0.0,-6.0627,-6.0127,-6.0435,0.0,-6.0781,-6.0781,-6.0781,-6.0781,-6.0781,-6.0781,-6.0781,-6.1095,-6.1283,-6.1283,-6.1525,-6.1719,-6.1719,-6.1719,-6.1719,-6.1719,-6.1719,-6.1719,-6.1719,-6.1719,-6.1719,-6.1719,-6.1719,-6.1719,-6.1719,-6.1719,-6.1719,-6.1719,-6.1719,-6.1719,-6.1719,-6.1719,-6.1719,-6.1719,-6.1719,-6.1719,-6.1719,-6.1719,-6.1719,-6.1758,-6.2109,-6.2773,-6.3633,0.0,0.0,0.0,0.0,0.0,0.0,0.0,0.0,0.0,0.0,-6.5897,-6.5897,0.0,0.0,0.0,0.0,0.0,0.0,0.0,0.0,-6.4205,-6.3346,-6.2435,-6.1601,-6.0819,-6.0781,-6.0781,-6.0781,-6.0781,-6.0781,-6.0781,-6.0781,-6.0742,-6.0589,-5.9011,-5.828,-5.8088,-5.6395,-5.5703,-5.5703,-5.5703,-5.5703,-5.5703,-5.5703,0.0,0.0,0.0,0.0,0.0,0.0,0.0,0.0,0.0,0.0,-5.5703,-5.5703,-5.6329,-5.7022,-5.7099,0.0,0.0,-5.9588,-6.0204,0.0,-5.9819,-5.9627,-5.9588,-5.9435,0.0,-6.0781,-6.0704,-6.0742,-6.0781,-6.0781,-6.0781,-6.0781,-6.0781,-6.0781,-6.0781,-6.0781,-6.1095,-6.1283,-6.1283,-6.1525,-6.1719,-6.1719,-6.1719,-6.1719,-6.1719,-6.1719,-6.1719,-6.1719,-6.1719,-6.1719,-6.1719,-6.1719,-6.1719,-6.1719,-6.1719,-6.1719,-6.1719,-6.1719,-6.1719,-6.1719,-6.1719,-6.1719,-6.1719,-6.1719,-6.1719,-6.1719,-6.1719,-6.1758,-6.1914,-6.2695,-6.3594,-6.4531,0.0,0.0,0.0,0.0,0.0,0.0,0.0,0.0,0.0,0.0,0.0,0.0,0.0,0.0,0.0,0.0,0.0,0.0,0.0,0.0,-6.4205,-6.3346,-6.1858,-6.0973,-6.0781,-6.0781,-6.0781,-6.0781,-6.0781,-6.0781,-6.0781,-6.0781,-6.0435,-5.9742,-5.8742,-5.7934,-5.7214,-5.6165,-5.5703,-5.5703,-5.5703,-5.5703,-5.5703,-5.5703,-5.5703,0.0,0.0,0.0,0.0,0.0,0.0,0.0,-5.5703,-5.5703,-5.5703,-5.5703,-5.6329,-5.7137,0.0,-5.8742,0.0,0.0,-6.0666,-6.0742,-6.055,-6.0512,-6.0165,-5.8819,-5.9742,-6.0589,-5.9896,-6.0319,-6.0781,-6.0781,-6.0781,-6.0781,-6.0781,-6.0781,-6.0781,-6.0781,-6.1095,-6.1283,-6.1283,-6.1525,-6.1719,-6.1719,-6.1719,-6.1719,-6.1719,-6.1719,-6.1719,-6.1719,-6.1719,-6.1719,-6.1719,-6.1719,-6.1719,-6.1719,-6.1719,-6.1719,-6.1719,-6.1719,-6.1719,-6.1719,-6.1719,-6.1719,-6.1719,-6.1719,-6.1719,-6.1719,-6.1719,-6.2109,-6.2734,-6.293,-6.3984,-6.5351,0.0,0.0,0.0,0.0,0.0,0.0,0.0,0.0,0.0,0.0,0.0,0.0,0.0,0.0,0.0,0.0,-6.5897,0.0,0.0,0.0,-6.3435,-6.2166,-6.1281,-6.0781,-6.0781,-6.0781,-6.0781,-6.0781,-6.0781,-6.0781,-6.0781,-6.0781,-6.0319,-5.9473,-5.8665,-5.7819,-5.6945,-5.6049,-5.5703,-5.5703,-5.5703,-5.5703,-5.5703,-5.5703,-5.5703,-5.5703,-5.5703,0.0,0.0,0.0,0.0,0.0,0.0,0.0,-5.5703,-5.5703,-5.6329,-5.7176,0.0,0.0,0.0,0.0,0.0,0.0,-6.0781,-6.0781,-6.055,-5.9665,-6.0204,-6.0666,-6.0204,-6.0473,-6.0781,-6.0781,-6.0781,-6.0781,-6.0781,-6.0781,-6.0781,-6.0781,-6.1095,-6.1283,-6.1283,-6.1525,-6.1719,-6.1719,-6.1719,-6.1719,-6.1719,-6.1719,-6.1719,-6.1719,-6.1719,-6.1719,-6.1719,-6.1719,-6.1719,-6.1719,-6.1719,-6.1719,-6.1719,-6.1719,-6.1719,-6.1719,-6.1719,-6.1719,-6.1719,-6.1719,-6.1719,-6.1758,-6.2148,-6.2617,-6.3086,-6.3945,-6.4805,-6.5664,0.0,0.0,0.0,0.0,0.0,0.0,0.0,0.0,0.0,0.0,0.0,0.0,0.0,0.0,-6.5897,0.0,0.0,0.0,0.0,-6.3666,-6.2397,-6.0858,-6.0781,-6.0781,-6.0781,-6.0781,-6.0781,-6.0781,-6.0781,-6.0781,-6.0781,-6.0781,-6.0242,-5.9281,-5.8588,-5.7742,-5.6714,-5.6011,-5.5703,-5.5703,-5.5703,-5.5703,-5.5703,-5.5703,-5.5703,-5.5703,-5.5703,-5.5703,-5.5703,-5.5703,0.0,0.0,0.0,0.0,-5.5703,-5.5703,-5.6214,-5.6983,0.0,0.0,0.0,0.0,0.0,0.0,0.0,0.0,0.0,-6.0781,-6.0781,-6.0781,-6.0781,-6.0781,-6.0781,-6.0781,-6.0781,-6.0781,-6.0781,-6.0781,-6.0781,-6.0781,-6.1095,-6.1283,-6.1283,-6.1525,-6.1719,-6.1719,-6.1719,-6.1719,-6.1719,-6.1719,-6.1719,-6.1719,-6.1719,-6.1719,-6.1719,-6.1719,-6.1719,-6.1719,-6.1719,-6.1719,-6.1719,-6.1719,-6.1719,-6.1719,-6.1719,-6.1719,-6.1719,-6.1719,-6.1719,-6.1797,-6.2656,-6.3086,-6.3437,-6.5,-6.5703,-6.5937,0.0,0.0,0.0,0.0,0.0,0.0,0.0,0.0,0.0,0.0,-6.5897,-6.5897,0.0,0.0,0.0,-6.5897,-6.5205,0.0,-6.4628,0.0,0.0,-6.0819,-6.0781,-6.0781,-6.0781,-6.0781,-6.0781,-6.0781,-6.0781,-6.0781,0.0,-6.0781,-5.9973,-5.8473,-5.8357,-5.7396,-5.5857,-5.5742,-5.5703,-5.5703,-5.5703,-5.5703,-5.5703,-5.5703,-5.5703,-5.5703,-5.5703,-5.5703,-5.5703,-5.5703,-5.5703,0.0,0.0,0.0,-5.5703,-5.5703,-5.578,-5.6049,0.0,0.0,0.0,0.0,0.0,0.0,0.0,0.0,0.0,0.0,0.0,-6.0781,-6.0781,-6.0781,-6.0781,-6.0781,-6.0781,-6.0781,-6.0781,-6.0781,-6.0781,-6.0781,-6.1095,-6.1283,-6.1283,-6.1525,-6.1719,-6.1719,-6.1719,-6.1719,-6.1719,-6.1719,-6.1719,-6.1719,-6.1719,-6.1719,-6.1719,-6.1719,-6.1719,-6.1719,-6.1719,-6.1719,-6.1719,-6.1719,-6.1719,-6.1719,-6.1719,-6.1719,-6.1719,-6.1719,-6.1719,-6.1797,-6.2656,-6.3476,-6.4258,-6.5234,-6.6094,-6.6758,0.0,0.0,0.0,0.0,0.0,0.0,0.0,0.0,0.0,0.0,0.0,-6.5897,0.0,0.0,0.0,0.0,0.0,0.0,-6.3243,-6.205,0.0,0.0,-6.0781,-6.0781,-6.0781,-6.0781,-6.0781,-6.0781,0.0,0.0,0.0,-6.0281,-5.9435,0.0,-5.778,-5.6857,-5.5703,-5.5703,-5.5703,-5.5703,-5.5703,-5.5703,-5.5703,-5.5703,-5.5703,-5.5703,-5.5703,-5.5703,-5.5703,-5.5703,-5.5703,-5.5703,-5.5703,0.0,0.0,0.0,-5.5703,0.0,-5.6753,0.0,0.0,0.0,0.0,0.0,0.0,0.0,0.0,0.0,0.0,0.0,-6.0781,-6.0781,-6.0781,-6.0781,-6.0781,-6.0781,-6.0781,-6.0781,-6.0781,-6.0781,-6.1095,-6.1283,-6.1283,-6.1525,-6.1719,-6.1719,-6.1719,-6.1719,-6.1719,-6.1719,-6.1719,-6.1719,-6.1719,-6.1719,-6.1719,-6.1719,-6.1719,-6.1719,-6.1719,-6.1719,-6.1719,-6.1719,-6.1719,-6.1719,-6.1719,-6.1719,-6.1719,-6.1719,-6.1992,-6.2539,-6.3398,-6.4258,-6.5117,-6.6015,-6.6562,-6.6914,0.0,0.0,0.0,0.0,0.0,0.0,0.0,0.0,0.0,0.0,0.0,0.0,0.0,0.0,0.0,0.0,0.0,0.0,-6.187,0.0,0.0,0.0,0.0,-6.0781,-6.0781,-6.0781,-6.0781,-6.0781,0.0,0.0,-6.0781,-5.9704,-5.8858,0.0,-5.7396,-5.6522,-5.5703,-5.5703,-5.5703,-5.5703,-5.5703,-5.5703,-5.5703,-5.5703,-5.5703,-5.5703,-5.5703,-5.5703,-5.5703,-5.5703,-5.5703,-5.5703,-5.5703,-5.5703,0.0,0.0,0.0,0.0,0.0,0.0,0.0,0.0,0.0,0.0,0.0,0.0,0.0,0.0,0.0,0.0,0.0,-6.0781,-6.0781,-6.0781,-6.0781,-6.0781,-6.0781,-6.0781,-6.0781,-6.0781,-6.1095,-6.1283,-6.1283,-6.1525,-6.1719,-6.1719,-6.1719,-6.1719,-6.1719,-6.1719,-6.1719,-6.1719,-6.1719,-6.1719,-6.1719,-6.1719,-6.1719,-6.1719,-6.1719,-6.1719,-6.1719,-6.1719,-6.1719,-6.1719,-6.1719,-6.1719,-6.1719,-6.1719,-6.2226,-6.3086,-6.3945,-6.4844,-6.5703,-6.6562,-6.6914,-6.6914,0.0,0.0,0.0,0.0,0.0,0.0,0.0,0.0,0.0,0.0,0.0,0.0,-6.4743,-6.4666,-6.432,-6.3435,0.0,0.0,0.0,0.0,0.0,0.0,0.0,0.0,-6.0781,-6.0781,0.0,0.0,0.0,0.0,-6.0742,-5.9127,-5.8357,-5.828,-5.7396,-5.6522,-5.5703,0.0,0.0,-5.5703,-5.5703,-5.5703,-5.5703,-5.5703,-5.5703,-5.5703,-5.5703,-5.5703,-5.5703,-5.5703,-5.5703,-5.5703,-5.5703,-5.5703,0.0,0.0,0.0,0.0,0.0,0.0,0.0,0.0,0.0,0.0,0.0,0.0,0.0,0.0,0.0,0.0,0.0,0.0,-6.0781,-6.0781,-6.0781,-6.0781,-6.0781,-6.0781,-6.0781,-6.0781,-6.1095,-6.1283,-6.1283,-6.1525,-6.1719,-6.1719,-6.1719,-6.1719,-6.1719,-6.1719,-6.1719,-6.1719,-6.1719,-6.1719,-6.1719,-6.1719,-6.1719,-6.1719,-6.1719,-6.1719,-6.1719,-6.1719,-6.1719,-6.1719,-6.1719,-6.1719,-6.1719,-6.1719,-6.2226,-6.3086,-6.3945,-6.4844,-6.5703,-6.6562,-6.6914,-6.6914,0.0,0.0,0.0,0.0,0.0,0.0,0.0,0.0,0.0,0.0,0.0,0.0,0.0,-6.4408,-6.3687,-6.2761,-6.1819,0.0,0.0,0.0,0.0,0.0,0.0,0.0,0.0,0.0,0.0,0.0,0.0,-6.0512,-5.9935,-5.8819,-5.8011,-5.7434,-5.6549,-5.5972,-5.5703,-5.5703,0.0,-5.5703,-5.5703,-5.5703,-5.5703,0.0,0.0,-5.578,-5.6329,-5.6522,-5.6637,-5.7165,0.0,0.0,0.0,0.0,0.0,0.0,0.0,0.0,0.0,0.0,0.0,0.0,0.0,0.0,0.0,0.0,0.0,0.0,0.0,0.0,0.0,0.0,0.0,-6.0781,-6.0781,-6.0781,-6.0781,-6.0781,-6.0823,-6.0925,-6.1143,-6.1323,-6.1409,-6.1585,-6.1719,-6.1719,-6.1719,-6.1719,-6.1719,-6.1719,-6.1719,-6.1719,-6.1719,-6.1719,-6.1719,-6.1719,-6.1719,-6.1719,-6.1719,-6.1719,-6.1719,-6.1719,-6.1719,-6.1719,-6.1719,-6.1719,-6.1758,-6.2305,-6.3047,-6.3906,-6.4805,-6.5664,-6.6484,-6.6797,-6.6914,-6.6914,0.0,0.0,0.0,0.0,0.0,0.0,0.0,0.0,0.0,0.0,0.0,0.0,0.0,0.0,-6.2983,-6.2044,-6.1357,-6.0953,-6.086,-6.086,0.0,0.0,0.0,0.0,0.0,0.0,0.0,0.0,0.0,0.0,0.0,-5.8665,-5.7819,-5.6945,-5.6088,-5.5703,0.0,0.0,0.0,-5.5703,-5.5703,-5.5703,-5.5742,0.0,0.0,0.0,0.0,0.0,0.0,0.0,0.0,0.0,0.0,0.0,0.0,0.0,0.0,0.0,-5.5703,0.0,0.0,0.0,0.0,0.0,0.0,0.0,0.0,0.0,0.0,0.0,0.0,0.0,0.0,0.0,-6.0781,-6.0781,-6.0781,-6.0781,-6.0856,-6.097,-6.1186,-6.1344,-6.1495,-6.1631,-6.1719,-6.1719,-6.1719,0.0,-6.1719,-6.1719,-6.1719,-6.1719,-6.1719,-6.1719,-6.1719,-6.1719,-6.1719,-6.1719,-6.1719,-6.1719,-6.1719,-6.1719,-6.1719,-6.1719,-6.1719,-6.1719,-6.1758,-6.2656,-6.3515,-6.4375,-6.5273,-6.6133,-6.6914,-6.6914,-6.6914,-6.6914,0.0,0.0,0.0,0.0,0.0,0.0,0.0,0.0,0.0,-6.5187,0.0,0.0,0.0,0.0,0.0,-6.1373,-6.1289,-6.1214,-6.1014,-6.0997,0.0,0.0,0.0,0.0,0.0,0.0,0.0,0.0,0.0,0.0,0.0,0.0,-5.778,-5.6907,-5.6088,-5.5703,-5.5703,0.0,-5.5703,-5.5703,0.0,-5.5742,-5.5818,0.0,0.0,0.0,-5.8011,-5.8357,0.0,-5.8357,0.0,0.0,0.0,0.0,0.0,0.0,0.0,0.0,0.0,0.0,0.0,0.0,0.0,0.0,-5.8217,0.0,0.0,0.0,0.0,0.0,0.0,0.0,0.0,0.0,0.0,-6.0781,-6.0781,-6.0793,-6.0867,-6.0979,-6.1193,-6.1349,-6.1498,-6.1632,-6.1719,-6.1719,-6.1719,-6.1719,-6.1719,-6.1719,-6.1719,-6.1719,-6.1719,-6.1719,-6.1719,-6.1719,-6.1719,-6.1719,-6.1719,-6.1719,-6.1719,-6.1719,-6.1719,-6.1719,-6.1719,-6.1758,-6.1797,-6.2695,-6.3555,-6.4414,-6.5312,-6.6172,-6.6914,-6.6914,-6.6914,-6.6914,0.0,0.0,0.0,0.0,0.0,0.0,0.0,0.0,-6.5528,0.0,0.0,0.0,-6.291,-6.2206,-6.1697,-6.1467,-6.1349,-6.1214,-6.1014,-6.0997,-6.0925,-6.0793,0.0,0.0,0.0,0.0,0.0,0.0,0.0,0.0,0.0,0.0,0.0,0.0,-5.5818,-5.5703,-5.5703,-5.5703,0.0,-5.5742,-5.6406,-5.6637,0.0,0.0,0.0,0.0,0.0,-5.9165,-5.9281,0.0,-5.9127,-5.7703,0.0,0.0,0.0,0.0,0.0,0.0,-5.5703,0.0,0.0,0.0,0.0,0.0,-5.7194,-5.76,-5.8182,0.0,0.0,0.0,0.0,0.0,0.0,0.0,0.0,0.0,-6.0781,-6.0892,-6.1027,-6.12,-6.1354,-6.1501,-6.1633,-6.1679,-6.1719,0.0,-6.1719,-6.1719,-6.1719,-6.1719,-6.1719,-6.1719,-6.1719,-6.1719,-6.1719,-6.1719,-6.1719,-6.1719,-6.1719,-6.1719,-6.1719,-6.1719,-6.1719,-6.1758,-6.2383,-6.2656,-6.2695,-6.3594,-6.4453,-6.5312,-6.6211,-6.668,-6.6914,-6.6914,-6.6914,-6.6914,0.0,0.0,0.0,0.0,0.0,0.0,0.0,0.0,-6.4726,0.0,0.0,0.0,-6.25,-6.1946,-6.1582,-6.1582,-6.1509,-6.14,-6.122,-6.1214,-6.1165,-6.102,0.0,0.0,0.0,0.0,0.0,0.0,0.0,0.0,0.0,0.0,0.0,0.0,-5.5703,-5.5703,0.0,0.0,0.0,0.0,-5.6406,0.0,0.0,-5.7973,-5.8319,0.0,0.0,0.0,-6.0127,-6.0627,-5.9896,0.0,0.0,0.0,0.0,0.0,0.0,0.0,0.0,0.0,0.0,0.0,0.0,0.0,-5.6518,-5.6919,-5.7629,0.0,0.0,0.0,0.0,0.0,0.0,0.0,0.0,0.0,-6.0973,-6.1095,-6.1207,-6.1359,-6.1432,-6.1568,-6.1679,-6.1719,-6.1719,-6.1719,-6.1719,-6.1719,-6.1719,-6.1719,-6.1719,-6.1719,-6.1719,-6.1719,-6.1719,-6.1719,-6.1719,-6.1719,-6.1719,-6.1719,-6.1719,-6.1719,-6.1914,-6.2265,-6.2773,-6.3398,-6.4101,-6.4648,-6.5156,-6.5703,-6.6562,-6.6914,-6.6914,-6.6914,-6.6914,-6.6914,0.0,0.0,-6.6758,-6.6758,-6.6015,0.0,0.0,0.0,-6.3828,0.0,-6.2851,-6.2578,-6.1797,-6.1719,-6.1719,-6.1719,-6.1719,-6.1636,-6.1509,-6.1504,0.0,0.0,0.0,0.0,0.0,0.0,0.0,0.0,0.0,0.0,0.0,0.0,0.0,0.0,-5.5703,-5.5703,-5.5703,0.0,0.0,-5.6945,-5.6242,-5.6511,0.0,0.0,-5.8588,-5.8781,-6.0281,-6.0781,-6.0781,-6.0589,-6.0089,0.0,0.0,0.0,0.0,0.0,-5.578,0.0,0.0,0.0,0.0,0.0,-5.5703,0.0,-5.6187,-5.6769,-5.7595,-5.8893,0.0,0.0,0.0,0.0,0.0,0.0,0.0,0.0,0.0,-6.1301,-6.1359,-6.1495,-6.1509,-6.1577,-6.1679,-6.1719,-6.1719,-6.1719,-6.1719,-6.1719,-6.1719,-6.1719,-6.1719,-6.1719,-6.1719,-6.1719,-6.1719,-6.1719,-6.1719,-6.1719,-6.1719,-6.1719,-6.1719,-6.1719,-6.2187,-6.3008,-6.3086,-6.4062,-6.5625,-6.5703,-6.5742,-6.582,-6.6601,-6.6914,-6.6914,-6.6914,-6.6914,-6.6914,-6.6914,-6.6328,-6.5859,-6.5859,0.0,0.0,0.0,0.0,0.0,-6.207,-6.1953,-6.1875,-6.1719,-6.1719,-6.1719,-6.1719,-6.1719,-6.1636,-6.1509,-6.1504,0.0,0.0,0.0,0.0,0.0,0.0,0.0,0.0,0.0,0.0,0.0,0.0,0.0,0.0,-5.5703,-5.5703,-5.5703,0.0,0.0,-5.706,-5.7588,0.0,-5.9127,-5.9973,-6.0319,-6.0358,-6.0666,-6.0781,-6.0589,-5.9242,-5.9127,-5.9165,0.0,0.0,0.0,-5.6791,0.0,0.0,0.0,0.0,0.0,0.0,-5.5703,0.0,-5.6656,-5.6406,-5.6553,0.0,0.0,0.0,0.0,0.0,0.0,0.0,0.0,0.0,0.0,0.0,-6.1485,-6.1501,-6.1585,-6.1678,-6.1719,-6.1719,-6.1719,-6.1719,-6.1719,-6.1719,-6.1719,-6.1719,-6.1719,-6.1719,-6.1719,-6.1719,-6.1719,-6.1719,-6.1719,-6.1719,-6.1719,-6.1719,-6.1719,-6.1719,-6.2187,-6.3047,-6.375,-6.4648,-6.5664,-6.6367,-6.664,-6.664,-6.6836,-6.6914,-6.6914,-6.6914,-6.6914,-6.6914,-6.5586,-6.5234,-6.4961,-6.4961,0.0,0.0,0.0,0.0,0.0,-6.1758,-6.1719,-6.1719,-6.1719,-6.1719,-6.1523,-6.1094,-6.1055,-6.0858,-6.0376,0.0,0.0,0.0,0.0,0.0,0.0,0.0,0.0,0.0,0.0,0.0,0.0,0.0,0.0,0.0,0.0,0.0,0.0,0.0,-5.6857,-5.7665,-5.7665,0.0,-5.8973,-5.9819,-6.0165,-6.0204,-6.0627,-6.0781,-6.0589,-5.9319,-5.9165,0.0,-5.805,-5.7368,-5.6983,0.0,-5.6368,-5.5703,0.0,0.0,0.0,-5.5789,-5.5788,0.0,0.0,-5.6375,-5.649,-5.8006,0.0,0.0,0.0,0.0,0.0,0.0,0.0,0.0,0.0,0.0,0.0,-6.1587,-6.1677,-6.1719,-6.1719,-6.1719,-6.1719,-6.1719,-6.1719,-6.1719,-6.1719,-6.1719,-6.1719,-6.1719,-6.1719,-6.1719,-6.1719,-6.1719,-6.1719,-6.1719,-6.1719,-6.1719,-6.1719,-6.2148,-6.2812,-6.3711,-6.457,-6.543,-6.6289,-6.6719,-6.6914,-6.6914,-6.6914,-6.6914,-6.6914,-6.6914,-6.6914,-6.6914,-6.4219,-6.414,-6.4062,-6.4062,0.0,0.0,0.0,0.0,0.0,0.0,-6.1719,-6.1758,-6.1914,-6.164,-6.1211,-6.0703,-6.0351,0.0,0.0,0.0,0.0,0.0,0.0,-5.8709,0.0,0.0,0.0,0.0,0.0,0.0,0.0,0.0,0.0,0.0,0.0,0.0,0.0,0.0,0.0,-5.8325,0.0,-5.7951,-5.8627,-5.9435,-5.9661,-5.9678,-6.0525,-6.0839,-6.0666,-5.9781,-5.9622,-5.9628,-5.8599,-5.7824,0.0,0.0,0.0,0.0,0.0,0.0,0.0,0.0,0.0,-5.6025,0.0,0.0,0.0,0.0,0.0,0.0,0.0,0.0,0.0,0.0,0.0,0.0,0.0,0.0,0.0,-6.1211,-6.1211,-6.1289,-6.1445,-6.1601,-6.1719,-6.1719,-6.1719,-6.1719,-6.1719,-6.1719,-6.1719,-6.1719,-6.1719,-6.1719,-6.1719,-6.1719,-6.1719,-6.1719,-6.1719,-6.1797,-6.1953,-6.2695,-6.3555,-6.4609,-6.5273,-6.6094,-6.6914,-6.6914,-6.6914,-6.6914,-6.6914,-6.6914,-6.6914,-6.6914,-6.6914,-6.6914,-6.3984,-6.3672,-6.3164,-6.3164,0.0,0.0,0.0,0.0,0.0,0.0,0.0,0.0,0.0,0.0,0.0,-6.1484,0.0,0.0,-5.9219,0.0,0.0,0.0,0.0,0.0,-5.8007,0.0,0.0,0.0,0.0,0.0,0.0,0.0,-5.6057,-5.5883,-5.5883,0.0,0.0,0.0,-5.7761,0.0,-5.9273,-5.9437,0.0,-6.0319,-6.0292,-5.9878,-6.069,-6.0895,-6.0666,0.0,-6.0071,-6.0538,0.0,-5.8307,-5.8183,-5.7392,0.0,0.0,0.0,0.0,0.0,0.0,-5.6169,0.0,0.0,0.0,-5.629,-5.6506,0.0,0.0,0.0,0.0,0.0,0.0,0.0,0.0,0.0,0.0,0.0,-5.9492,-5.9492,-5.9765,-6.0469,-6.125,-6.1719,-6.1719,-6.1719,-6.1719,-6.1719,-6.1719,-6.1719,-6.1719,-6.1719,-6.1719,-6.1719,-6.1719,-6.1719,-6.1719,-6.1719,-6.2109,-6.2851,-6.2969,-6.3906,-6.5469,-6.5547,-6.6094,-6.6914,-6.6914,-6.6914,-6.6914,-6.6914,-6.6914,-6.6914,-6.6914,-6.6914,-6.6914,-6.2656,-6.25,-6.2265,-6.2265,0.0,0.0,0.0,0.0,0.0,0.0,0.0,0.0,0.0,0.0,0.0,0.0,0.0,-5.9219,0.0,0.0,0.0,0.0,0.0,0.0,0.0,0.0,0.0,0.0,-5.638,0.0,0.0,0.0,-5.6158,-5.6091,-5.6563,0.0,-5.7386,0.0,-5.879,0.0,0.0,0.0,0.0,-6.0432,-6.0803,-6.0713,-6.1063,-6.1128,-6.1009,0.0,-6.0492,0.0,0.0,0.0,0.0,-5.804,0.0,0.0,0.0,0.0,0.0,0.0,0.0,0.0,-5.6516,0.0,-5.6454,0.0,0.0,0.0,0.0,0.0,0.0,0.0,-5.6873,0.0,0.0,0.0,0.0,0.0,0.0,0.0,-6.0312,-6.0312,-6.043,-6.0898,-6.0937,-6.0937,-6.0937,-6.1445,-6.1719,-6.1719,-6.1719,-6.1719,-6.1719,-6.1719,-6.1719,-6.1719,-6.2226,-6.2656,-6.3047,-6.4062,-6.4922,-6.5625,-6.6133,-6.6562,-6.6914,-6.6914,-6.6914,-6.6914,-6.6914,-6.6914,-6.6914,-6.6914,-6.6914,-6.6914,-6.1719,-6.1719,-6.1719,0.0,0.0,0.0,0.0,0.0,0.0,0.0,0.0,0.0,-6.1601,-6.0195,0.0,0.0,-5.9805,-5.9219,0.0,0.0,-5.8281,0.0,0.0,0.0,0.0,0.0,0.0,0.0,0.0,0.0,0.0,0.0,0.0,-5.6285,0.0,-5.7381,-5.7892,0.0,-5.9624,-5.9568,-6.0151,-6.002,-5.9547,-6.045,-6.0994,-6.1289,-6.1334,-6.1323,-6.1283,-6.1283,-6.0889,0.0,-6.0839,0.0,-5.8242,0.0,0.0,0.0,-5.7736,0.0,0.0,0.0,0.0,0.0,0.0,0.0,0.0,0.0,0.0,0.0,0.0,0.0,0.0,0.0,0.0,-5.6601,0.0,0.0,0.0,0.0,0.0,0.0,0.0,-5.9414,-5.9453,-6.0039,-6.0078,-6.0156,-6.039,-6.1015,-6.1445,-6.168,-6.1719,-6.1719,-6.1719,-6.1953,-6.207,-6.207,-6.293,-6.3476,-6.375,-6.5039,-6.5742,-6.5976,-6.664,-6.6914,-6.6914,-6.6914,-6.6914,-6.6914,-6.6914,-6.6914,-6.6914,-6.6914,-6.6914,-6.6914,-6.1719,-6.1719,0.0,0.0,0.0,0.0,0.0,0.0,0.0,0.0,0.0,0.0,0.0,0.0,0.0,0.0,0.0,-5.9219,-5.9219,0.0,-5.8281,0.0,0.0,-5.7851,0.0,0.0,0.0,0.0,0.0,0.0,0.0,0.0,0.0,0.0,0.0,-5.7325,-5.885,-5.8928,-5.9978,-6.1601,-6.1488,-6.1423,-6.1306,0.0,-6.0664,-6.1306,-6.1467,0.0,0.0,-6.1283,-6.1378,0.0,0.0,0.0,0.0,0.0,0.0,0.0,0.0,0.0,0.0,-5.8945,0.0,0.0,0.0,0.0,-5.6601,0.0,0.0,0.0,0.0,0.0,0.0,0.0,0.0,0.0,0.0,0.0,0.0,0.0,0.0,0.0,0.0,-5.8711,-5.9219,-5.9258,-5.9258,-5.957,-6.0351,-6.043,-6.082,-6.168,-6.1719,-6.1719,-6.1719,-6.2539,-6.2969,-6.2969,-6.3828,-6.4687,-6.5508,-6.5586,-6.6055,-6.6875,-6.6875,-6.6914,-6.6914,-6.6914,-6.6914,-6.6914,-6.6914,-6.6914,-6.6914,-6.6914,-6.6914,-6.6914,-6.1719,0.0,0.0,0.0,0.0,0.0,0.0,-6.1211,0.0,0.0,-6.0273,0.0,0.0,-6.0195,-5.9883,0.0,0.0,-6.0234,-6.082,-6.0039,0.0,0.0,0.0,-5.875,0.0,0.0,0.0,0.0,0.0,0.0,0.0,0.0,0.0,0.0,0.0,-5.8041,0.0,0.0,0.0,0.0,0.0,-6.0462,-6.0069,0.0,-6.1286,-6.1577,-6.163,-6.1588,0.0,-6.1575,-6.1585,-6.1554,-6.1231,-6.0767,-6.0267,-5.9994,-5.9525,-5.9214,0.0,0.0,-5.9648,-5.9922,0.0,0.0,0.0,0.0,0.0,0.0,0.0,0.0,0.0,0.0,0.0,0.0,0.0,0.0,0.0,0.0,0.0,0.0,0.0,0.0,0.0,0.0,0.0,-5.8281,-5.8359,-5.8711,-5.957,-6.0117,-6.0781,-6.168,-6.1719,-6.1992,-6.2539,-6.2851,-6.3281,-6.3867,-6.4726,-6.5312,-6.5625,-6.6211,-6.6601,-6.6914,-6.6914,-6.6914,-6.6914,-6.6914,-6.6914,-6.6914,-6.6914,-6.6914,-6.6914,-6.6914,-6.6914,-6.6914,-6.1719,-6.1719,0.0,0.0,0.0,0.0,0.0,0.0,0.0,0.0,-5.9922,0.0,-6.0703,0.0,-6.0195,0.0,-6.1172,-6.1094,-6.164,-6.0898,0.0,-6.164,-6.0351,0.0,0.0,0.0,0.0,0.0,0.0,-5.6601,0.0,0.0,0.0,0.0,0.0,-5.793,-5.8789,0.0,-6.0156,0.0,0.0,-6.0078,0.0,0.0,-6.1164,-6.1289,0.0,-6.1719,-6.1719,-6.1719,-6.1719,-6.1719,-6.1719,-6.1328,-6.0859,-6.0859,-6.0508,-6.0195,-6.0703,-6.0625,0.0,-6.0781,-6.0039,0.0,-5.8867,0.0,-5.7539,0.0,0.0,0.0,0.0,0.0,0.0,0.0,0.0,0.0,0.0,-5.6601,0.0,0.0,0.0,0.0,0.0,0.0,-5.6836,-5.7383,-5.7422,-5.7969,0.0,-5.9687,-6.0664,-6.2109,-6.2148,-6.2578,-6.3437,-6.3789,-6.4219,-6.4765,-6.5664,-6.6055,-6.6094,-6.664,-6.6914,-6.6914,-6.6914,-6.6914,-6.6914,-6.6914,-6.6914,-6.6914,-6.6914,-6.6914,-6.6914,-6.6914,-6.6914,-6.6914,-6.1719,-6.1719,0.0,0.0,-6.164,0.0,0.0,0.0,-6.0703,0.0,-5.9453,-6.0195,-5.9453,-6.0117,-6.0937,-6.1758,-6.1836,-6.1797,-6.1758,-6.0976,0.0,0.0,-6.0898,-6.043,-6.039,0.0,0.0,0.0,0.0,0.0,0.0,0.0,0.0,0.0,-5.6601,0.0,-5.7969,-5.8789,-5.9609,-6.039,-6.0469,-6.043,-6.039,-6.0469,-6.043,-6.0508,-6.1406,-6.1719,-6.1719,-6.1719,-6.1719,-6.1719,-6.1719,-6.1719,-6.1719,-6.1719,-6.1719,-6.1719,-6.1719,-6.1094,-6.0664,-6.1484,-6.0469,0.0,0.0,0.0,-5.9219,0.0,0.0,0.0,0.0,0.0,0.0,0.0,0.0,0.0,0.0,0.0,0.0,0.0,0.0,0.0,0.0,-5.6601,-5.6601,-5.6601,-5.6601,-5.7344,0.0,-5.9219,-6.039,-6.2851,-6.3008,-6.3476,-6.4375,-6.5195,-6.5625,-6.5664,-6.6484,-6.6914,-6.6914,-6.6914,-6.6914,-6.6914,-6.6914,-6.6914,-6.6914,-6.6914,-6.6914,-6.6914,-6.6914,-6.6914,-6.6953,-6.6914,-6.6914,-6.6914,-6.1719,-6.1719,-6.1719,0.0,-6.1172,-6.0664,0.0,0.0,0.0,0.0,-6.0703,-6.1523,-6.1992,-6.2773,-6.3398,-6.3594,-6.3633,0.0,0.0,0.0,0.0,-6.1719,-6.1484,-6.1055,-6.039,-5.9609,-5.8789,-5.789,0.0,0.0,-5.6601,0.0,0.0,0.0,0.0,0.0,-5.789,-5.8125,-5.9062,-6.0469,-6.1094,-6.0976,-6.0469,0.0,-6.0976,-6.0508,-6.1406,-6.1719,-6.1719,-6.1719,-6.1719,-6.1719,-6.1719,-6.1719,-6.1719,-6.1719,-6.1719,-6.1719,-6.1719,-6.1523,-6.1406,-6.164,-6.0898,-6.0156,0.0,0.0,0.0,0.0,0.0,0.0,0.0,0.0,0.0,0.0,0.0,0.0,0.0,0.0,0.0,-5.6601,0.0,0.0,-5.6601,-5.6601,-5.6601,-5.6601,-5.6601,0.0,0.0,0.0,-6.0703,-6.1992,-6.3281,-6.4375,-6.5273,-6.5508,-6.5937,-6.6562,-6.6797,-6.6914,-6.6914,-6.6914,-6.6914,-6.6914,-6.6914,-6.6914,-6.6914,-6.6914,-6.6914,-6.6914,-6.6914,-6.7305,-6.7773,-6.7148,-6.6914,-6.6914,-6.1719,-6.1719,0.0,-6.1719,0.0,0.0,-6.0898,-6.0898,0.0,-6.0976,-6.207,0.0,-6.3008,-6.3789,-6.4297,-6.4297,-6.4297,0.0,-6.3594,0.0,0.0,-6.2851,-6.2851,-6.2617,-6.2109,-6.1289,0.0,-5.8984,0.0,0.0,-5.6601,0.0,0.0,0.0,0.0,-5.8008,0.0,-5.9258,-6.0117,-6.1055,-6.1914,-6.1953,0.0,-6.207,-6.1953,-6.1601,-6.2109,-6.2031,-6.1719,-6.1719,-6.1719,-6.1719,-6.1719,-6.1719,-6.1719,-6.1719,-6.1719,-6.1719,-6.1719,-6.1719,-6.1719,-6.1719,-6.1328,-6.0976,-6.0976,-6.0625,-6.0273,0.0,-6.0,-5.957,0.0,0.0,0.0,0.0,0.0,0.0,0.0,0.0,0.0,0.0,-5.6601,-5.6601,-5.6601,-5.6601,-5.6601,-5.6601,-5.6953,0.0,0.0,0.0,-6.1133,-6.2773,-6.3789,-6.4531,-6.5039,-6.5781,-6.6211,-6.6328,-6.6719,-6.6914,-6.6914,-6.6914,-6.6914,-6.6914,-6.6914,-6.6914,-6.6914,-6.6914,-6.6914,-6.6953,-6.7305,-6.7773,-6.8164,-6.8047,-6.8008,-6.8047,-6.1719,0.0,0.0,0.0,0.0,0.0,0.0,-6.2578,0.0,-6.1953,0.0,-6.418,-6.3437,-6.4101,-6.4648,-6.4648,0.0,-6.4609,-6.4492,-6.4453,-6.4414,-6.4297,-6.4297,-6.4297,-6.4297,-6.3437,-6.2187,0.0,0.0,0.0,0.0,0.0,0.0,0.0,0.0,0.0,0.0,-6.1015,-6.1758,-6.1953,-6.2812,-6.3164,-6.3164,-6.3164,-6.3164,-6.3164,-6.3164,-6.2539,-6.1719,-6.1719,-6.1719,-6.1719,-6.1719,-6.1719,-6.1719,-6.1719,-6.1719,-6.1719,-6.1719,-6.1719,-6.1719,-6.1719,-6.1719,-6.1719,-6.1719,-6.1719,-6.1719,-6.1719,-6.1094,-6.0547,-6.043,0.0,0.0,0.0,0.0,0.0,0.0,0.0,0.0,0.0,0.0,0.0,-5.6758,-5.6758,-5.6758,-5.6758,0.0,0.0,0.0,0.0,-6.1601,-6.3906,-6.4297,-6.4453,-6.4453,-6.6094,-6.6523,-6.5781,-6.6523,-6.6914,-6.6914,-6.6914,-6.6914,-6.6914,-6.6914,-6.6914,-6.6914,-6.6914,-6.6953,-6.7148,-6.8008,-6.8437,-6.8594,-6.9297,-6.9687,-6.9805,0.0,0.0,0.0,0.0,0.0,-6.2265,-6.457,-6.3203,-6.2148,-6.2695,-6.4297,-6.5312,-6.5156,-6.5937,-6.6445,-6.6445,-6.6445,0.0,0.0,0.0,0.0,-6.4336,-6.4297,-6.4297,-6.4297,-6.3437,-6.25,0.0,0.0,0.0,0.0,0.0,0.0,0.0,0.0,0.0,-6.0273,-6.1289,0.0,-6.2851,-6.3711,-6.4062,-6.4062,-6.4062,-6.4062,-6.4062,-6.4062,-6.3047,-6.1719,-6.1719,-6.1719,-6.1719,-6.1719,-6.1719,-6.1719,-6.1719,-6.1719,-6.1719,-6.1719,-6.1719,-6.1719,-6.1719,-6.1719,-6.1719,-6.1719,-6.1719,-6.1719,-6.1719,-6.1562,-6.125,-6.0547,0.0,0.0,0.0,0.0,0.0,0.0,0.0,0.0,0.0,0.0,-5.7656,-5.7656,-5.7656,-5.7656,0.0,0.0,0.0,0.0,0.0,-6.168,0.0,-6.4258,-6.5351,0.0,0.0,-6.6836,-6.668,-6.6836,-6.6914,-6.6914,-6.6914,-6.6914,-6.6914,-6.6914,-6.6914,-6.6914,-6.6914,-6.7305,-6.8047,-6.8867,-6.9648,-7.0273,-7.043,-7.0937,-7.1367,0.0,0.0,0.0,0.0,0.0,0.0,0.0,-6.4258,-6.4023,-6.4922,-6.5742,-6.6289,-6.6289,-6.664,-6.6914,-6.6914,-6.6914,-6.6719,-6.6289,-6.6289,-6.6094,-6.5664,-6.5664,-6.5664,-6.5664,-6.5234,-6.414,-6.2383,0.0,0.0,0.0,0.0,0.0,0.0,0.0,-6.1406,0.0,0.0,0.0,-6.4414,-6.5312,-6.5664,-6.5664,-6.5664,-6.5351,-6.4961,-6.4961,-6.414,-6.3047,-6.3047,-6.3047,-6.3047,-6.3047,-6.3047,-6.2969,-6.25,-6.2383,-6.2265,-6.1836,-6.1719,-6.1719,-6.1719,-6.1719,-6.1719,-6.1719,-6.1719,-6.1719,-6.1719,-6.1719,-6.1445,-6.0547,-5.9726,0.0,0.0,0.0,0.0,0.0,0.0,-5.8437,0.0,0.0,0.0,0.0,0.0,0.0,0.0,0.0,0.0,0.0,0.0,-6.2109,0.0,0.0,0.0,-6.4258,0.0,-6.6445,-6.5547,-6.6484,-6.6914,-6.6914,-6.6914,-6.6914,-6.6914,-6.6914,-6.6914,-6.6953,-6.7383,-6.8086,-6.8945,-6.9765,-7.0312,-7.0742,-7.1211,-7.164,-7.1875,0.0,-6.2109,0.0,0.0,-6.2656,-6.3359,-6.4414,-6.5156,-6.5898,-6.6797,-6.6914,-6.6914,-6.6914,-6.6914,-6.6914,-6.6914,-6.6914,-6.6914,-6.6914,-6.6914,-6.6914,-6.6914,-6.6914,-6.6914,-6.6914,-6.6914,-6.5781,0.0,0.0,0.0,0.0,0.0,0.0,0.0,0.0,0.0,0.0,0.0,-6.5703,-6.5937,-6.6601,-6.6914,-6.6914,-6.6914,-6.6484,-6.5898,-6.5898,-6.543,-6.4844,-6.4844,-6.4609,-6.4297,-6.4297,-6.4297,-6.418,-6.3476,-6.3281,-6.3125,-6.2422,-6.2265,-6.2265,-6.2265,-6.2109,-6.1992,-6.1992,-6.1836,-6.1719,-6.1719,-6.1719,-6.1484,-6.0781,-6.0508,0.0,0.0,0.0,0.0,0.0,0.0,0.0,0.0,0.0,0.0,-6.0664,0.0,0.0,0.0,0.0,0.0,-6.1914,0.0,0.0,0.0,0.0,-6.3789,-6.3281,0.0,-6.6015,-6.4883,-6.625,-6.6914,-6.6914,-6.6914,-6.6914,-6.6914,-6.6914,-6.6992,-6.7265,-6.8281,-6.914,-6.9844,-7.0664,-7.0976,-7.1055,-7.1758,-7.1992,-7.1992,0.0,0.0,0.0,0.0,0.0,0.0,-6.5234,-6.5547,-6.5898,-6.6797,-6.6914,-6.6914,-6.6914,-6.6914,-6.6914,-6.6914,-6.6914,-6.6914,-6.6914,-6.6914,-6.6914,-6.6914,-6.6914,-6.6914,-6.6914,-6.6914,-6.6406,0.0,0.0,-6.3242,0.0,0.0,0.0,0.0,0.0,0.0,0.0,-6.5547,-6.6055,-6.6797,-6.6875,-6.6914,-6.6914,-6.6914,-6.6836,-6.6797,-6.6797,-6.6719,-6.664,-6.664,-6.5625,-6.4297,-6.4297,-6.4297,-6.4297,-6.4219,-6.418,-6.414,-6.4062,-6.4062,-6.4062,-6.4062,-6.3476,-6.289,-6.289,-6.2265,-6.1719,-6.1719,-6.1719,-6.168,-6.1601,-6.0937,-6.0156,0.0,0.0,0.0,0.0,0.0,-6.1172,-6.039,0.0,0.0,0.0,-6.0859,0.0,0.0,-6.1523,0.0,0.0,0.0,0.0,-6.3086,-6.3125,-6.3476,-6.418,-6.5195,-6.6055,-6.664,-6.6836,-6.6914,-6.6914,-6.6914,-6.6914,-6.6914,-6.6914,-6.7344,-6.8203,-6.9805,-7.0508,-7.0664,-7.1523,-7.1875,-7.1875,-7.1953,-7.1992,-7.1992,0.0,0.0,0.0,0.0,0.0,0.0,0.0,-6.6055,-6.6523,-6.6836,-6.6914,-6.6914,-6.6914,-6.6914,-6.6914,-6.6914,-6.6914,-6.6914,-6.6914,-6.6914,-6.6914,-6.6914,-6.6914,-6.6914,-6.6914,-6.6914,-6.6484,0.0,0.0,0.0,0.0,0.0,0.0,0.0,0.0,-6.4961,-6.5625,-6.6172,-6.6562,-6.6914,-6.6914,-6.6914,-6.6914,-6.6914,-6.6914,-6.6914,-6.6914,-6.6914,-6.6914,-6.6914,-6.6445,-6.5859,-6.5859,-6.5859,-6.5742,-6.5234,-6.5078,-6.4961,-6.4453,-6.4297,-6.4297,-6.4297,-6.4023,-6.3789,-6.3789,-6.3515,-6.3242,-6.3242,-6.3242,-6.3242,-6.3242,-6.2969,-6.2461,-6.1601,0.0,0.0,0.0,0.0,0.0,-6.1367,0.0,-6.3242,0.0,-6.1992,0.0,0.0,0.0,0.0,0.0,0.0,0.0,-6.375,0.0,-6.4219,-6.5078,-6.543,-6.5781,-6.6133,-6.664,-6.6914,-6.6914,-6.6914,-6.7187,-6.7695,-6.8203,-6.8906,-6.9765,-7.043,-7.1015,-7.1523,-7.1875,-7.1992,-7.1992,-7.1992,-7.1992,-7.1992,-6.4883,0.0,-6.4687,0.0,-6.5195,-6.5586,-6.5586,-6.6328,-6.6914,-6.6914,-6.6914,-6.6914,-6.6914,-6.6914,-6.6914,-6.6914,-6.6914,-6.6914,-6.6914,-6.6914,-6.6914,-6.6914,-6.6914,0.0,-6.6914,-6.6914,-6.6601,-6.5976,-6.5117,0.0,0.0,0.0,0.0,0.0,-6.5312,-6.5742,-6.6015,-6.664,-6.6914,-6.6914,-6.6914,-6.6914,-6.6914,-6.6914,-6.6914,-6.6914,-6.6914,-6.6914,-6.6914,-6.6914,-6.6914,-6.6914,-6.6914,-6.6914,-6.6797,-6.6172,-6.5976,-6.5859,-6.5234,-6.5078,-6.5078,-6.5078,-6.4883,-6.4687,-6.4687,-6.4492,-6.4297,-6.4297,-6.4297,-6.4297,-6.4297,-6.4297,-6.4023,-6.3125,0.0,0.0,0.0,-6.3047,0.0,-6.2305,-6.3398,-6.4297,-6.4297,-6.2969,0.0,0.0,0.0,0.0,0.0,0.0,0.0,0.0,0.0,0.0,-6.5195,-6.5234,-6.5469,-6.5976,-6.6601,-6.6914,-6.6914,-6.7187,-6.7734,-6.8594,-6.9414,-7.0117,-7.0703,-7.0976,-7.1445,-7.1992,-7.1992,-7.1992,-7.1992,-7.1992,-7.1992,-7.1992,-6.6719,-6.6172,-6.5586,-6.5586,-6.5586,-6.5586,-6.5586,-6.6328,-6.6914,-6.6914,-6.6914,-6.6914,-6.6914,-6.6914,-6.6914,-6.6914,-6.6914,-6.6914,-6.6914,-6.6914,-6.6914,0.0,0.0,-6.6914,-6.6914,-6.6914,-6.6875,-6.6875,0.0,0.0,-6.4297,0.0,-6.3906,-6.5586,-6.5586,-6.6094,-6.6875,-6.6914,-6.6914,-6.6914,-6.6914,-6.6914,-6.6914,-6.6914,-6.6914,-6.6914,-6.6914,-6.6914,-6.6914,-6.6914,-6.6914,-6.6914,-6.6914,-6.6914,-6.6914,-6.6875,-6.6875,-6.6875,-6.6875,-6.6875,-6.6875,-6.6875,-6.6211,-6.5586,-6.5586,-6.4922,-6.4297,-6.4297,-6.4297,-6.4297,-6.4297,-6.4297,-6.4023,-6.3125,0.0,0.0,0.0,-6.3945,0.0,-6.3203,-6.375,-6.4297,-6.4297,-6.3515,0.0,0.0,0.0,0.0,0.0,0.0,0.0,-6.3008,-6.2187,0.0,-6.4297,-6.4336,-6.5195,-6.6875,-6.6875,-6.6914,-6.6914,-6.7773,-6.8633,-6.9414,-7.0312,-7.0703,-7.0781,-7.164,-7.1992,-7.1992,-7.1992,-7.1992,-7.1992,-7.1992,-7.1992,-7.1992,-6.6719,-6.668,-6.6484,-6.6484,-6.6484,-6.6484,-6.6484,-6.6719,-6.6914,-6.6914,-6.6914,-6.6914,-6.6914,-6.6914,-6.6914,0.0,-6.6914,-6.6914,0.0,-6.6914,-6.6914,-6.6914,-6.6914,-6.6914,-6.6914,-6.6914,-6.6914,-6.6914,0.0,0.0,0.0,-6.5508,-6.5937,-6.6484,-6.6484,-6.664,-6.6914,-6.6914,-6.6914,-6.6914,-6.6914,-6.6914,-6.6914,-6.6914,-6.6914,-6.6914,-6.6914,-6.6914,-6.6914,-6.6914,-6.6914,-6.6914,-6.6914,-6.6914,-6.6914,-6.6914,-6.6914,-6.6914,-6.6914,-6.6914,-6.6914,-6.6914,-6.668,-6.6484,-6.6484,-6.6289,-6.6055,-6.6055,-6.6055,-6.6055,-6.6055,-6.6055,-6.5781,-6.4922,-6.5508,0.0,-6.3711,0.0,-6.5156,-6.4023,-6.414,-6.4531,-6.5117,-6.4414,0.0,0.0,0.0,0.0,0.0,0.0,0.0,0.0,-6.4492,0.0,-6.6055,-6.5469,-6.5742,-6.6914,-6.75,-6.8086,-6.8711,-6.9531,-7.0039,-7.0312,-7.1211,-7.1601,-7.1601,-7.1875,-7.1992,-7.1992,-7.1992,-7.1992,-7.1992,-7.1992,-7.1992,-7.1992,-6.6797,-6.6914,-6.6914,-6.6914,-6.6914,-6.6914,-6.6914,-6.6914,-6.6914,-6.6914,-6.6914,-6.6914,-6.6914,-6.6914,0.0,-6.6914,-6.6914,-6.6914,-6.6914,-6.6914,-6.6914,-6.6914,-6.6914,-6.6914,-6.6914,-6.6914,0.0,-6.6914,-6.6367,-6.6094,-6.6094,-6.664,-6.6914,-6.6914,-6.6914,-6.6914,-6.6914,-6.6914,-6.6914,-6.6914,-6.6914,-6.6914,-6.6914,-6.6914,-6.6914,-6.6914,-6.6914,-6.6914,-6.6914,-6.6914,-6.6914,-6.6914,-6.6914,-6.6914,-6.6914,-6.6914,-6.6914,-6.6914,-6.6914,-6.6914,-6.6914,-6.6914,-6.6914,-6.6914,-6.6914,-6.6914,-6.6914,-6.6914,-6.6914,-6.6914,-6.6914,-6.6914,-6.6719,-6.6172,-6.6523,-6.6406,-6.5,0.0,-6.5625,0.0,0.0,0.0,0.0,-6.5117,-6.4805,0.0,0.0,0.0,0.0,0.0,-6.4531,-6.5078,-6.5117,-6.5547,-6.6406,-6.6211,-6.6523,-6.7383,-6.8242,-6.9101,-6.9961,-7.0469,-7.0898,-7.1211,-7.1758,-7.1992,-7.1992,-7.1992,-7.1992,-7.1992,-7.1992,-7.1992,-7.1992,-7.1992,-7.1992,-7.1992,-6.6914,-6.6914,-6.6914,0.0,-6.6914,0.0,-6.6914,-6.6953,-6.6992,-6.6992,-6.7031,-6.707,-6.707,-6.707,-6.707,-6.707,0.0,0.0,-6.6914,-6.6914,-6.6914,-6.6914,-6.6914,-6.6914,-6.6914,-6.6914,-6.6914,-6.6914,-6.6914,-6.6914,-6.6914,-6.6914,-6.6914,-6.6914,-6.6914,-6.6914,-6.6914,-6.6914,-6.6914,-6.6914,-6.6914,-6.6914,-6.6914,-6.6914,-6.6914,-6.6914,-6.6914,-6.6914,-6.6914,-6.6914,-6.6914,-6.6914,-6.6914,-6.6914,-6.6914,-6.6914,-6.6914,-6.6914,-6.6914,-6.6914,-6.6914,-6.6914,-6.6914,-6.6914,-6.6914,-6.6914,-6.6914,-6.6914,-6.6914,-6.6914,-6.6914,-6.6914,-6.6914,-6.6914,-6.6914,-6.6601,-6.5703,-6.6289,-6.6211,0.0,0.0,0.0,-6.5664,-6.5703,-6.5664,0.0,0.0,0.0,0.0,0.0,-6.4492,-6.4492,-6.4492,-6.4883,-6.5781,-6.6562,-6.7461,-6.8398,-6.914,-6.9961,-7.0781,-7.0781,-7.1211,-7.1992,-7.1992,-7.1992,-7.1992,-7.1992,-7.1992,-7.1992,-7.1992,-7.1992,-7.1992,-7.1992,-7.1992,-7.1992,0.0,0.0,-6.6914,-6.6914,-6.6914,-6.6914,-6.6914,-6.7461,-6.789,-6.789,-6.8476,-6.8867,-6.8828,-6.8867,-6.8867,-6.8828,-6.7656,-6.6914,-6.6914,-6.6914,-6.6914,-6.6914,-6.6914,-6.6914,-6.6914,-6.6914,-6.6914,-6.6914,-6.6914,-6.6914,-6.6914,-6.6914,-6.6914,-6.6914,-6.6914,-6.6914,-6.6914,-6.6914,-6.6914,-6.6914,-6.6914,-6.6914,-6.6914,-6.6914,-6.6914,-6.6914,-6.6914,-6.6914,-6.6914,-6.6914,-6.6914,-6.6914,-6.6914,-6.6914,-6.6914,-6.6914,-6.6914,-6.6914,-6.6914,-6.6914,-6.6914,-6.6914,-6.6914,-6.6914,-6.6914,-6.6914,-6.6914,-6.6914,-6.6914,-6.6914,-6.6914,-6.6914,-6.6914,-6.6914,-6.6914,-6.6601,-6.5703,-6.5781,-6.5742,0.0,-6.5469,-6.5859,-6.6523,-6.6601,-6.6328,0.0,0.0,-6.5781,-6.4687,-6.5664,-6.6289,-6.6289,-6.6289,-6.6719,-6.7578,-6.7773,-6.8633,-7.0117,-7.0312,-7.0859,-7.168,-7.168,-7.1797,-7.1992,-7.1992,-7.1992,-7.1992,-7.1992,-7.1992,-7.1992,-7.1992,-7.1992,-7.1992,-7.1992,-7.1992,-7.1992,-6.7422,-6.75,-6.7617,-6.7969,-6.8047,-6.8047,-6.8086,-6.8476,-6.875,-6.875,-6.918,-6.9492,-6.9453,-6.9453,-6.9453,-6.9414,-6.8242,-6.75,-6.75,-6.7109,-6.6914,-6.6914,-6.6914,-6.6914,-6.6914,-6.6914,-6.6914,-6.6914,-6.6914,-6.6914,-6.6914,-6.6914,-6.6914,-6.6914,-6.6914,-6.6914,-6.6914,-6.6914,-6.6914,-6.6914,-6.6914,-6.6914,-6.6914,-6.6914,-6.6914,-6.6914,-6.6914,-6.6914,-6.6914,-6.6914,-6.6914,-6.6914,-6.6914,-6.6914,-6.6914,-6.6914,-6.6914,-6.6914,-6.6914,-6.6914,-6.6914,-6.6914,-6.6914,-6.6914,-6.6914,-6.6914,-6.6914,-6.6914,-6.6914,-6.6914,-6.6914,-6.6914,-6.6914,-6.6914,-6.6562,-6.6133,-6.5664,-6.5586,-6.5586,-6.5586,-6.5937,-6.6367,-6.6836,-6.6914,-6.6719,-6.6211,-6.625,0.0,-6.6094,-6.6601,-6.6914,-6.6914,-6.7305,-6.789,-6.8789,-6.914,-7.0,-7.1289,-7.1289,-7.1523,-7.1992,-7.1992,-7.1992,-7.1992,-7.1992,-7.1992,-7.1992,-7.1992,-7.1992,-7.1992,-7.1992,-7.1992,-7.1992,-7.1992,-7.1992,-7.207,-6.8242,-6.8398,-6.8594,-6.9297,-6.9414,-6.9414,-6.9492,-6.9531,-6.9609,-6.9609,-6.9765,-6.9883,-6.9883,-6.9844,-6.9805,-6.9805,-6.9062,-6.8515,-6.8398,-6.7695,-6.7305,-6.7305,-6.7265,-6.7265,-6.7265,-6.7265,-6.7265,-6.7265,-6.7265,-6.7265,-6.7305,-6.7305,-6.7305,-6.7265,-6.7305,-6.7305,-6.7305,-6.7265,-6.7265,-6.7305,-6.7305,-6.7305,-6.7265,-6.7148,-6.7109,-6.707,-6.6953,-6.6914,-6.6914,-6.6914,-6.6914,-6.6914,-6.6914,-6.6914,-6.6914,-6.6914,-6.6914,-6.6914,-6.6914,-6.6914,-6.6914,-6.6914,-6.6914,-6.6914,-6.6914,-6.6914,-6.6914,-6.6914,-6.6914,-6.6914,-6.6914,-6.6914,-6.6875,-6.6719,-6.6094,-6.5547,-6.543,0.0,-6.5586,-6.5586,-6.6367,-6.6914,-6.6914,-6.6914,-6.6953,-6.7109,-6.6406,-6.664,-6.8125,-6.7617,-6.7265,-6.7265,-6.8008,-6.8789,-6.9687,-7.0508,-7.1289,-7.1992,-7.1992,-7.1992,-7.1992,-7.1992,-7.1992,-7.1992,-7.1992,-7.1992,-7.1992,-7.1992,-7.1992,-7.1992,-7.1992,-7.207,-7.2187,-7.2187,-7.2265,-7.25,-6.918,-6.9258,-6.9336,-6.9453,-6.9453,-6.9414,-6.9414,-7.0039,-7.0508,-7.0508,-7.1133,-7.1601,-7.1601,-7.1601,-7.1601,-7.1601,-7.082,-7.0,-6.9258,-6.914,-6.9101,-6.9101,-6.9023,-6.9023,-6.9023,-6.9023,-6.9023,-6.9023,-6.9023,-6.9023,-6.9101,-6.9101,-6.9062,-6.9023,-6.9062,-6.9101,-6.9101,-6.9023,-6.9023,-6.9101,-6.9101,-6.9062,-6.8945,-6.8242,-6.8008,-6.789,-6.7148,-6.6914,-6.6914,-6.6914,-6.6914,-6.6914,-6.6914,-6.6914,-6.6914,-6.6914,-6.6914,-6.6914,-6.6914,-6.6914,-6.6914,-6.6914,-6.6914,-6.6914,-6.6914,-6.6914,-6.6914,-6.6914,-6.6914,-6.6914,-6.6914,-6.6914,-6.664,-6.5937,-6.5703,-6.5351,-6.4609,0.0,-6.5586,-6.5586,-6.6367,-6.6914,-6.6914,-6.6914,-6.7226,-6.793,-6.7851,-6.789,-6.8203,-6.8711,-6.9023,-6.9023,-6.914,-6.9648,-7.0508,-7.1367,-7.1875,-7.1992,-7.1992,-7.1992,-7.1992,-7.1992,-7.1992,-7.1992,-7.1992,-7.1992,-7.1992,-7.1992,-7.1992,-7.1992,-7.1992,-7.2461,-7.3086,-7.3086,-7.3555,-7.4219,-7.0039,-7.0117,-7.0273,-7.0742,-7.082,-7.0781,-7.0781,-7.1133,-7.1406,-7.1406,-7.1758,-7.1992,-7.1992,-7.1992,-7.1992,-7.1992,-7.164,-7.1211,-7.082,-6.9961,-6.9492,-6.9453,-6.9414,-6.9414,-6.9453,-6.9414,-6.9414,-6.9414,-6.9453,-6.9453,-6.9492,-6.9492,-6.9453,-6.9414,-6.9453,-6.9492,-6.9453,-6.9414,-6.9414,-6.9453,-6.9453,-6.9414,-6.9375,-6.9023,-6.8867,-6.8789,-6.8398,-6.8242,-6.8242,-6.8281,-6.8281,-6.8242,-6.8242,-6.7969,-6.7617,-6.7617,-6.7265,-6.6914,-6.6914,-6.6914,-6.6914,-6.6914,-6.6914,-6.6914,-6.6914,-6.6914,-6.6914,-6.6914,-6.6914,-6.6914,-6.6914,-6.6914,-6.6601,-6.5742,-6.5586,-6.5312,-6.4414,-6.5039,-6.5586,-6.5586,-6.6367,-6.6914,-6.6914,-6.7305,-6.7773,-6.8164,-6.8594,-6.9062,-6.9531,-6.9883,-7.0312,-7.0781,-7.0781,-7.0976,-7.1406,-7.1797,-7.1992,-7.1992,-7.1992,-7.1992,-7.1992,-7.1992,-7.1992,-7.1992,-7.1992,-7.1992,-7.1992,-7.1992,-7.2265,-7.2695,-7.2695,-7.3242,-7.3984,-7.3984,-7.4258,-7.4687,-7.0898,-7.1015,-7.1211,-7.1875,-7.1992,-7.1992,-7.1992,-7.1992,-7.1992,-7.1992,-7.1992,-7.1992,-7.1992,-7.1992,-7.1992,-7.1992,-7.1992,-7.1992,-7.1992,-7.0781,-7.0078,-7.0,-7.0,-7.0039,-7.0078,-7.0039,-7.0,-7.0,-7.0078,-7.0078,-7.0078,-7.0078,-7.0039,-7.0,-7.0078,-7.0039,-7.0,-7.0,-7.0,-7.0,-7.0,-7.0,-7.0,-6.9844,-6.9765,-6.9687,-6.9453,-6.9414,-6.9414,-6.9453,-6.9453,-6.9414,-6.9414,-6.8984,-6.8515,-6.8515,-6.8047,-6.7422,-6.6992,-6.6914,-6.6914,-6.6914,-6.6914,-6.6914,-6.6914,-6.6914,-6.6914,-6.6914,-6.6914,-6.6914,-6.6914,-6.6914,-6.6601,-6.5742,0.0,-6.5351,-6.4687,-6.5195,-6.5664,-6.5898,-6.668,-6.7187,-6.7187,-6.7969,-6.8555,-6.8789,-6.9336,-7.0078,-7.0976,-7.1015,-7.1328,-7.1992,-7.1992,-7.1992,-7.1992,-7.1992,-7.1992,-7.1992,-7.1992,-7.1992,-7.1992,-7.1992,-7.1992,-7.1992,-7.2226,-7.2305,-7.2305,-7.2539,-7.3008,-7.3594,-7.3594,-7.414,-7.4883,-7.4883,-7.5039,-7.5312,-7.1875,-7.1914,-7.1914,-7.1992,-7.1992,-7.1992,-7.1992,-7.1992,-7.1992,-7.1992,-7.1992,-7.1992,-7.1992,-7.1992,-7.1992,-7.1992,-7.1992,-7.1992,-7.1992,-7.1875,-7.1797,-7.1797,-7.1797,-7.1797,-7.1836,-7.1797,-7.1797,-7.1797,-7.1797,-7.1836,-7.1836,-7.1836,-7.1797,-7.1797,-7.1797,-7.1797,-7.1797,-7.1797,-7.1797,-7.1797,-7.1797,-7.1797,-7.1719,-7.0937,-7.0625,-7.0508,-6.9687,-6.9414,-6.9414,-6.9414,-6.9453,-6.9492,-6.9414,-6.9414,-6.9414,-6.9414,-6.9375,-6.8945,-6.7344,-6.6914,-6.6914,-6.6914,-6.6914,-6.6914,-6.6914,-6.6914,-6.6914,-6.6914,-6.6914,-6.6914,-6.6914,-6.6914,-6.6601,-6.5742,0.0,0.0,-6.5508,-6.5547,-6.5898,-6.6719,-6.7578,-6.8086,-6.8086,-6.8828,-6.9648,-7.0469,-7.0586,-7.0976,-7.1875,-7.1914,-7.1914,-7.1992,-7.1992,-7.1992,-7.1992,-7.1992,-7.1992,-7.1992,-7.1992,-7.1992,-7.1992,-7.1992,-7.1992,-7.2031,-7.2851,-7.3203,-7.3281,-7.4062,-7.4453,-7.4492,-7.4492,-7.5039,-7.5781,-7.5781,-7.6328,-7.7031,-7.1992,-7.1992,-7.1992,-7.1992,-7.1992,-7.1992,-7.1992,-7.1992,-7.1992,-7.1992,-7.1992,-7.1992,-7.1992,-7.1992,-7.1992,-7.1992,-7.1992,-7.1992,-7.1992,-7.1992,-7.1992,-7.1992,-7.1992,-7.1992,-7.1992,-7.1992,-7.1992,-7.1992,-7.1992,-7.1992,-7.1992,-7.1992,-7.1992,-7.1992,-7.1992,-7.1992,-7.1992,-7.1992,-7.1992,-7.1992,-7.1992,-7.1992,-7.1953,-7.164,-7.1523,-7.1445,-7.1133,-7.1015,-7.1015,-7.1015,-7.1015,-7.1055,-7.1015,-7.0664,-7.0156,-6.9609,-6.9453,-6.9297,-6.8633,-6.8086,-6.7695,-6.7695,-6.7305,-6.6914,-6.6914,-6.6914,-6.6914,-6.6914,-6.6914,-6.6914,-6.6914,-6.6914,-6.6601,-6.5742,0.0,-6.6406,-6.6406,-6.6875,-6.7539,-6.8398,-6.8789,-6.8984,-6.8945,-6.9726,-7.0351,-7.0664,-7.1211,-7.164,-7.1992,-7.1992,-7.1992,-7.1992,-7.1992,-7.1992,-7.1992,-7.1992,-7.1992,-7.1992,-7.1992,-7.1992,-7.2031,-7.2578,-7.2812,-7.2851,-7.3711,-7.4101,-7.414,-7.4453,-7.4922,-7.539,-7.539,-7.5937,-7.6719,-7.6719,-7.6914,-7.7187,-7.1992,-7.1992,-7.1992,-7.1992,-7.1992,-7.1992,-7.1992,-7.1992,-7.1992,-7.1992,-7.1992,-7.1992,-7.1992,-7.1992,-7.1992,-7.1992,-7.1992,-7.1992,-7.1992,-7.1992,-7.1992,-7.1992,-7.1992,-7.1992,-7.1992,-7.1992,-7.1992,-7.1992,-7.1992,-7.1992,-7.1992,-7.1992,-7.1992,-7.1992,-7.1992,-7.1992,-7.1992,-7.1992,-7.1992,-7.1992,-7.1992,-7.1992,-7.1992,-7.1992,-7.1992,-7.1992,-7.1992,-7.1992,-7.1992,-7.1992,-7.1992,-7.1992,-7.1992,-7.1601,-7.0976,-7.039,-7.0234,-7.0234,-7.0234,-6.9609,-6.8906,-6.8633,-6.8125,-6.7695,-6.7695,-6.7695,-6.7695,-6.7695,-6.7695,-6.7695,-6.7695,-6.7695,-6.75,-6.6914,-6.7305,-6.7695,-6.7695,-6.8203,-6.8789,-6.9414,-6.9726,-6.9844,-6.9805,-7.0586,-7.1094,-7.1094,-7.164,-7.1992,-7.1992,-7.1992,-7.1992,-7.1992,-7.1992,-7.2148,-7.2422,-7.2148,-7.2148,-7.2422,-7.2422,-7.2539,-7.2851,-7.3437,-7.3711,-7.375,-7.4648,-7.5,-7.5039,-7.5312,-7.5781,-7.6328,-7.6328,-7.668,-7.7187,-7.7187,-7.7187,-7.7187,-7.1992,-7.1992,-7.1992,-7.1992,-7.1992,-7.1992,-7.1992,-7.1992,-7.1992,-7.1992,-7.1992,-7.1992,-7.1992,-7.1992,-7.1992,-7.1992,-7.1992,-7.1992,-7.1992,-7.1992,-7.1992,-7.1992,-7.1992,-7.1992,-7.1992,-7.1992,-7.1992,-7.1992,-7.1992,-7.1992,-7.1992,-7.1992,-7.1992,-7.1992,-7.1992,-7.1992,-7.1992,-7.1992,-7.1992,-7.1992,-7.1992,-7.1992,-7.1992,-7.1992,-7.1992,-7.1992,-7.1992,-7.1992,-7.1992,-7.1992,-7.1992,-7.1992,-7.1992,-7.1992,-7.1992,-7.1992,-7.1992,-7.1992,-7.1992,-7.1367,-7.0508,-6.9648,-6.9414,-6.9414,-6.9492,-6.9453,-6.9414,-6.9414,-6.9414,-6.9414,-6.9492,-6.9453,-6.9414,-6.9492,-6.9453,-6.9414,-6.9492,-6.9453,-6.9414,-6.9414,-7.0195,-7.0703,-7.0703,-7.1484,-7.1992,-7.1992,-7.1992,-7.1992,-7.1992,-7.1992,-7.1992,-7.1992,-7.1992,-7.2422,-7.3281,-7.2461,-7.2461,-7.332,-7.332,-7.375,-7.4609,-7.4609,-7.4609,-7.4648,-7.5547,-7.5898,-7.5976,-7.6836,-7.7187,-7.7187,-7.7187,-7.7187,-7.7187,-7.7187,-7.7187,-7.7187,-7.1992,-7.1992,-7.1992,-7.1992,-7.1992,-7.1992,-7.1992,-7.1992,-7.1992,-7.1992,-7.1992,-7.1992,-7.1992,-7.1992,-7.1992,-7.1992,-7.1992,-7.1992,-7.1992,-7.1992,-7.1992,-7.1992,-7.1992,-7.1992,-7.1992,-7.1992,-7.1992,-7.1992,-7.1992,-7.1992,-7.1992,-7.1992,-7.1992,-7.1992,-7.1992,-7.1992,-7.1992,-7.1992,-7.1992,-7.1992,-7.1992,-7.1992,-7.1992,-7.1992,-7.1992,-7.1992,-7.1992,-7.1992,-7.1992,-7.1992,-7.1992,-7.1992,-7.1992,-7.1992,-7.1992,-7.1992,-7.1992,-7.1992,-7.1992,-7.1797,-7.1406,-7.0547,-6.9844,-6.9414,-6.9414,-6.9414,-6.9414,-6.9414,-6.9414,-6.9414,-6.9492,-6.9453,-6.9414,-6.9492,-6.9453,-6.9609,-7.0234,-7.0312,-7.0547,-7.1133,-7.1445,-7.1601,-7.1601,-7.1836,-7.1992,-7.1992,-7.1992,-7.1992,-7.1992,-7.1992,-7.2265,-7.289,-7.289,-7.332,-7.4219,-7.3359,-7.3359,-7.4219,-7.4219,-7.4336,-7.4609,-7.5234,-7.5508,-7.5547,-7.6445,-7.6797,-7.6836,-7.7109,-7.7187,-7.7187,-7.7187,-7.7187,-7.7187,-7.7187,-7.7187,-7.7187,-7.1992,-7.2265,-7.25,-7.25,-7.2812,-7.3047,-7.3047,-7.3047,-7.3047,-7.3047,-7.3047,-7.3047,-7.3047,-7.3047,-7.3047,-7.3047,-7.3047,-7.3047,-7.3047,-7.3047,-7.3047,-7.3047,-7.3047,-7.2695,-7.2031,-7.1992,-7.1992,-7.1992,-7.2344,-7.25,-7.2539,-7.2851,-7.3047,-7.3047,-7.3047,-7.3047,-7.3047,-7.3047,-7.2812,-7.25,-7.25,-7.2305,-7.1992,-7.1992,-7.1992,-7.1992,-7.1992,-7.1992,-7.1992,-7.1992,-7.1992,-7.1992,-7.1992,-7.1992,-7.1992,-7.1992,-7.1992,-7.1992,-7.1992,-7.1992,-7.1875,-7.1367,-7.082,-7.043,-7.043,-7.043,-7.043,-7.043,-7.043,-7.043,-7.0469,-7.0469,-7.043,-7.0469,-7.0469,-7.0625,-7.1133,-7.1211,-7.1406,-7.1953,-7.1992,-7.1992,-7.1992,-7.1992,-7.1992,-7.1992,-7.1992,-7.2148,-7.25,-7.25,-7.289,-7.3789,-7.3828,-7.4219,-7.5117,-7.4609,-7.4609,-7.5117,-7.5117,-7.5273,-7.5664,-7.6172,-7.6406,-7.6445,-7.6953,-7.7187,-7.7187,-7.7187,-7.7187,-7.7187,-7.7187,-7.7187,-7.7187,-7.7187,-7.7187,-7.7187,-7.2226,-7.2851,-7.3437,-7.3437,-7.4062,-7.4609,-7.4609,-7.4609,-7.4609,-7.4609,-7.4609,-7.4609,-7.4609,-7.4609,-7.4609,-7.4609,-7.4609,-7.4609,-7.4609,-7.4609,-7.4609,-7.4609,-7.4609,-7.3867,-7.2265,-7.2226,-7.2226,-7.2226,-7.3047,-7.3437,-7.3437,-7.4219,-7.4609,-7.4609,-7.4609,-7.4609,-7.4609,-7.4609,-7.414,-7.3437,-7.3437,-7.293,-7.2226,-7.2226,-7.2226,-7.2226,-7.2226,-7.2226,-7.2226,-7.2148,-7.207,-7.1992,-7.1992,-7.1992,-7.1992,-7.1992,-7.1992,-7.1992,-7.1992,-7.1992,-7.1992,-7.1992,-7.1992,-7.1992,-7.1992,-7.1992,-7.1992,-7.1992,-7.1992,-7.1992,-7.1992,-7.1992,-7.1992,-7.1992,-7.1992,-7.1992,-7.1992,-7.1992,-7.1992,-7.1992,-7.1992,-7.1992,-7.1992,-7.1992,-7.1992,-7.1992,-7.207,-7.2461,-7.3242,-7.3359,-7.3828,-7.4687,-7.4726,-7.5117,-7.6015,-7.6015,-7.6015,-7.6015,-7.6015,-7.6445,-7.7187,-7.7187,-7.7187,-7.7187,-7.7187,-7.7187,-7.7187,-7.7187,-7.7187,-7.7187,-7.7187,-7.7187,-7.7187,-7.7187,-7.7187,-7.7187,-7.4023,-7.418,-7.4336,-7.4336,-7.4453,-7.4609,-7.4609,-7.4609,-7.4609,-7.4609,-7.4609,-7.4609,-7.4609,-7.4609,-7.4609,-7.4609,-7.4609,-7.4609,-7.4609,-7.4609,-7.4609,-7.4609,-7.4609,-7.4414,-7.4023,-7.4023,-7.4023,-7.4023,-7.4219,-7.4336,-7.4336,-7.4492,-7.4609,-7.4609,-7.4609,-7.4609,-7.4609,-7.4609,-7.4492,-7.4336,-7.4336,-7.4219,-7.4023,-7.4023,-7.4023,-7.4023,-7.4023,-7.4023,-7.3945,-7.3242,-7.2578,-7.1992,-7.1992,-7.1992,-7.1992,-7.1992,-7.1992,-7.1992,-7.1992,-7.1992,-7.1992,-7.1992,-7.1992,-7.1992,-7.1992,-7.1992,-7.1992,-7.1992,-7.1992,-7.1992,-7.1992,-7.1992,-7.1992,-7.1992,-7.1992,-7.1992,-7.1992,-7.1992,-7.1992,-7.1992,-7.1992,-7.1992,-7.1992,-7.1992,-7.1992,-7.1992,-7.2617,-7.3086,-7.3281,-7.3945,-7.4726,-7.5586,-7.5625,-7.6055,-7.6914,-7.6914,-7.6914,-7.6914,-7.6914,-7.7031,-7.7187,-7.7187,-7.7187,-7.7187,-7.7187,-7.7187,-7.7187,-7.7187,-7.7187,-7.7187,-7.7187,-7.7187,-7.7187,-7.7187,-7.7187,-7.7187,-7.4609,-7.4922,-7.5234,-7.5234,-7.5547,-7.5859,-7.5859,-7.5859,-7.5859,-7.5859,-7.5859,-7.5859,-7.5859,-7.5859,-7.5859,-7.5859,-7.5859,-7.5859,-7.5859,-7.5859,-7.5859,-7.5859,-7.5859,-7.5859,-7.5859,-7.5859,-7.543,-7.4609,-7.5039,-7.5234,-7.5234,-7.5664,-7.5859,-7.5859,-7.5859,-7.5859,-7.5859,-7.5859,-7.5586,-7.5234,-7.5234,-7.4961,-7.4609,-7.4609,-7.4609,-7.4609,-7.4609,-7.4609,-7.4531,-7.4062,-7.3633,-7.3242,-7.3242,-7.2969,-7.2617,-7.2617,-7.2344,-7.1992,-7.1992,-7.1992,-7.1992,-7.1992,-7.1992,-7.1992,-7.1992,-7.1992,-7.1992,-7.1992,-7.1992,-7.1992,-7.1992,-7.1992,-7.1992,-7.1992,-7.1992,-7.1992,-7.1992,-7.1992,-7.1992,-7.1992,-7.1992,-7.1992,-7.1992,-7.2383,-7.2617,-7.2617,-7.3437,-7.4101,-7.4531,-7.4961,-7.5625,-7.6484,-7.6523,-7.6758,-7.7187,-7.7187,-7.7187,-7.7187,-7.7187,-7.7187,-7.7187,-7.7187,-7.7187,-7.7187,-7.7187,-7.7187,-7.7187,-7.7187,-7.7187,-7.7187,-7.7187,-7.7187,-7.7187,-7.7187,-7.7187,-7.7187,-7.5039,-7.5625,-7.6133,-7.6133,-7.6719,-7.7187,-7.7187,-7.7187,-7.7187,-7.7187,-7.7187,-7.7187,-7.7187,-7.7187,-7.7187,-7.7187,-7.7187,-7.7187,-7.7187,-7.7187,-7.7187,-7.7187,-7.7187,-7.7187,-7.7187,-7.7187,-7.6484,-7.5039,-7.5781,-7.6133,-7.6133,-7.6875,-7.7187,-7.7187,-7.7187,-7.7187,-7.7187,-7.7187,-7.6797,-7.6133,-7.6133,-7.5703,-7.5039,-7.5039,-7.5039,-7.5039,-7.5039,-7.4961,-7.4805,-7.4805,-7.4726,-7.4609,-7.4609,-7.4101,-7.3515,-7.3515,-7.3008,-7.2422,-7.2265,-7.2226,-7.2187,-7.2031,-7.1992,-7.1992,-7.1992,-7.1992,-7.1992,-7.1992,-7.1992,-7.1992,-7.1992,-7.1992,-7.1992,-7.1992,-7.1992,-7.1992,-7.1992,-7.1992,-7.1992,-7.1992,-7.2148,-7.2226,-7.2226,-7.3008,-7.3515,-7.3515,-7.4336,-7.5156,-7.5859,-7.6055,-7.6445,-7.7187,-7.7187,-7.7187,-7.7187,-7.7187,-7.7187,-7.7187,-7.7187,-7.7187,-7.7187,-7.7187,-7.7187,-7.7187,-7.7187,-7.7187,-7.7187,-7.7187,-7.7187,-7.7187,-7.7187,-7.7187,-7.7187,-7.7187,-7.7187,-7.7187,-7.6836,-7.6953,-7.7031,-7.7031,-7.7109,-7.7187,-7.7187,-7.7187,-7.7187,-7.7187,-7.7187,-7.7187,-7.7187,-7.7187,-7.7187,-7.7187,-7.7187,-7.7187,-7.7187,-7.7187,-7.7187,-7.7187,-7.7187,-7.7187,-7.7187,-7.7187,-7.707,-7.6836,-7.6953,-7.7031,-7.7031,-7.7148,-7.7187,-7.7187,-7.7187,-7.7187,-7.7187,-7.7187,-7.7148,-7.7031,-7.7031,-7.6953,-7.6836,-7.6836,-7.6836,-7.6836,-7.6836,-7.6367,-7.5703,-7.5703,-7.5234,-7.4609,-7.4609,-7.4531,-7.4414,-7.4414,-7.4336,-7.4062,-7.332,-7.3125,-7.293,-7.2187,-7.1992,-7.1992,-7.1992,-7.1992,-7.1992,-7.1992,-7.1992,-7.1992,-7.1992,-7.1992,-7.1992,-7.1992,-7.1992,-7.1992,-7.1992,-7.1992,-7.1992,-7.1992,-7.2656,-7.3125,-7.3125,-7.3906,-7.4414,-7.4414,-7.5234,-7.5781,-7.5898,-7.6601,-7.707,-7.7187,-7.7187,-7.7187,-7.7187,-7.7187,-7.7187,-7.7187,-7.7187,-7.7187,-7.7187,-7.7187,-7.7187,-7.7187,-7.7187,-7.7187,-7.7187,-7.7187,-7.7187,-7.7187,-7.7187,-7.7187,-7.7187,-7.7187,-7.7187,-7.7187,-7.7187,-7.7187,-7.7187,-7.7187,-7.7187,-7.7187,-7.7187,-7.7187,-7.7187,-7.7187,-7.7187,-7.7187,-7.7187,-7.7187,-7.7187,-7.7187,-7.7187,-7.7187,-7.7187,-7.7187,-7.7187,-7.7187,-7.7187,-7.7187,-7.7187,-7.7187,-7.7187,-7.7187,-7.7187,-7.7187,-7.7187,-7.7187,-7.7187,-7.7187,-7.7187,-7.7187,-7.7187,-7.7187,-7.7187,-7.7187,-7.7187,-7.7187,-7.7187,-7.7187,-7.7187,-7.7187,-7.7187,-7.6953,-7.664,-7.664,-7.6367,-7.6055,-7.6055,-7.5703,-7.5312,-7.5312,-7.4961,-7.4531,-7.414,-7.4023,-7.3945,-7.3555,-7.3437,-7.332,-7.2851,-7.2734,-7.2578,-7.2109,-7.1992,-7.1992,-7.1992,-7.1992,-7.1992,-7.1992,-7.1992,-7.1992,-7.1992,-7.1992,-7.2187,-7.2656,-7.3515,-7.4023,-7.4023,-7.4805,-7.5312,-7.5312,-7.6133,-7.664,-7.664,-7.6992,-7.7187,-7.7187,-7.7187,-7.7187,-7.7187,-7.7187,-7.7187,-7.7187,-7.7187,-7.7187,-7.7187,-7.7187,-7.7187,-7.7187,-7.7187,-7.7187,-7.7187,-7.7187,-7.7187,-7.7187,-7.7097,-7.6948,-7.6868,-7.6995,-7.7048,-7.7046]},{"header":{"parameterUnit":"m.s-1","parameterCategory":1,"la1":30.6,"la2":28.766,"lo1":-90.7593,"lo2":-88.6598,"dy":0.0162,"dx":0.0183,"nx":116,"ny":114,"refTime":"2024-02-22T06:00:00:Z","depth":0,"parameterNumber":3,"parameterNumberName":"V-component_of_WINDS"},"data":[0.0,0.0,0.0,0.0,0.0,0.0,0.0,0.0,0.0,0.0,0.0,0.0,0.0,0.0,0.0,0.0,0.0,0.0,0.0,0.0,0.0,0.0,0.0,0.0,0.0,0.0,0.0,0.0,0.0,0.0,0.0,0.0,0.0,0.0,0.0,0.0,0.0,0.0,0.0,0.0,0.0,0.0,0.0,0.0,0.0,0.0,0.0,0.0,0.0,0.0,0.0,0.0,0.0,0.0,0.0,0.0,0.0,0.0,0.0,0.0,0.0,0.0,0.0,0.0,0.0,0.0,0.0,0.0,0.0,0.0,0.0,0.0,0.0,0.0,0.0,0.0,0.0,0.0,0.0,0.0,0.0,0.0,0.0,0.0,0.0,0.0,0.0,0.0,0.0,0.0,0.0,0.0,0.0,0.0,0.0,0.0,0.0,0.0,0.0,0.0,0.0,0.0,0.0,0.0,0.0,0.0,0.0,0.0,0.0,0.0,0.0,0.0,0.0,0.0,0.0,0.0,0.0,0.0,0.0,0.0,0.0,0.0,0.0,0.0,0.0,0.0,0.0,0.0,0.0,0.0,0.0,0.0,0.0,0.0,0.0,0.0,0.0,0.0,0.0,0.0,0.0,0.0,0.0,0.0,0.0,0.0,0.0,0.0,0.0,0.0,0.0,0.0,0.0,0.0,0.0,0.0,0.0,0.0,0.0,0.0,0.0,0.0,0.0,0.0,0.0,0.0,0.0,0.0,0.0,0.0,0.0,0.0,0.0,0.0,0.0,0.0,0.0,0.0,0.0,0.0,0.0,0.0,0.0,0.0,0.0,0.0,0.0,0.0,0.0,0.0,0.0,0.0,0.0,0.0,0.0,0.0,0.0,0.0,0.0,0.0,0.0,0.0,0.0,0.0,0.0,0.0,0.0,0.0,0.0,0.0,0.0,0.0,0.0,0.0,0.0,0.0,0.0,0.0,0.0,0.0,0.0,0.0,0.0,0.0,0.0,0.0,0.0,0.0,0.0,0.0,0.0,0.0,0.0,0.0,0.0,0.0,0.0,0.0,0.0,0.0,0.0,0.0,0.0,0.0,0.0,0.0,0.0,0.0,0.0,0.0,0.0,0.0,0.0,0.0,0.0,0.0,0.0,0.0,0.0,0.0,0.0,0.0,0.0,0.0,0.0,0.0,0.0,0.0,0.0,0.0,0.0,0.0,0.0,0.0,0.0,0.0,0.0,0.0,0.0,0.0,0.0,0.0,0.0,0.0,0.0,0.0,0.0,0.0,0.0,0.0,0.0,0.0,0.0,0.0,0.0,0.0,0.0,0.0,0.0,0.0,0.0,0.0,0.0,0.0,0.0,0.0,0.0,0.0,0.0,0.0,0.0,0.0,0.0,0.0,0.0,0.0,0.0,0.0,0.0,0.0,0.0,0.0,0.0,0.0,0.0,0.0,0.0,0.0,0.0,0.0,0.0,0.0,0.0,0.0,0.0,0.0,0.0,0.0,0.0,0.0,0.0,0.0,0.0,0.0,0.0,0.0,0.0,0.0,0.0,0.0,0.0,0.0,0.0,0.0,0.0,0.0,0.0,0.0,0.0,0.0,0.0,0.0,0.0,0.0,0.0,0.0,0.0,0.0,0.0,0.0,0.0,0.0,0.0,0.0,0.0,0.0,0.0,0.0,0.0,0.0,0.0,0.0,0.0,0.0,0.0,0.0,0.0,0.0,0.0,0.0,0.0,0.0,0.0,0.0,0.0,0.0,0.0,0.0,0.0,0.0,0.0,0.0,0.0,0.0,0.0,0.0,0.0,0.0,0.0,0.0,0.0,0.0,0.0,0.0,0.0,0.0,0.0,0.0,0.0,0.0,0.0,0.0,0.0,0.0,0.0,0.0,0.0,0.0,0.0,0.0,0.0,0.0,0.0,0.0,0.0,0.0,0.0,0.0,0.0,0.0,0.0,0.0,0.0,0.0,0.0,0.0,0.0,0.0,0.0,0.0,0.0,0.0,0.0,0.0,0.0,0.0,0.0,0.0,0.0,0.0,0.0,0.0,0.0,0.0,0.0,0.0,0.0,0.0,0.0,0.0,0.0,0.0,0.0,0.0,0.0,0.0,0.0,0.0,0.0,0.0,0.0,0.0,0.0,0.0,0.0,0.0,0.0,0.0,0.0,0.0,0.0,0.0,0.0,0.0,0.0,0.0,0.0,0.0,0.0,0.0,0.0,0.0,0.0,0.0,0.0,0.0,0.0,0.0,0.0,0.0,0.0,0.0,0.0,0.0,0.0,0.0,0.0,0.0,0.0,0.0,0.0,0.0,0.0,0.0,0.0,0.0,0.0,0.0,0.0,0.0,0.0,0.0,0.0,0.0,0.0,0.0,0.0,0.0,0.0,0.0,0.0,0.0,0.0,0.0,0.0,0.0,0.0,0.0,0.0,0.0,0.0,0.0,0.0,0.0,0.0,0.0,0.0,0.0,0.0,0.0,0.0,0.0,0.0,0.0,0.0,0.0,0.0,0.0,0.0,0.0,0.0,0.0,0.0,0.0,0.0,0.0,0.0,0.0,0.0,0.0,0.0,0.0,0.0,0.0,0.0,0.0,0.0,0.0,0.0,0.0,0.0,0.0,0.0,0.0,0.0,0.0,0.0,0.0,0.0,0.0,0.0,0.0,0.0,0.0,0.0,0.0,0.0,0.0,0.0,0.0,0.0,0.0,0.0,0.0,0.0,0.0,0.0,0.0,0.0,0.0,0.0,0.0,0.0,0.0,0.0,0.0,0.0,0.0,0.0,0.0,0.0,0.0,0.0,0.0,0.0,0.0,0.0,0.0,0.0,0.0,0.0,0.0,0.0,0.0,0.0,0.0,0.0,0.0,0.0,0.0,0.0,0.0,0.0,0.0,0.0,0.0,0.0,0.0,0.0,0.0,0.0,0.0,0.0,0.0,0.0,0.0,0.0,0.0,0.0,0.0,0.0,0.0,0.0,0.0,0.0,0.0,0.0,0.0,0.0,0.0,0.0,0.0,0.0,0.0,0.0,0.0,0.0,0.0,0.0,0.0,0.0,0.0,0.0,0.0,0.0,0.0,0.0,0.0,0.0,0.0,0.0,0.0,0.0,0.0,0.0,0.0,0.0,0.0,0.0,0.0,0.0,0.0,0.0,0.0,0.0,0.0,0.0,0.0,0.0,0.0,0.0,0.0,0.0,0.0,0.0,0.0,0.0,0.0,0.0,0.0,0.0,0.0,0.0,0.0,0.0,0.0,0.0,0.0,0.0,0.0,0.0,0.0,0.0,0.0,0.0,0.0,0.0,0.0,0.0,0.0,0.0,0.0,0.0,0.0,0.0,0.0,0.0,0.0,0.0,0.0,0.0,0.0,0.0,0.0,0.0,0.0,0.0,0.0,0.0,0.0,0.0,0.0,0.0,0.0,0.0,0.0,0.0,0.0,0.0,0.0,0.0,0.0,0.0,0.0,0.0,0.0,0.0,0.0,0.0,0.0,0.0,0.0,0.0,0.0,0.0,0.0,0.0,0.0,0.0,0.0,0.0,0.0,0.0,0.0,0.0,0.0,0.0,0.0,0.0,0.0,0.0,0.0,0.0,0.0,0.0,0.0,0.0,0.0,0.0,0.0,0.0,0.0,0.0,0.0,0.0,0.0,0.0,0.0,0.0,0.0,0.0,0.0,0.0,0.0,0.0,0.0,0.0,0.0,0.0,0.0,0.0,0.0,0.0,0.0,0.0,0.0,0.0,0.0,0.0,0.0,0.0,0.0,0.0,0.0,0.0,0.0,0.0,0.0,0.0,0.0,0.0,0.0,0.0,0.0,0.0,0.0,0.0,0.0,0.0,0.0,0.0,0.0,0.0,0.0,0.0,0.0,0.0,0.0,0.0,0.0,0.0,0.0,0.0,0.0,0.0,0.0,0.0,0.0,0.0,0.0,0.0,0.0,0.0,0.0,0.0,0.0,0.0,0.0,0.0,0.0,0.0,0.0,0.0,0.0,0.0,0.0,0.0,0.0,0.0,0.0,0.0,0.0,0.0,0.0,0.0,0.0,0.0,0.0,0.0,0.0,0.0,0.0,0.0,0.0,0.0,0.0,0.0,0.0,0.0,0.0,0.0,0.0,0.0,0.0,0.0,0.0,0.0,0.0,0.0,0.0,0.0,0.0,0.0,0.0,0.0,0.0,0.0,0.0,0.0,0.0,0.0,0.0,0.0,0.0,0.0,0.0,0.0,0.0,0.0,0.0,0.0,0.0,0.0,0.0,0.0,0.0,0.0,0.0,0.0,0.0,0.0,0.0,0.0,0.0,0.0,0.0,0.0,0.0,0.0,0.0,0.0,0.0,0.0,0.0,0.0,0.0,0.0,0.0,0.0,0.0,0.0,0.0,0.0,0.0,0.0,0.0,0.0,0.0,0.0,0.0,0.0,0.0,0.0,0.0,0.0,0.0,0.0,0.0,0.0,0.0,0.0,0.0,0.0,0.0,0.0,0.0,0.0,0.0,0.0,0.0,0.0,0.0,0.0,0.0,0.0,0.0,0.0,0.0,0.0,0.0,0.0,0.0,0.0,0.0,0.0,0.0,0.0,0.0,0.0,0.0,0.0,0.0,0.0,0.0,0.0,0.0,0.0,0.0,0.0,0.0,0.0,0.0,0.0,0.0,0.0,0.0,0.0,0.0,0.0,0.0,0.0,0.0,0.0,0.0,0.0,0.0,0.0,0.0,0.0,0.0,0.0,0.0,0.0,0.0,0.0,0.0,0.0,0.0,0.0,0.0,0.0,0.0,0.0,0.0,0.0,0.0,0.0,0.0,0.0,0.0,0.0,0.0,0.0,0.0,0.0,0.0,0.0,0.0,0.0,0.0,0.0,0.0,0.0,0.0,0.0,0.0,0.0,0.0,0.0,0.0,0.0,0.0,0.0,0.0,0.0,0.0,0.0,0.0,0.0,0.0,0.0,0.0,0.0,0.0,0.0,0.0,0.0,0.0,0.0,0.0,0.0,0.0,0.0,0.0,0.0,0.0,0.0,0.0,0.0,0.0,0.0,0.0,0.0,0.0,0.0,0.0,0.0,0.0,0.0,0.0,0.0,0.0,0.0,0.0,0.0,0.0,0.0,0.0,0.0,0.0,0.0,0.0,0.0,0.0,0.0,0.0,0.0,0.0,0.0,0.0,0.0,0.0,0.0,0.0,0.0,0.0,0.0,0.0,0.0,0.0,0.0,0.0,0.0,0.0,0.0,0.0,0.0,0.0,0.0,0.0,0.0,0.0,0.0,0.0,0.0,0.0,0.0,0.0,0.0,0.0,0.0,0.0,0.0,0.0,0.0,0.0,0.0,0.0,0.0,0.0,0.0,0.0,0.0,0.0,0.0,0.0,0.0,0.0,0.0,0.0,0.0,0.0,0.0,0.0,0.0,0.0,0.0,0.0,0.0,0.0,0.0,0.0,0.0,0.0,0.0,0.0,0.0,0.0,0.0,0.0,0.0,0.0,0.0,0.0,0.0,0.0,0.0,0.0,0.0,0.0,0.0,0.0,0.0,0.0,0.0,0.0,0.0,0.0,0.0,0.0,0.0,0.0,0.0,0.0,0.0,0.0,0.0,0.0,0.0,0.0,0.0,0.0,0.0,0.0,0.0,0.0,0.0,0.0,0.0,0.0,0.0,0.0,0.0,0.0,0.0,0.0,0.0,0.0,0.0,0.0,0.0,0.0,0.0,0.0,0.0,0.0,0.0,0.0,0.0,0.0,0.0,0.0,0.0,0.0,0.0,0.0,0.0,0.0,0.0,0.0,0.0,0.0,0.0,0.0,0.0,0.0,0.0,0.0,0.0,0.0,0.0,0.0,0.0,0.0,0.0,0.0,0.0,0.0,0.0,0.0,0.0,0.0,0.0,0.0,0.0,0.0,0.0,0.0,0.0,0.0,0.0,0.0,0.0,0.0,0.0,0.0,0.0,0.0,0.0,0.0,0.0,0.0,0.0,0.0,0.0,0.0,0.0,0.0,0.0,0.0,0.0,0.0,0.0,0.0,0.0,0.0,0.0,0.0,0.0,0.0,0.0,0.0,0.0,0.0,0.0,0.0,0.0,0.0,0.0,0.0,-1.0152,0.0,0.0,0.0,0.0,0.0,0.0,0.0,0.0,0.0,0.0,0.0,0.0,0.0,0.0,0.0,0.0,0.0,0.0,0.0,0.0,0.0,0.0,0.0,0.0,0.0,0.0,0.0,-0.9822,-0.9822,-0.9822,-0.9822,-0.9822,-0.9822,-0.9822,-0.9822,-0.9822,-0.9822,-0.9822,-0.9822,-0.9897,-1.0012,-1.0154,-1.008,-1.0005,-0.9869,0.0,0.0,0.0,0.0,0.0,0.0,0.0,0.0,0.0,0.0,0.0,0.0,0.0,0.0,0.0,0.0,0.0,0.0,0.0,0.0,0.0,0.0,0.0,0.0,0.0,0.0,0.0,0.0,0.0,0.0,0.0,0.0,0.0,0.0,0.0,0.0,0.0,0.0,0.0,0.0,0.0,0.0,0.0,0.0,0.0,0.0,0.0,0.0,0.0,0.0,0.0,0.0,0.0,0.0,0.0,0.0,0.0,0.0,0.0,0.0,0.0,0.0,0.0,0.0,0.0,0.0,0.0,0.0,0.0,0.0,0.0,-1.0195,0.0,0.0,0.0,0.0,0.0,0.0,0.0,0.0,0.0,0.0,0.0,0.0,0.0,0.0,0.0,0.0,0.0,0.0,0.0,0.0,0.0,0.0,0.0,-0.9822,-0.9822,-0.9822,-0.9822,-0.9822,-0.9822,-0.9822,-0.9822,-0.9822,-0.9822,-0.9822,-0.9822,-0.9822,-0.9836,-0.9863,-1.0039,-1.0258,-1.0317,-1.0317,-1.0249,-1.0058,-0.9971,0.0,0.0,0.0,0.0,0.0,0.0,0.0,0.0,0.0,0.0,0.0,0.0,0.0,0.0,0.0,0.0,0.0,0.0,0.0,0.0,0.0,0.0,0.0,0.0,0.0,0.0,0.0,0.0,0.0,0.0,0.0,0.0,0.0,0.0,0.0,0.0,0.0,0.0,0.0,0.0,0.0,0.0,0.0,0.0,0.0,0.0,0.0,0.0,0.0,0.0,0.0,0.0,0.0,0.0,0.0,0.0,0.0,0.0,0.0,0.0,0.0,0.0,0.0,-1.0358,-1.0358,-1.0358,-1.0358,-1.0358,-1.0358,-1.0331,-1.0385,-1.0473,-0.9843,0.0,0.0,0.0,0.0,0.0,0.0,0.0,0.0,0.0,0.0,0.0,0.0,0.0,0.0,0.0,0.0,0.0,0.0,0.0,0.0,0.0,-0.9822,-0.9822,-0.9822,-0.9822,-0.9822,-0.9822,-0.9822,-0.9822,-0.9822,-0.9822,-0.9822,-0.9822,-0.9822,-0.9883,-0.9957,-1.0297,-1.0446,-1.0466,-1.0466,-1.0453,-1.0426,-1.0283,0.0,0.0,0.0,0.0,0.0,0.0,0.0,0.0,0.0,0.0,0.0,0.0,0.0,0.0,0.0,0.0,0.0,0.0,0.0,0.0,0.0,0.0,0.0,0.0,0.0,0.0,0.0,0.0,0.0,0.0,0.0,0.0,0.0,0.0,0.0,0.0,0.0,0.0,0.0,0.0,0.0,0.0,0.0,-1.0044,-1.0263,0.0,0.0,0.0,0.0,0.0,0.0,0.0,0.0,0.0,0.0,0.0,0.0,0.0,-1.0317,-1.046,-1.0466,-1.0527,-1.0663,-1.0663,-1.0663,-1.0663,-1.0663,-1.0663,-1.0656,-1.0521,0.0,-1.0357,-0.875,0.0,0.0,0.0,0.0,0.0,0.0,0.0,0.0,0.0,0.0,0.0,0.0,0.0,0.0,0.0,0.0,0.0,0.0,0.0,0.0,0.0,-0.9835,-0.9889,-0.9889,-1.0032,-1.0039,-0.9896,-0.9889,-0.9849,-0.9822,-0.9822,-0.9822,-0.9822,-0.9842,-1.0004,-1.0297,-1.0426,-1.0534,-1.0622,-1.0622,-1.0622,-1.0616,-1.0555,-1.0399,-1.0181,-1.0181,0.0,0.0,0.0,0.0,0.0,0.0,0.0,0.0,0.0,0.0,0.0,0.0,0.0,0.0,0.0,0.0,0.0,0.0,0.0,0.0,0.0,0.0,0.0,0.0,0.0,0.0,0.0,0.0,0.0,0.0,0.0,0.0,0.0,0.0,0.0,0.0,0.0,0.0,0.0,-1.008,-1.0236,-1.0385,-1.0331,-1.0256,0.0,0.0,0.0,0.0,0.0,0.0,0.0,0.0,0.0,-1.0392,-1.0399,-1.0473,-1.0616,-1.0622,-1.0656,-1.0717,-1.0717,-1.0717,-1.0717,-1.0717,-1.0717,-1.0651,-0.9582,-0.9084,-0.9013,-0.816,-0.8264,-0.8779,0.0,0.0,0.0,0.0,-0.4959,-0.3438,0.0,0.0,0.0,0.0,0.0,0.0,0.0,0.0,0.0,0.0,0.0,0.0,-0.9876,-1.0019,-1.0107,-1.0107,-1.0215,-1.0215,-0.9997,-0.9984,-0.9916,-0.9829,-0.9822,-0.9822,-0.9822,-1.0012,-1.0236,-1.0493,-1.0527,-1.0609,-1.0717,-1.0717,-1.0717,-1.0717,-1.0717,-1.0575,-1.0337,-1.0337,-1.0249,0.0,0.0,0.0,0.0,0.0,0.0,0.0,0.0,0.0,0.0,0.0,0.0,0.0,0.0,0.0,0.0,0.0,0.0,0.0,0.0,0.0,0.0,0.0,0.0,0.0,0.0,0.0,0.0,0.0,0.0,0.0,0.0,0.0,0.0,0.0,0.0,0.0,0.0,-1.0181,-1.0331,-1.0473,-1.0432,-1.0378,0.0,0.0,0.0,0.0,0.0,0.0,-1.0331,-1.0337,-1.0399,-1.0548,-1.0548,-1.0602,-1.0717,-1.0717,-1.0717,-1.0717,-1.0717,-1.0717,-1.0717,-1.0717,-1.0452,-0.9915,-0.8568,-0.7764,-0.7289,-0.6758,-0.6793,-0.699,-0.5125,-0.4367,-0.4327,-0.4324,-0.323,-0.1877,0.0,0.0,0.0,0.0,0.0,0.0,0.0,0.0,0.0,0.0,0.0,-0.9977,-0.9977,-1.0175,-1.027,-1.027,-1.0276,-1.0215,-0.9997,-0.9984,-0.9916,-0.9829,-0.9822,-0.9822,-0.9822,-1.0114,-1.0344,-1.0493,-1.0636,-1.0711,-1.0717,-1.0717,-1.0717,-1.0717,-1.0717,-1.0629,-1.048,-1.048,-1.0399,-1.0256,0.0,0.0,0.0,0.0,0.0,0.0,0.0,0.0,0.0,0.0,0.0,0.0,0.0,0.0,0.0,0.0,0.0,0.0,0.0,0.0,0.0,0.0,0.0,0.0,0.0,0.0,0.0,0.0,0.0,0.0,0.0,0.0,0.0,0.0,0.0,0.0,0.0,0.0,0.0,-1.0473,-1.0616,0.0,0.0,0.0,0.0,-1.0276,-1.0276,-1.0337,-1.0473,-1.048,-1.0555,-1.0704,-1.0711,-1.0711,-1.0717,-1.0717,-1.0717,-1.0717,-1.0717,-1.0717,-1.0717,-1.0717,-0.9775,-0.8097,-0.803,-0.7031,-0.5429,-0.3687,-0.3954,-0.5352,-0.3367,-0.2693,-0.2822,-0.2691,-0.1577,-0.0132,0.0,0.0,0.0,0.0,0.0,0.0,0.0,0.0,-1.0222,-1.0004,-0.9984,-0.9984,-0.9984,-1.027,-1.0419,-1.0419,-1.0507,-1.05,-1.0344,-1.0249,-1.0127,-0.9909,-0.9876,-0.9917,-1.0114,-1.031,-1.0487,-1.0636,-1.0697,-1.0717,-1.0717,-1.0717,-1.0717,-1.0717,-1.0717,-1.069,-1.0636,-1.0636,-1.0555,-1.0412,-1.0358,-1.0222,0.0,0.0,0.0,0.0,0.0,0.0,0.0,0.0,0.0,0.0,0.0,0.0,0.0,0.0,0.0,0.0,0.0,0.0,0.0,0.0,0.0,0.0,0.0,0.0,0.0,0.0,0.0,0.0,0.0,0.0,0.0,0.0,0.0,0.0,0.0,0.0,0.0,-1.0473,-1.0541,0.0,-1.0493,-1.0493,-1.0473,-1.0419,-1.0507,-1.0582,-1.0636,-1.0636,-1.0663,-1.0717,-1.0717,-1.0717,-1.0717,-1.0717,-1.0717,-1.0717,-1.0717,-1.0717,-1.0651,-0.951,-0.8634,-0.7897,-0.5559,-0.4225,-0.3488,-0.168,-0.2016,-0.3488,-0.1603,-0.0934,-0.0934,-0.0934,-0.0534,0.0,0.0,0.0,0.0,0.0,0.0,0.0,0.0,0.0,-1.0331,-1.022,-1.0229,-1.0222,-1.0206,-1.0453,-1.0568,-1.0568,-1.0663,-1.0636,-1.0432,-1.0331,-1.0188,-0.9916,-0.9862,-1.0039,-1.0344,-1.0446,-1.0568,-1.0717,-1.0717,-1.0717,-1.0717,-1.0717,-1.0717,-1.0717,-1.0717,-1.0717,-1.0717,-1.0717,-1.0663,-1.0561,-1.0514,-1.0344,-1.0058,0.0,0.0,0.0,0.0,0.0,0.0,0.0,0.0,0.0,0.0,0.0,0.0,0.0,0.0,0.0,0.0,0.0,0.0,0.0,0.0,0.0,0.0,0.0,0.0,0.0,0.0,0.0,0.0,0.0,0.0,0.0,0.0,0.0,0.0,0.0,-1.0385,-1.048,-1.0534,-1.0568,-1.0568,-1.0568,-1.0568,-1.0568,-1.0663,-1.0717,-1.0717,-1.0717,-1.0717,-1.0717,-1.0717,-1.0717,-1.0717,-1.0717,-1.0717,-1.0717,-1.0717,-1.0717,-1.0651,-0.8834,-0.7698,-0.6965,-0.3957,-0.235,-0.168,-0.0471,-0.074,-0.168,-0.0471,0.0,0.0,0.0,0.0,0.0,0.0,0.0,0.0,0.0,0.0,0.0,0.0,-1.0588,-1.0548,-1.0704,-1.0588,-1.0548,-1.0704,-1.0717,-1.0717,-1.0717,-1.0717,-1.0595,-1.0304,-1.0283,-1.0148,-0.9842,-0.9916,-1.0195,-1.0487,-1.0493,-1.0568,-1.0717,-1.0717,-1.0717,-1.0717,-1.0717,-1.0717,-1.0717,-1.0717,-1.0717,-1.0717,-1.0717,-1.0717,-1.0711,-1.0561,-1.0412,-1.027,0.0,0.0,0.0,0.0,0.0,0.0,0.0,0.0,0.0,0.0,0.0,0.0,0.0,0.0,0.0,0.0,0.0,0.0,0.0,0.0,0.0,0.0,0.0,0.0,0.0,0.0,0.0,0.0,0.0,0.0,0.0,0.0,0.0,-1.0263,-1.0405,-1.0493,-1.05,-1.0629,-1.0717,-1.0717,-1.0717,-1.0717,-1.0717,-1.0717,-1.0717,-1.0717,-1.0717,-1.0717,-1.0717,-1.0717,-1.0717,-1.0717,-1.0717,-1.0717,-1.0717,-1.0717,-1.0651,-1.0518,-0.8767,-0.6965,-0.5228,-0.3423,-0.1613,0.0,0.0,0.0,0.0,0.0,0.0,0.0,0.0,0.0,0.0,0.0,0.0,0.0,0.0,0.0,0.0,0.0,-1.0588,-1.0548,-1.0704,-1.0588,-1.0548,-1.0704,-1.0717,-1.0717,-1.0717,-1.0717,-1.0636,-1.0446,-1.0337,-1.0188,-0.993,-1.0236,-1.0405,-1.0487,-1.0602,-1.0677,-1.0717,-1.0717,-1.0717,-1.0717,-1.0717,-1.0717,-1.0717,-1.0717,-1.0717,-1.0717,-1.0717,-1.0717,-1.0717,-1.0677,-1.0568,-1.0426,0.0,0.0,0.0,0.0,0.0,0.0,0.0,0.0,0.0,0.0,0.0,0.0,0.0,0.0,0.0,0.0,0.0,0.0,0.0,0.0,0.0,0.0,0.0,0.0,0.0,0.0,0.0,0.0,0.0,0.0,0.0,-1.0304,-1.0385,-1.0426,-1.0466,-1.0534,-1.0643,-1.0697,-1.0717,-1.0717,-1.0717,-1.0717,-1.0717,-1.0717,-1.0717,-1.0717,-1.0717,-1.0717,-1.0717,-1.0717,-1.0717,-1.0717,-1.0717,-1.0717,-1.0717,-1.0717,-0.9981,-0.8701,-0.6898,-0.5162,-0.3354,-0.1545,-0.0471,0.0,0.0,0.0,0.0,0.0,0.0,0.0,0.0,0.0,0.0,0.0,0.0,0.0,0.0,0.0,0.0,0.0,-1.0643,-1.0663,-1.088,-1.0778,-1.0738,-1.0887,-1.0853,-1.0792,-1.0724,-1.0663,-1.0561,-1.0412,-1.0263,-1.0195,-1.0236,0.0,-1.0521,-1.0588,-1.0677,-1.0717,-1.0717,-1.0717,-1.0717,-1.0717,-1.0717,-1.0717,-1.0717,-1.0717,-1.0717,-1.0717,-1.0717,-1.0717,-1.0717,-1.0717,-1.0629,-1.0493,-1.0493,-1.0405,-1.0283,-1.0283,-1.0283,-1.0263,-1.0175,0.0,0.0,0.0,0.0,0.0,0.0,0.0,0.0,0.0,0.0,0.0,0.0,0.0,0.0,0.0,0.0,0.0,0.0,0.0,0.0,0.0,0.0,0.0,0.0,-1.0399,-1.0514,-1.0575,-1.0588,-1.0622,-1.0711,-1.0717,-1.0717,-1.0717,-1.0717,-1.0717,-1.0717,-1.0717,-1.0717,-1.0717,-1.0717,-1.0717,-1.0717,-1.0717,-1.0717,-1.0717,-1.0717,-1.0717,-1.0717,-0.9915,-0.9039,-0.7897,-0.5429,-0.3689,-0.2618,-0.0807,0.0,0.0,0.0,0.0,0.0,0.0,0.0,0.0,0.0,0.0,0.0,0.0,0.0,0.0,0.0,0.0,0.0,0.0,-1.0717,-1.0826,-1.1193,-1.1036,-1.1009,-1.1172,-1.1043,-1.0826,-1.0758,-1.0588,-1.0432,-1.029,-1.0168,-1.0215,-1.048,-1.0507,-1.0582,-1.0717,-1.0717,-1.0717,-1.0717,-1.0717,-1.0717,-1.0717,-1.0717,-1.0717,-1.0717,-1.0717,-1.0717,-1.0717,-1.0717,-1.0717,-1.0717,-1.0717,-1.0636,-1.0521,-1.0521,-1.0439,-1.0331,-1.0331,-1.0331,-1.0331,-1.031,0.0,0.0,0.0,0.0,0.0,0.0,0.0,0.0,0.0,0.0,0.0,0.0,0.0,0.0,0.0,0.0,0.0,0.0,0.0,0.0,0.0,0.0,0.0,0.0,-1.0426,-1.0568,-1.0704,-1.0717,-1.0717,-1.0717,-1.0717,-1.0717,-1.0717,-1.0717,-1.0717,-1.0717,-1.0717,-1.0717,-1.0717,0.0,0.0,0.0,0.0,-1.0717,-1.0717,-1.0717,-1.0717,-1.0651,-0.8834,-0.7897,-0.7564,-0.4225,-0.2618,-0.2283,-0.0672,0.0,0.0,0.0,0.0,0.0,0.0,0.0,0.0,0.0,0.0,0.0,0.0,0.0,0.0,0.0,0.0,0.0,0.0,-1.0717,-1.0826,-1.1193,-1.1036,-1.105,-1.1314,-1.1111,-1.0867,-1.084,-1.0649,-1.0432,-1.029,0.0,-1.0432,-1.0487,-1.0609,-1.069,-1.0717,-1.0717,-1.0717,-1.0717,-1.0717,-1.0717,-1.0717,-1.0717,-1.0717,-1.0717,-1.0717,-1.0717,-1.0717,-1.0717,-1.0717,-1.0717,-1.0717,-1.0704,-1.0677,-1.0677,-1.0656,-1.0636,-1.0636,-1.0636,-1.0616,-1.0493,-1.0453,-1.0432,-1.0317,0.0,0.0,0.0,0.0,0.0,0.0,0.0,0.0,0.0,0.0,0.0,0.0,0.0,0.0,0.0,0.0,0.0,0.0,0.0,0.0,-1.0446,-1.0575,-1.0683,-1.0717,-1.0717,-1.0717,-1.0717,-1.0717,-1.0717,-1.0717,-1.0717,-1.0717,-1.0717,-1.0717,-1.0717,-1.0717,-1.0717,-1.0717,-1.0717,-1.0717,-1.0717,-1.0717,-1.0717,-1.0717,-1.0651,0.0,0.0,-0.583,-0.3689,-0.1881,-0.0471,-0.0135,0.0,0.0,0.0,0.0,0.0,0.0,0.0,0.0,0.0,0.0,0.0,0.0,0.0,0.0,0.0,0.0,0.0,0.0,-1.0717,-1.0799,-1.1023,-1.0995,-1.0934,-1.1151,-1.0968,-1.0806,-1.0724,-1.0514,-1.0358,0.0,-1.0412,-1.0527,-1.0602,-1.0677,-1.0717,-1.0717,-1.0717,-1.0717,-1.0717,-1.0717,-1.0717,-1.0717,-1.0717,-1.0717,-1.0717,-1.0717,-1.0717,-1.0717,-1.0717,-1.0717,-1.0717,-1.0717,-1.0717,-1.0717,-1.0717,-1.0717,-1.0717,-1.0717,-1.0717,-1.0711,-1.0629,-1.0609,-1.0595,-1.0521,-1.0392,-1.0256,0.0,0.0,0.0,0.0,0.0,0.0,0.0,0.0,0.0,0.0,0.0,0.0,0.0,0.0,-1.0283,-1.0283,0.0,-1.0493,-1.0493,-1.0622,-1.0717,-1.0717,-1.0717,-1.0717,-1.0717,-1.0717,-1.0717,-1.0717,-1.0717,-1.0717,-1.0717,-1.0717,-1.0717,-1.0717,-1.0717,-1.0717,-1.0717,-1.0717,-1.0717,-1.0717,-1.0717,-1.0717,-1.0651,-0.7969,-0.6231,-0.5295,-0.2618,-0.0874,0.0,0.0,0.0,0.0,0.0,0.0,0.0,0.0,0.0,0.0,0.0,0.0,0.0,0.0,0.0,0.0,0.0,0.0,0.0,0.0,-1.0717,-1.0772,-1.086,-1.088,-1.0894,-1.0921,-1.0853,-1.0677,-1.0466,-1.0371,0.0,0.0,-1.0439,-1.0595,-1.0717,-1.0717,-1.0717,-1.0717,-1.0717,-1.0717,-1.0717,-1.0717,-1.0717,-1.0717,-1.0717,-1.0717,-1.0717,-1.0717,-1.0717,-1.0717,-1.0717,-1.0717,-1.0717,-1.0717,-1.0717,-1.0717,-1.0717,-1.0717,-1.0717,-1.0717,-1.0704,-1.0677,-1.0711,-1.0704,-1.0683,-1.0711,-1.0616,-1.0466,-1.0351,-1.0304,0.0,0.0,0.0,0.0,0.0,0.0,0.0,0.0,0.0,-1.0331,-1.0358,-1.0365,-1.0365,-1.0365,-1.046,-1.0534,-1.0534,-1.0636,-1.0717,-1.0717,-1.0717,-1.0717,-1.0717,-1.0717,-1.0717,-1.0717,-1.0717,-1.0717,-1.0717,-1.0717,-1.0717,-1.0717,-1.0717,-1.0717,-1.0717,-1.0717,-1.0717,-1.0717,-1.0319,-1.018,-1.0114,-0.6564,-0.4894,-0.476,-0.1478,0.0,0.0,0.0,0.0,0.0,0.0,0.0,0.0,0.0,0.0,0.0,0.0,0.0,0.0,0.0,0.0,0.0,0.0,0.0,0.0,0.0,0.0,-1.0772,-1.086,-1.088,-1.0995,-1.1124,-1.1009,-1.0758,-1.0337,0.0,0.0,-1.029,-1.0541,-1.0704,-1.0717,-1.0717,-1.0717,-1.0717,-1.0717,-1.0717,-1.0717,-1.0717,-1.0717,-1.0717,-1.0717,-1.0717,-1.0717,-1.0717,-1.0717,-1.0717,-1.0717,-1.0717,-1.0717,-1.0717,-1.0717,-1.0717,-1.0717,-1.0717,-1.0717,-1.0717,-1.0629,-1.0534,-1.0677,-1.0629,-1.0541,-1.0677,-1.0616,-1.0487,-1.0473,0.0,-1.0249,-1.0031,-0.9997,-1.0011,-1.0011,-1.0168,-1.029,0.0,0.0,-1.0507,-1.0643,-1.067,-1.067,-1.067,-1.0683,-1.0697,-1.0697,-1.0711,-1.0717,-1.0717,-1.0717,-1.0717,-1.0717,-1.0717,-1.0717,-1.0717,-1.0717,-1.0717,-1.0717,-1.0717,-1.0717,-1.0717,-1.0717,-1.0717,-1.0717,-1.0717,-1.0717,-1.0717,-0.9105,-0.8296,-0.823,-0.469,-0.3021,-0.2954,-0.0941,0.0,0.0,0.0,0.0,0.0,0.0,0.0,0.0,0.0,0.0,0.0,0.0,0.0,0.0,0.0,0.0,0.0,0.0,0.0,0.0,0.0,0.0,0.0,-1.0806,-1.0745,-1.0839,-1.09,-1.0772,-1.0541,-1.0175,0.0,0.0,-1.029,-1.0555,-1.0717,-1.0717,-1.0717,-1.0717,-1.0717,-1.0717,-1.0717,-1.0717,-1.0717,-1.0717,-1.0717,-1.0717,-1.0717,-1.0717,-1.0717,-1.0717,-1.0717,-1.0717,-1.0717,-1.0717,-1.0717,-1.0717,-1.0717,-1.0717,-1.0717,-1.0711,-1.0622,-1.0548,0.0,0.0,-1.0548,-1.0521,-1.067,-1.0616,-1.0493,-1.0493,-1.0392,0.0,-1.0304,-1.0243,-1.0222,0.0,-1.0419,-1.0439,-1.0588,-1.0622,-1.0643,-1.0704,-1.0717,-1.0717,-1.0717,-1.0717,-1.0717,0.0,-1.0717,-1.0717,-1.0717,-1.0717,-1.0717,-1.0717,-1.0717,-1.0717,-1.0717,-1.0717,-1.0717,-1.0717,-1.0717,-1.0717,-1.0717,-1.0717,-1.0717,-1.0717,-1.0717,-1.0717,-1.0717,-0.89,-0.803,-0.7964,-0.4423,-0.2685,-0.2618,-0.0807,0.0,0.0,0.0,0.0,0.0,0.0,0.0,0.0,0.0,0.0,0.0,0.0,0.0,0.0,0.0,0.0,0.0,0.0,0.0,0.0,0.0,0.0,0.0,0.0,-1.0717,-1.0717,-1.0717,-1.0582,-1.0405,0.0,0.0,0.0,0.0,-1.0541,-1.0677,-1.0717,-1.0717,-1.0717,-1.0717,-1.0717,-1.0717,-1.0717,-1.0717,-1.0717,-1.0717,-1.0717,-1.0717,-1.0717,-1.0717,-1.0717,-1.0717,-1.0717,-1.0717,-1.0717,-1.0717,-1.0717,-1.0717,-1.0717,-1.0697,-1.0643,-1.0534,-1.0466,0.0,0.0,-1.0405,-1.0399,-1.0548,-1.0521,-1.0432,-1.0432,-1.0331,-1.0249,-1.0392,-1.0358,0.0,-1.0595,-1.0609,-1.0582,-1.0697,-1.0717,-1.0717,-1.0717,-1.0717,-1.0717,-1.0717,-1.0717,-1.0717,-1.0717,-1.0717,-1.0717,-1.0717,-1.0717,-1.0717,-1.0717,-1.0717,-1.0717,-1.0717,-1.0717,-1.0717,-1.0717,-1.0717,-1.0717,-1.0717,-1.0717,-1.0717,-1.0717,-1.0717,-1.0452,-0.9975,-0.8634,-0.7498,-0.6494,-0.3957,-0.2417,-0.1881,-0.0606,0.0,0.0,0.0,0.0,0.0,0.0,0.0,0.0,0.0,0.0,0.0,0.0,0.0,0.0,0.0,0.0,0.0,0.0,0.0,0.0,0.0,0.0,0.0,0.0,0.0,0.0,0.0,0.0,-1.0487,0.0,0.0,0.0,0.0,-1.0493,-1.0568,-1.0711,-1.0717,-1.0717,-1.0717,-1.0717,-1.0717,-1.0717,-1.0717,-1.0717,-1.0717,-1.0717,-1.0717,-1.0717,-1.0717,-1.0717,-1.0717,-1.0717,-1.0717,-1.0717,-1.0717,-1.0717,-1.0717,-1.0717,-1.0629,-1.05,-1.0493,0.0,0.0,0.0,-1.0188,-1.0031,-1.0243,-1.029,0.0,-1.029,-1.0175,-1.0031,-1.0243,0.0,-1.0317,-1.046,-1.0609,-1.0717,-1.0717,-1.0717,-1.0717,-1.0717,-1.0717,-1.0717,-1.0717,-1.0717,-1.0717,-1.0717,-1.0717,-1.0717,-1.0717,-1.0717,-1.0717,-1.0717,-1.0717,-1.0717,0.0,-1.0717,-1.0717,-1.0717,-1.0717,-1.0717,-1.0717,-1.0717,-1.0717,-1.0717,-1.0717,-0.9842,-0.8097,-0.803,-0.6293,-0.2887,-0.2752,-0.1814,-0.0067,0.0,0.0,0.0,0.0,0.0,0.0,0.0,0.0,0.0,0.0,0.0,0.0,0.0,0.0,0.0,0.0,0.0,0.0,0.0,0.0,0.0,0.0,0.0,0.0,0.0,0.0,0.0,0.0,0.0,0.0,0.0,0.0,0.0,0.0,-1.0588,-1.0663,-1.0717,-1.0717,-1.0717,-1.0717,-1.0717,-1.0717,-1.0717,-1.0717,-1.0717,-1.0717,-1.0717,-1.0717,-1.0717,-1.0717,-1.0717,-1.0717,-1.0717,-1.0717,-1.0717,-1.0717,-1.0656,-1.0568,-1.0568,-1.048,-1.0337,0.0,0.0,0.0,-1.0127,-1.0031,-1.0011,-1.0236,-1.0209,-1.0127,-1.0127,-1.0161,-1.0236,-1.0378,0.0,-1.046,-1.0609,-1.0683,-1.0717,-1.0717,-1.0717,-1.0717,-1.0717,-1.0636,-1.0568,-1.0568,-1.0493,-1.046,-1.0555,-1.0568,-1.0602,-1.0704,-1.0717,-1.0717,-1.0717,-1.0717,0.0,0.0,0.0,0.0,-1.0717,-1.0717,-1.0717,-1.0717,-1.0717,-1.0717,-1.0717,-1.0717,-0.9842,-0.803,-0.6831,-0.5095,-0.2685,-0.1478,-0.0606,0.0,0.0,0.0,0.0,0.0,0.0,0.0,0.0,0.0,0.0,0.0,0.0,0.0,0.0,0.0,0.0,0.0,0.0,0.0,0.0,0.0,0.0,0.0,0.0,0.0,0.0,0.0,0.0,0.0,0.0,0.0,0.0,0.0,0.0,0.0,0.0,-1.0636,-1.0636,-1.0636,-1.0616,-1.0561,-1.0561,-1.0561,-1.0561,-1.0616,-1.0636,-1.0636,-1.0697,-1.0717,-1.0717,-1.0717,-1.0717,-1.0717,-1.0717,-1.069,-1.0636,-1.0636,-1.0548,-1.0419,-1.0419,-1.0324,0.0,0.0,0.0,0.0,-0.9909,-0.9909,-0.993,-1.0148,-1.0127,-0.9997,-1.0114,-1.0161,-1.0243,-1.0439,-1.0493,-1.0527,-1.0683,-1.0717,-1.0717,-1.0717,-1.0717,-1.0704,-1.0649,-1.0561,-1.0473,-1.0426,-1.0344,-1.0324,-1.0466,-1.0493,-1.0548,-1.0697,-1.0717,-1.0717,-1.0717,-1.0717,-1.0717,0.0,0.0,0.0,-1.0717,-1.0717,-1.0717,-1.0717,-1.0717,-1.0717,-1.0717,-1.0717,-0.951,-0.7098,-0.6564,-0.5095,-0.2685,-0.0874,0.0,0.0,0.0,0.0,0.0,0.0,0.0,0.0,0.0,0.0,0.0,0.0,0.0,0.0,0.0,0.0,0.0,0.0,0.0,0.0,0.0,0.0,0.0,0.0,0.0,0.0,0.0,0.0,0.0,0.0,0.0,0.0,0.0,0.0,0.0,0.0,0.0,0.0,-1.0507,-1.0493,-1.0426,-1.0297,-1.0283,-1.0283,-1.0283,-1.0412,-1.048,-1.0487,-1.0629,-1.0697,-1.0697,-1.0697,-1.0697,-1.0697,-1.0697,-1.0616,-1.048,-1.048,-1.0392,-1.027,-1.027,0.0,0.0,0.0,0.0,0.0,-0.9822,-0.9829,-0.9863,-0.995,-0.9997,-1.0031,-1.0249,-1.0188,-1.0071,-1.0426,-1.0507,-1.0541,-1.0683,-1.0717,-1.0717,-1.0717,-1.0717,-1.067,-1.0521,-1.048,-1.0426,0.0,0.0,-1.0317,-1.046,-1.0487,-1.0548,-1.0697,-1.0717,-1.0717,0.0,0.0,0.0,0.0,0.0,0.0,-1.0717,0.0,-1.0717,-1.0717,-1.0717,-1.0651,-1.0585,-1.0651,-0.8972,-0.5295,-0.6831,-0.5893,-0.2551,-0.0807,0.0,0.0,0.0,0.0,0.0,0.0,0.0,0.0,0.0,0.0,0.0,0.0,0.0,0.0,0.0,0.0,0.0,0.0,0.0,0.0,0.0,0.0,0.0,0.0,0.0,0.0,0.0,0.0,0.0,0.0,0.0,0.0,0.0,0.0,0.0,0.0,0.0,0.0,0.0,0.0,0.0,0.0,0.0,0.0,0.0,0.0,-1.0337,-1.0337,-1.0371,-1.0392,-1.0392,-1.0392,-1.0392,-1.0392,-1.0392,-1.0371,-1.0337,0.0,-1.0243,-1.0107,0.0,0.0,0.0,0.0,0.0,0.0,0.0,0.0,0.0,0.0,-1.0222,-1.0249,-1.0392,-1.0412,-1.0419,-1.0609,-1.0663,-1.067,-1.0711,-1.0717,-1.0717,-1.0717,-1.0629,-1.0541,-1.05,-1.0317,-1.0148,0.0,0.0,0.0,-1.031,-1.0426,0.0,-1.0697,-1.0717,0.0,-1.0717,0.0,-1.0717,-1.0717,-1.0717,0.0,0.0,-1.0717,-1.0717,-1.0717,-1.0717,-1.0047,-0.8701,-0.9981,-0.8368,-0.3421,-0.2484,-0.1612,-0.0672,-0.0202,0.0,0.0,0.0,0.0,0.0,0.0,0.0,0.0,0.0,0.0,0.0,0.0,0.0,0.0,0.0,0.0,0.0,0.0,0.0,0.0,0.0,0.0,0.0,0.0,0.0,0.0,0.0,0.0,0.0,0.0,0.0,0.0,0.0,0.0,0.0,0.0,0.0,0.0,0.0,0.0,0.0,0.0,0.0,0.0,0.0,0.0,0.0,0.0,-1.0249,-1.0283,-1.0283,-1.0283,-1.0283,-1.0283,-1.0283,0.0,0.0,0.0,0.0,0.0,0.0,0.0,0.0,0.0,0.0,0.0,0.0,0.0,-1.0256,-1.0344,-1.0371,-1.0399,-1.0548,0.0,-1.0527,-1.0677,-1.0717,-1.0717,-1.0717,-1.0717,-1.0704,-1.0636,-1.0555,-1.0453,-1.0324,-1.0098,0.0,-0.9984,-0.9984,0.0,0.0,0.0,0.0,-1.0697,-1.0717,-1.0717,0.0,-1.0717,0.0,-1.0717,-1.0717,-1.0717,0.0,-1.0717,-1.0717,-1.0717,-0.9981,-0.9039,-0.803,-0.8972,-0.7702,-0.389,-0.1277,0.0,0.0,0.0,0.0,0.0,0.0,0.0,0.0,0.0,0.0,0.0,0.0,0.0,0.0,0.0,0.0,0.0,0.0,0.0,0.0,0.0,0.0,0.0,0.0,0.0,0.0,0.0,0.0,0.0,0.0,0.0,0.0,0.0,0.0,0.0,0.0,0.0,0.0,0.0,0.0,0.0,0.0,0.0,0.0,0.0,0.0,0.0,0.0,0.0,0.0,0.0,0.0,0.0,0.0,0.0,0.0,0.0,0.0,0.0,0.0,0.0,0.0,0.0,0.0,0.0,0.0,0.0,0.0,0.0,0.0,-1.0392,-1.0493,-1.0514,-1.0521,-1.0548,-1.0683,-1.0622,-1.0555,-1.0683,-1.0717,-1.0717,-1.0717,-1.0717,-1.0677,-1.0527,-1.048,-1.0385,-1.0044,0.0,-0.9963,-0.9984,-0.9984,-1.0085,-1.0446,0.0,-1.0548,-1.0697,-1.0717,-1.0717,-1.0717,-1.0717,-1.0717,-1.0717,-1.0717,-1.0717,-1.0717,-1.0717,-1.0717,-1.0717,-0.8972,-0.7897,-0.7631,-0.716,-0.6293,-0.5028,-0.168,0.0,0.0,0.0,0.0,0.0,0.0,0.0,0.0,0.0,0.0,0.0,0.0,0.0,0.0,0.0,0.0,0.0,0.0,0.0,0.0,0.0,0.0,0.0,0.0,0.0,0.0,0.0,0.0,0.0,0.0,-1.1423,0.0,0.0,0.0,0.0,0.0,0.0,0.0,0.0,0.0,0.0,0.0,0.0,0.0,0.0,0.0,0.0,0.0,0.0,0.0,0.0,0.0,0.0,0.0,0.0,0.0,0.0,0.0,0.0,0.0,0.0,0.0,0.0,0.0,0.0,0.0,0.0,0.0,0.0,0.0,-1.0473,-1.0514,-1.0643,-1.0677,-1.0683,-1.0711,-1.0704,-1.0683,-1.0711,-1.0717,-1.0717,-1.0717,-1.0717,-1.0677,-1.0527,-1.0399,0.0,0.0,-0.9889,-0.9835,-0.9963,-0.9984,-1.0085,-1.0446,0.0,0.0,0.0,0.0,-1.0717,0.0,-1.0717,-1.0717,-1.0717,-1.0717,0.0,0.0,-1.0717,-1.0717,-1.0717,-0.8972,-0.7365,-0.5897,-0.2952,-0.1947,-0.3155,-0.1076,0.0,0.0,0.0,0.0,0.0,0.0,0.0,0.0,0.0,0.0,0.0,0.0,0.0,0.0,0.0,0.0,0.0,0.0,0.0,0.0,0.0,0.0,0.0,0.0,0.0,0.0,0.0,0.0,0.0,-1.1619,-1.1558,-1.1423,0.0,0.0,0.0,0.0,0.0,0.0,0.0,0.0,0.0,0.0,0.0,0.0,0.0,0.0,0.0,0.0,0.0,0.0,0.0,0.0,0.0,0.0,0.0,0.0,0.0,0.0,0.0,0.0,0.0,0.0,0.0,0.0,0.0,0.0,0.0,0.0,0.0,0.0,-1.0317,-1.0419,-1.0649,-1.0717,-1.0704,-1.0622,-1.0656,-1.0704,-1.0622,-1.0656,-1.0717,-1.0717,-1.0717,-1.0663,-1.0432,0.0,0.0,0.0,-0.9869,-0.9869,-0.9957,-0.9984,0.0,0.0,0.0,0.0,0.0,0.0,0.0,0.0,0.0,0.0,0.0,-1.0717,-1.0717,-1.0717,-1.0717,-1.0717,-1.0717,-0.8102,-0.583,-0.4024,-0.1411,-0.0874,-0.2685,-0.0874,0.0,0.0,0.0,0.0,0.0,0.0,0.0,0.0,0.0,0.0,0.0,0.0,0.0,0.0,0.0,0.0,0.0,0.0,0.0,0.0,0.0,0.0,0.0,0.0,0.0,0.0,0.0,-1.1619,-1.1619,-1.1619,-1.1619,-1.1572,-1.145,-1.1206,-1.0948,0.0,0.0,0.0,0.0,0.0,0.0,0.0,0.0,0.0,0.0,0.0,0.0,0.0,0.0,0.0,0.0,0.0,0.0,0.0,0.0,0.0,0.0,0.0,0.0,0.0,0.0,0.0,0.0,0.0,0.0,0.0,0.0,0.0,0.0,0.0,-1.0154,-1.0324,-1.0555,-1.0622,-1.0609,-1.0521,-1.0575,-1.0649,-1.0561,-1.0629,-1.0717,-1.0717,-1.0717,-1.0643,-1.0344,-1.0283,0.0,0.0,-0.9822,-0.9869,-0.9957,0.0,-0.9997,0.0,-1.0344,0.0,0.0,0.0,0.0,0.0,0.0,0.0,0.0,-1.0717,0.0,-1.0717,-1.0717,-1.0518,-1.0114,-0.7102,-0.4559,-0.2752,-0.0941,-0.0672,-0.2081,-0.074,0.0,0.0,0.0,0.0,0.0,0.0,0.0,0.0,0.0,0.0,0.0,0.0,0.0,0.0,0.0,0.0,0.0,0.0,0.0,0.0,0.0,0.0,0.0,0.0,0.0,0.0,0.0,-1.1619,-1.1619,-1.1619,-1.1619,-1.1613,-1.1599,-1.145,-1.124,0.0,0.0,0.0,0.0,0.0,0.0,0.0,0.0,0.0,0.0,0.0,0.0,0.0,0.0,0.0,0.0,0.0,0.0,0.0,0.0,0.0,0.0,0.0,0.0,0.0,0.0,0.0,0.0,0.0,0.0,0.0,0.0,0.0,0.0,0.0,0.0,-1.0283,-1.031,-1.0324,-1.0344,-1.046,0.0,0.0,-1.0663,-1.0711,-1.0717,-1.0717,-1.0717,-1.0643,-1.0344,0.0,0.0,-0.9883,-0.9822,-0.9869,-0.9957,-0.9876,-0.9937,0.0,0.0,-1.0118,0.0,0.0,0.0,0.0,0.0,0.0,0.0,0.0,0.0,-1.0717,-1.0717,-0.9981,-0.8368,-0.6431,-0.4559,-0.2752,-0.0941,-0.0067,-0.0269,-0.0067,0.0,0.0,0.0,0.0,0.0,0.0,0.0,0.0,0.0,0.0,0.0,0.0,0.0,0.0,0.0,0.0,0.0,0.0,0.0,0.0,0.0,0.0,0.0,0.0,0.0,0.0,0.0,-1.1619,-1.1619,-1.1619,-1.1619,-1.1619,-1.1619,-1.1565,-1.1443,0.0,0.0,0.0,0.0,0.0,0.0,0.0,0.0,0.0,0.0,0.0,0.0,-1.0629,-1.048,0.0,0.0,0.0,0.0,0.0,0.0,0.0,0.0,0.0,0.0,0.0,0.0,0.0,0.0,0.0,0.0,0.0,0.0,0.0,0.0,0.0,0.0,0.0,-1.0005,-1.0005,0.0,0.0,-1.0351,-1.0487,-1.046,-1.0582,-1.0717,-1.0717,-1.0717,-1.0643,-1.0344,0.0,-1.0195,-0.9883,-0.9822,-0.9842,-0.9897,-0.9863,-0.9863,0.0,0.0,0.0,0.0,0.0,0.0,0.0,0.0,0.0,0.0,0.0,-1.0717,-1.0717,-1.0717,-0.9915,-0.8097,-0.6364,-0.4091,-0.1142,-0.0404,0.0,0.0,0.0,0.0,0.0,0.0,0.0,0.0,0.0,0.0,0.0,0.0,0.0,0.0,0.0,0.0,0.0,0.0,0.0,0.0,0.0,0.0,0.0,0.0,0.0,0.0,0.0,0.0,0.0,-1.1619,-1.1619,-1.1619,-1.1619,-1.1619,-1.1619,-1.1619,-1.1619,-1.1572,-1.147,0.0,0.0,0.0,0.0,0.0,0.0,0.0,0.0,0.0,0.0,-1.0717,-1.0717,-1.0616,-1.0561,0.0,0.0,0.0,0.0,0.0,0.0,0.0,0.0,0.0,0.0,0.0,0.0,0.0,0.0,0.0,0.0,0.0,0.0,0.0,0.0,0.0,0.0,0.0,0.0,0.0,0.0,-1.0195,-1.0358,-1.0344,-1.0493,-1.0663,-1.0711,-1.0683,-1.0588,0.0,0.0,-1.0134,-0.9876,-0.9822,-0.9822,-0.9822,-0.9822,-0.9822,0.0,0.0,-0.997,0.0,0.0,0.0,0.0,0.0,0.0,0.0,-1.0697,-1.0717,-1.0717,-1.018,-0.9105,-0.7298,-0.5563,-0.3423,-0.0874,-0.0269,0.0,0.0,0.0,0.0,0.0,0.0,0.0,0.0,0.0,0.0,0.0,0.0,0.0,0.0,0.0,0.0,0.0,0.0,0.0,0.0,0.0,0.0,0.0,0.0,0.0,0.0,0.0,0.0,0.0,0.0,-1.1619,-1.1619,-1.1619,-1.1619,-1.1619,-1.1619,-1.1619,-1.1619,-1.1619,0.0,0.0,0.0,0.0,0.0,0.0,0.0,0.0,0.0,0.0,-1.0717,-1.0717,-1.0717,-1.0717,-1.0717,-1.0561,-1.0487,0.0,0.0,0.0,0.0,0.0,0.0,0.0,0.0,0.0,0.0,0.0,0.0,0.0,0.0,0.0,0.0,0.0,0.0,0.0,0.0,-0.9822,-0.9849,0.0,-0.999,-1.0058,-1.0412,-1.0493,-1.0527,-1.0683,-1.0609,-1.046,0.0,0.0,-0.9943,-0.9849,-0.9822,-0.9822,-0.9822,-0.9822,-0.9822,-0.9822,0.0,0.0,0.0,0.0,0.0,0.0,0.0,0.0,0.0,0.0,-1.0717,-1.0717,-0.9039,0.0,-0.5496,-0.3689,-0.2685,-0.2685,-0.0941,0.0,0.0,0.0,0.0,0.0,0.0,0.0,0.0,0.0,0.0,0.0,0.0,0.0,0.0,0.0,0.0,0.0,0.0,0.0,0.0,0.0,0.0,0.0,0.0,0.0,0.0,0.0,0.0,0.0,0.0,-1.1619,-1.1619,-1.1619,-1.1619,-1.1619,-1.1619,-1.1619,-1.1619,-1.1619,0.0,0.0,0.0,0.0,0.0,0.0,0.0,0.0,0.0,0.0,-1.0717,-1.0717,-1.0717,-1.0717,-1.0717,-1.067,-1.0649,-1.0643,-1.0493,0.0,0.0,0.0,0.0,0.0,0.0,0.0,0.0,0.0,0.0,0.0,0.0,0.0,0.0,0.0,0.0,0.0,0.0,0.0,0.0,-0.9876,-0.9903,-1.0011,-1.0098,-1.027,-1.0358,-1.0405,-1.0385,-1.031,-1.0154,0.0,-0.9943,-0.9849,-0.9822,-0.9822,-0.9822,-0.9822,-0.9822,-0.9822,0.0,0.0,0.0,0.0,0.0,0.0,0.0,0.0,0.0,0.0,-1.0717,-1.0717,-0.9039,-0.7231,-0.5496,-0.3689,-0.2148,-0.0874,-0.0269,0.0,0.0,0.0,0.0,0.0,0.0,0.0,0.0,0.0,0.0,0.0,0.0,0.0,0.0,0.0,0.0,0.0,0.0,0.0,0.0,0.0,0.0,0.0,0.0,0.0,0.0,0.0,0.0,0.0,0.0,-1.1619,-1.1619,-1.1619,-1.1619,-1.1619,-1.1619,-1.1619,-1.1619,-1.1619,0.0,0.0,0.0,0.0,0.0,0.0,0.0,0.0,0.0,-1.0717,-1.0717,-1.0717,-1.0717,-1.0717,-1.0717,-1.0717,-1.0717,-1.0717,-1.0622,0.0,0.0,0.0,0.0,0.0,0.0,0.0,-0.9822,0.0,0.0,0.0,0.0,0.0,0.0,0.0,0.0,0.0,0.0,0.0,0.0,0.0,-0.989,-0.9916,-0.997,-1.012,-1.0209,-1.0263,-1.0236,-1.0168,0.0,0.0,-0.9876,-0.9842,-0.9822,-0.9822,-0.9822,-0.9822,-0.9822,-0.9822,-0.9822,0.0,0.0,0.0,0.0,0.0,0.0,0.0,0.0,-1.0683,-1.0452,-0.9709,-0.8035,-0.6231,-0.4492,-0.2685,-0.1142,-0.0067,0.0,0.0,0.0,0.0,0.0,0.0,0.0,0.0,0.0,0.0,0.0,0.0,0.0,0.0,0.0,0.0,0.0,0.0,0.0,0.0,0.0,0.0,0.0,0.0,0.0,0.0,0.0,0.0,0.0,0.0,0.0,0.0,0.0,0.0,-1.1619,-1.1619,-1.1619,-1.1619,-1.1619,0.0,0.0,0.0,0.0,0.0,0.0,0.0,0.0,0.0,-1.0717,-1.0717,-1.0717,-1.0717,-1.0717,-1.0717,-1.0717,-1.0717,-1.0717,-1.0717,-1.0717,-1.0643,0.0,0.0,0.0,0.0,-0.9977,-0.9883,0.0,0.0,0.0,0.0,0.0,0.0,0.0,0.0,0.0,0.0,0.0,0.0,0.0,0.0,0.0,0.0,0.0,-0.997,-1.0004,-1.0209,-1.0141,-0.997,-0.997,0.0,0.0,0.0,0.0,-0.9822,-0.9822,-0.9822,-0.9822,-0.9822,0.0,0.0,0.0,0.0,0.0,0.0,0.0,0.0,-1.0507,-1.0636,-0.9981,-0.8163,-0.6364,-0.4626,-0.2819,-0.1009,0.0,0.0,0.0,0.0,0.0,0.0,0.0,0.0,0.0,0.0,0.0,0.0,0.0,0.0,0.0,0.0,0.0,0.0,0.0,0.0,0.0,0.0,0.0,0.0,0.0,0.0,0.0,0.0,0.0,0.0,0.0,0.0,0.0,0.0,0.0,0.0,-1.1619,-1.1619,-1.1619,-1.1619,-1.1619,0.0,0.0,0.0,0.0,0.0,0.0,0.0,0.0,0.0,-1.0717,-1.0717,-1.0717,-1.0717,-1.0717,-1.0717,-1.0717,-1.0717,-1.0717,-1.0717,-1.0717,-1.0704,0.0,0.0,0.0,0.0,-0.9971,-0.9849,0.0,0.0,0.0,0.0,-0.9822,-0.9822,0.0,0.0,0.0,0.0,0.0,0.0,0.0,0.0,-0.9822,-0.9829,-0.9863,0.0,-0.9883,-0.9917,-0.9903,-0.9876,0.0,0.0,0.0,0.0,0.0,0.0,0.0,0.0,0.0,0.0,0.0,0.0,0.0,0.0,0.0,0.0,-1.0575,-1.0663,-1.0663,-1.0697,-0.9981,-0.8163,-0.6364,-0.4626,-0.2819,-0.1009,0.0,0.0,0.0,0.0,0.0,0.0,0.0,0.0,0.0,0.0,0.0,0.0,0.0,0.0,0.0,0.0,0.0,0.0,0.0,0.0,0.0,0.0,0.0,0.0,0.0,0.0,0.0,0.0,0.0,0.0,0.0,0.0,0.0,0.0,0.0,0.0,0.0,0.0,0.0,0.0,0.0,0.0,0.0,0.0,0.0,0.0,0.0,0.0,0.0,-1.0717,-1.0717,-1.0717,-1.0717,-1.0717,-1.0717,-1.0717,-1.0717,-1.0717,-1.0717,-1.0717,-1.0717,-1.0717,-1.0704,-1.0473,-1.0337,-1.0256,-1.0019,0.0,0.0,0.0,0.0,0.0,-0.9822,-0.9822,0.0,-0.9822,-0.9822,-0.9822,0.0,0.0,0.0,0.0,-0.9822,-0.9822,-0.9822,-0.9822,-0.9822,-0.9822,-0.9822,-0.9822,-0.9822,0.0,0.0,0.0,0.0,0.0,0.0,0.0,0.0,0.0,-0.9883,0.0,0.0,0.0,0.0,0.0,0.0,-1.0717,0.0,-0.9981,-0.8701,-0.6965,-0.5162,-0.3354,-0.1545,-0.0538,0.0,0.0,0.0,0.0,0.0,0.0,0.0,0.0,0.0,0.0,0.0,0.0,0.0,0.0,0.0,0.0,0.0,0.0,0.0,0.0,0.0,0.0,0.0,0.0,0.0,0.0,0.0,0.0,0.0,0.0,0.0,0.0,0.0,0.0,0.0,0.0,0.0,0.0,0.0,0.0,0.0,0.0,0.0,0.0,0.0,0.0,0.0,0.0,0.0,-1.0744,-1.0717,-1.0717,-1.0717,-1.0717,-1.0717,-1.0717,-1.0717,-1.0717,-1.0717,-1.0717,-1.0717,-1.0717,-1.0711,-1.0534,-1.0392,-1.0263,-1.0086,0.0,0.0,0.0,0.0,0.0,0.0,0.0,0.0,-0.9822,-0.9822,-0.9822,-0.9822,0.0,0.0,0.0,0.0,0.0,-0.9822,-0.9822,-0.9822,-0.9822,-0.9822,-0.9822,-0.9822,0.0,0.0,0.0,0.0,0.0,0.0,-0.9856,0.0,0.0,0.0,0.0,0.0,0.0,0.0,0.0,0.0,0.0,-1.0313,-0.89,-0.7165,-0.5162,-0.3557,-0.1881,-0.0067,0.0,0.0,0.0,0.0,0.0,0.0,0.0,0.0,0.0,0.0,0.0,0.0,0.0,0.0,0.0,0.0,0.0,0.0,0.0,0.0,0.0,0.0,0.0,0.0,0.0,0.0,0.0,0.0,0.0,0.0,0.0,0.0,0.0,0.0,0.0,0.0,0.0,0.0,0.0,0.0,0.0,0.0,0.0,0.0,0.0,0.0,0.0,0.0,0.0,-1.0989,-1.0786,-1.0724,-1.0717,-1.0717,-1.0717,-1.0717,-1.0717,-1.0717,-1.0717,-1.0717,-1.0717,-1.0717,-1.0717,-1.0704,-1.0426,-1.0297,-1.0256,-0.9971,0.0,0.0,0.0,0.0,0.0,0.0,0.0,0.0,-0.9822,-0.9822,-0.9822,-0.9822,0.0,0.0,0.0,0.0,0.0,-0.9822,-0.9822,-0.9822,-0.9822,-0.9822,-0.9822,-0.9822,0.0,0.0,0.0,0.0,0.0,0.0,-0.995,-1.0059,0.0,0.0,-1.0256,0.0,0.0,0.0,-1.0493,0.0,-1.0114,-0.8568,-0.8163,-0.6627,-0.3354,-0.2887,-0.1881,-0.0067,0.0,0.0,0.0,0.0,0.0,0.0,0.0,0.0,0.0,0.0,0.0,0.0,0.0,0.0,0.0,0.0,0.0,0.0,0.0,0.0,0.0,0.0,0.0,0.0,0.0,0.0,0.0,0.0,0.0,0.0,0.0,0.0,0.0,0.0,0.0,0.0,0.0,0.0,0.0,0.0,0.0,0.0,0.0,0.0,0.0,0.0,0.0,0.0,-1.1241,-1.1097,-1.0955,-1.0724,-1.0717,-1.0717,-1.0717,-1.0717,-1.0717,-1.0717,-1.0717,-1.0717,-1.0717,-1.0717,-1.0717,-1.0704,-1.0405,-1.0283,-1.0256,0.0,0.0,0.0,0.0,0.0,0.0,0.0,0.0,0.0,0.0,-0.9822,-0.9822,-0.9822,0.0,0.0,0.0,0.0,0.0,-0.9822,-0.9822,-0.9842,-0.9862,-0.9883,-0.9822,0.0,0.0,0.0,0.0,0.0,0.0,0.0,0.0,-1.0065,-1.0358,0.0,-1.0426,-1.0507,-1.0575,-1.0616,0.0,0.0,-0.9981,-0.8163,-0.7165,-0.5496,-0.2887,-0.1814,-0.0874,-0.0067,0.0,0.0,0.0,0.0,0.0,0.0,0.0,0.0,0.0,0.0,0.0,0.0,0.0,0.0,0.0,0.0,0.0,0.0,0.0,0.0,0.0,0.0,0.0,0.0,0.0,0.0,0.0,0.0,0.0,0.0,0.0,0.0,0.0,0.0,0.0,0.0,0.0,0.0,0.0,0.0,0.0,0.0,0.0,0.0,0.0,0.0,0.0,-1.1484,-1.1179,-1.1234,-1.1023,-1.0724,-1.0717,-1.0717,-1.0717,-1.0717,-1.0717,-1.0717,-1.0717,-1.0717,-1.0717,-1.0717,-1.0717,-1.0704,-1.0405,-1.0283,-1.0256,0.0,0.0,0.0,0.0,0.0,0.0,0.0,0.0,0.0,0.0,0.0,0.0,0.0,0.0,0.0,-0.9822,-0.9822,-0.9822,-0.9822,-0.9822,-0.9849,-0.9903,0.0,0.0,0.0,0.0,0.0,0.0,0.0,0.0,0.0,0.0,0.0,0.0,-1.0521,-1.0588,-1.0704,-1.0717,-1.0717,-1.0717,-1.0717,-0.9842,-0.7631,-0.6164,-0.4492,-0.2216,-0.0807,0.0,0.0,0.0,0.0,0.0,0.0,0.0,0.0,0.0,0.0,0.0,0.0,0.0,0.0,0.0,0.0,0.0,0.0,0.0,0.0,0.0,0.0,0.0,0.0,0.0,0.0,0.0,0.0,0.0,0.0,0.0,0.0,0.0,0.0,0.0,0.0,0.0,0.0,0.0,0.0,0.0,0.0,0.0,0.0,0.0,0.0,0.0,0.0,0.0,-1.1484,-1.1179,-1.1234,-1.1023,-1.0724,-1.0717,-1.0717,-1.0717,-1.0717,-1.0717,-1.0717,-1.0717,-1.0717,-1.0717,-1.0717,-1.0717,-1.0704,-1.0405,-1.0283,-1.0256,-0.9944,0.0,0.0,0.0,0.0,0.0,0.0,0.0,0.0,0.0,0.0,0.0,0.0,0.0,-0.9822,-0.9822,-0.9822,-0.9822,-0.9822,-0.9822,-0.9822,-0.9836,-0.9876,0.0,-1.0215,-1.0249,0.0,-1.0249,0.0,0.0,0.0,0.0,0.0,0.0,-1.0609,-1.0711,-1.0717,0.0,-1.0717,-1.0717,-1.0717,-0.9377,-0.5897,-0.5496,-0.3957,-0.0471,-0.0067,0.0,0.0,0.0,0.0,0.0,0.0,0.0,0.0,0.0,0.0,0.0,0.0,0.0,0.0,0.0,0.0,0.0,0.0,0.0,0.0,0.0,0.0,0.0,0.0,0.0,0.0,0.0,0.0,0.0,0.0,0.0,0.0,0.0,0.0,0.0,0.0,0.0,0.0,0.0,0.0,0.0,0.0,0.0,0.0,0.0,0.0,0.0,0.0,0.0,-1.1484,-1.1179,-1.1234,-1.1023,-1.0724,-1.0717,-1.0717,-1.0717,-1.0717,-1.0717,-1.0717,-1.0717,-1.0717,-1.0717,-1.0717,-1.067,-1.0568,-1.0365,-1.0222,-1.012,-0.9903,-0.9822,0.0,0.0,0.0,0.0,0.0,0.0,0.0,0.0,-0.9822,-0.9822,0.0,0.0,0.0,0.0,-0.9822,-0.9822,-0.9822,-0.989,-0.9923,-1.008,-1.0148,0.0,0.0,-1.0209,-1.0283,-1.0283,-1.0283,0.0,0.0,0.0,0.0,0.0,0.0,-1.0717,-1.0717,-1.0717,-1.0717,-1.0717,-0.9709,-0.8035,-0.5629,-0.4359,-0.2685,-0.0202,0.0,0.0,0.0,0.0,0.0,0.0,0.0,0.0,0.0,0.0,0.0,0.0,0.0,0.0,0.0,0.0,0.0,0.0,0.0,0.0,0.0,0.0,0.0,0.0,0.0,0.0,0.0,0.0,0.0,0.0,0.0,0.0,0.0,0.0,0.0,0.0,0.0,0.0,0.0,0.0,0.0,0.0,0.0,0.0,0.0,0.0,0.0,0.0,-1.1619,-1.1619,-1.1484,-1.1179,-1.1234,-1.1023,-1.0724,-1.0717,-1.0717,-1.0717,-1.0717,-1.0717,-1.0717,-1.0717,-1.0717,-1.0717,-1.067,-1.0588,-1.048,-1.029,-1.0148,-0.997,-0.9883,-0.9822,0.0,0.0,0.0,0.0,0.0,0.0,0.0,0.0,-0.9822,-0.9822,0.0,0.0,0.0,0.0,-0.9822,-0.9822,-0.9822,-0.9869,-1.0011,-1.0181,0.0,0.0,-1.0215,-1.0236,-1.029,-1.0337,-1.0385,0.0,0.0,0.0,0.0,0.0,-1.069,-1.0717,-1.0717,-1.0717,-1.0717,-1.0717,-0.9105,-0.7298,-0.5563,-0.3756,-0.1948,-0.0135,0.0,0.0,0.0,0.0,0.0,0.0,0.0,0.0,0.0,0.0,0.0,0.0,0.0,0.0,0.0,0.0,0.0,0.0,0.0,0.0,0.0,0.0,0.0,0.0,0.0,0.0,0.0,0.0,0.0,0.0,0.0,0.0,0.0,0.0,0.0,0.0,0.0,0.0,0.0,0.0,0.0,0.0,0.0,0.0,0.0,0.0,0.0,0.0,-1.1619,-1.1619,-1.1484,-1.1179,-1.1234,-1.1023,-1.0724,-1.0717,-1.0717,-1.0717,-1.0717,-1.0717,-1.0717,-1.0717,-1.0717,-1.0711,-1.0561,-1.0493,-1.0473,-1.0112,-0.9984,-0.997,-0.9883,-0.9822,-0.9822,0.0,0.0,0.0,0.0,0.0,0.0,0.0,-0.9822,-0.9822,0.0,0.0,0.0,0.0,-0.9822,-0.9822,-0.9822,-0.9876,-0.999,0.0,0.0,0.0,-1.0493,-1.0385,-1.0324,-1.046,0.0,-1.067,-1.0521,0.0,0.0,-1.0521,-1.0622,-1.0717,-1.0717,-1.0717,-1.0717,-1.0717,-0.9105,-0.7298,-0.5563,-0.3756,-0.1948,-0.0135,0.0,0.0,0.0,0.0,0.0,0.0,0.0,0.0,0.0,0.0,0.0,0.0,0.0,0.0,0.0,0.0,0.0,0.0,0.0,0.0,0.0,0.0,0.0,0.0,0.0,0.0,0.0,0.0,0.0,0.0,0.0,0.0,0.0,0.0,0.0,0.0,0.0,0.0,0.0,0.0,0.0,0.0,0.0,0.0,0.0,0.0,0.0,0.0,-1.1619,-1.1619,-1.1484,-1.1179,-1.1234,-1.1023,-1.0724,-1.0717,-1.0717,-1.0717,-1.0717,-1.0717,-1.0717,-1.0717,-1.0717,-1.0711,-1.0561,-1.0439,-1.0331,-1.0071,-0.9923,-0.9883,-0.9836,-0.9822,-0.9822,0.0,0.0,0.0,0.0,0.0,0.0,0.0,0.0,0.0,0.0,0.0,0.0,0.0,-0.9897,-0.9916,-0.9916,-1.0168,0.0,-1.0358,0.0,0.0,0.0,-1.046,0.0,0.0,-1.0541,-1.067,-1.0521,0.0,0.0,-1.0663,-1.069,-1.0717,-1.0717,-1.0717,-1.0717,-1.0717,-0.8035,-0.5964,-0.5429,-0.2618,-0.0606,-0.0067,0.0,0.0,0.0,0.0,0.0,0.0,0.0,0.0,0.0,0.0,0.0,0.0,0.0,0.0,0.0,0.0,0.0,0.0,0.0,0.0,0.0,0.0,0.0,0.0,0.0,0.0,0.0,0.0,0.0,0.0,0.0,0.0,0.0,0.0,0.0,0.0,0.0,0.0,0.0,0.0,-1.1619,-1.1619,0.0,0.0,0.0,0.0,0.0,0.0,0.0,0.0,-1.1416,-1.1241,-1.1104,-1.0968,-1.0724,-1.0717,-1.0717,-1.0717,-1.0717,-1.0717,-1.0717,-1.0717,-1.0717,-1.0711,-1.05,-1.0358,-1.0263,-1.0053,-0.9842,-0.9822,-0.9822,-0.9822,-0.9822,0.0,0.0,0.0,0.0,0.0,0.0,0.0,0.0,0.0,0.0,0.0,0.0,-0.9822,-0.9869,-0.9984,-0.9984,-1.0263,0.0,-1.0493,-1.0534,-1.0568,-1.0507,0.0,0.0,0.0,0.0,-1.069,-1.0602,-1.0656,0.0,-1.0717,-1.0717,-1.0717,-1.0717,-1.0717,-1.0717,-1.0717,-0.7569,-0.5429,-0.5429,-0.2148,0.0,0.0,0.0,0.0,0.0,0.0,0.0,0.0,0.0,0.0,0.0,0.0,0.0,0.0,0.0,0.0,0.0,0.0,0.0,0.0,0.0,0.0,0.0,0.0,0.0,0.0,0.0,0.0,0.0,0.0,0.0,0.0,0.0,0.0,0.0,0.0,0.0,0.0,0.0,0.0,0.0,0.0,-1.1619,-1.1619,0.0,0.0,0.0,0.0,0.0,0.0,0.0,0.0,-1.1321,-1.1241,-1.1009,-1.0793,-1.0724,-1.0717,-1.0717,-1.0717,-1.0717,-1.0717,-1.0717,-1.0717,-1.0711,-1.0683,-1.0405,-1.0276,-1.0243,-0.9944,-0.9822,-0.9822,-0.9822,-0.9822,-0.9822,-0.9822,0.0,0.0,0.0,0.0,0.0,0.0,0.0,0.0,0.0,0.0,-0.9822,-0.9822,-0.9869,-0.999,-1.0004,0.0,0.0,-1.0507,-1.0616,0.0,-1.0548,-1.0514,-1.0507,-1.048,0.0,-1.0717,-1.0704,-1.0711,-1.0717,-1.0717,-1.0717,-1.0717,-1.0717,-1.0717,-1.0717,-1.0717,-0.7569,-0.5429,-0.5429,-0.2148,0.0,0.0,0.0,0.0,0.0,0.0,0.0,0.0,0.0,0.0,0.0,0.0,0.0,0.0,0.0,0.0,0.0,0.0,0.0,0.0,0.0,0.0,0.0,0.0,0.0,0.0,0.0,0.0,0.0,0.0,0.0,0.0,0.0,0.0,0.0,0.0,0.0,0.0,0.0,0.0,0.0,0.0,0.0,0.0,0.0,0.0,0.0,0.0,0.0,0.0,0.0,0.0,-1.1321,-1.1241,-1.0907,-1.0751,-1.0717,-1.0717,-1.0717,-1.0717,-1.0717,-1.0717,-1.0717,-1.0717,-1.0656,-1.0534,-1.0358,-1.0215,-1.0024,-0.9903,-0.9822,-0.9822,-0.9822,-0.9822,-0.9822,-0.9822,-0.9822,0.0,0.0,0.0,0.0,0.0,0.0,0.0,-0.9822,-0.9822,-0.9822,-0.9822,-0.9869,-1.0011,0.0,-1.0358,0.0,0.0,-1.0697,-1.0711,-1.0677,-1.067,-1.0609,-1.0371,-1.0534,-1.0683,-1.0561,-1.0636,-1.0717,-1.0717,-1.0717,-1.0717,-1.0717,-1.0717,-1.0717,-1.0717,-0.7569,-0.5429,-0.5429,-0.2148,0.0,0.0,0.0,0.0,0.0,0.0,0.0,0.0,0.0,0.0,0.0,0.0,0.0,0.0,0.0,0.0,0.0,0.0,0.0,0.0,0.0,0.0,0.0,0.0,0.0,0.0,0.0,0.0,0.0,0.0,0.0,0.0,0.0,0.0,0.0,0.0,0.0,0.0,0.0,0.0,0.0,0.0,0.0,0.0,0.0,0.0,0.0,0.0,-1.1619,0.0,0.0,0.0,-1.1185,-1.0962,-1.0806,-1.0717,-1.0717,-1.0717,-1.0717,-1.0717,-1.0717,-1.0717,-1.0717,-1.0717,-1.0636,-1.0487,-1.0344,-1.0195,-0.9977,-0.9883,-0.9822,-0.9822,-0.9822,-0.9822,-0.9822,-0.9822,-0.9822,-0.9822,-0.9822,0.0,0.0,0.0,0.0,0.0,0.0,0.0,-0.9822,-0.9822,-0.9869,-1.0017,0.0,0.0,0.0,0.0,0.0,0.0,-1.0717,-1.0717,-1.0677,-1.0521,-1.0616,-1.0697,-1.0616,-1.0663,-1.0717,-1.0717,-1.0717,-1.0717,-1.0717,-1.0717,-1.0717,-1.0717,-0.7569,-0.5429,-0.5429,-0.2148,0.0,0.0,0.0,0.0,0.0,0.0,0.0,0.0,0.0,0.0,0.0,0.0,0.0,0.0,0.0,0.0,0.0,0.0,0.0,0.0,0.0,0.0,0.0,0.0,0.0,0.0,0.0,0.0,0.0,0.0,0.0,0.0,0.0,0.0,0.0,0.0,0.0,0.0,0.0,0.0,0.0,0.0,0.0,0.0,0.0,0.0,-1.1619,0.0,0.0,0.0,0.0,-1.1226,-1.1002,-1.0731,-1.0717,-1.0717,-1.0717,-1.0717,-1.0717,-1.0717,-1.0717,-1.0717,-1.0717,-1.0717,-1.0622,-1.0453,-1.0331,-1.0181,-0.9936,-0.9876,-0.9822,-0.9822,-0.9822,-0.9822,-0.9822,-0.9822,-0.9822,-0.9822,-0.9822,-0.9822,-0.9822,-0.9822,0.0,0.0,0.0,0.0,-0.9822,-0.9822,-0.9849,-0.9984,0.0,0.0,0.0,0.0,0.0,0.0,0.0,0.0,0.0,-1.0717,-1.0717,-1.0717,-1.0717,-1.0717,-1.0717,-1.0717,-1.0717,-1.0717,-1.0717,-1.0717,-1.0717,-1.0717,-0.7569,-0.5429,-0.5429,-0.2148,0.0,0.0,0.0,0.0,0.0,0.0,0.0,0.0,0.0,0.0,0.0,0.0,0.0,0.0,0.0,0.0,0.0,0.0,0.0,0.0,0.0,0.0,0.0,0.0,0.0,0.0,0.0,0.0,0.0,0.0,0.0,0.0,0.0,0.0,0.0,0.0,0.0,0.0,0.0,0.0,0.0,0.0,-1.1619,-1.1619,0.0,0.0,0.0,-1.1619,-1.1497,0.0,-1.1396,0.0,0.0,-1.0724,-1.0717,-1.0717,-1.0717,-1.0717,-1.0717,-1.0717,-1.0717,-1.0717,0.0,-1.0717,-1.0575,-1.031,-1.029,-1.012,-0.9849,-0.9829,-0.9822,-0.9822,-0.9822,-0.9822,-0.9822,-0.9822,-0.9822,-0.9822,-0.9822,-0.9822,-0.9822,-0.9822,-0.9822,0.0,0.0,0.0,-0.9822,-0.9822,-0.9836,-0.9883,0.0,0.0,0.0,0.0,0.0,0.0,0.0,0.0,0.0,0.0,0.0,-1.0717,-1.0717,-1.0717,-1.0717,-1.0717,-1.0717,-1.0717,-1.0717,-1.0717,-1.0717,-1.0717,-0.7569,-0.5429,-0.5429,-0.2148,0.0,0.0,0.0,0.0,0.0,0.0,0.0,0.0,0.0,0.0,0.0,0.0,0.0,0.0,0.0,0.0,0.0,0.0,0.0,0.0,0.0,0.0,0.0,0.0,0.0,0.0,0.0,0.0,0.0,0.0,0.0,0.0,0.0,0.0,0.0,0.0,0.0,0.0,0.0,0.0,0.0,0.0,0.0,-1.1619,0.0,0.0,0.0,0.0,0.0,0.0,-1.1151,-1.0941,0.0,0.0,-1.0717,-1.0717,-1.0717,-1.0717,-1.0717,-1.0717,0.0,0.0,0.0,-1.0629,-1.048,0.0,-1.0188,-1.0025,-0.9822,-0.9822,-0.9822,-0.9822,-0.9822,-0.9822,-0.9822,-0.9822,-0.9822,-0.9822,-0.9822,-0.9822,-0.9822,-0.9822,-0.9822,-0.9822,-0.9822,0.0,0.0,0.0,-0.9822,0.0,-0.9943,0.0,0.0,0.0,0.0,0.0,0.0,0.0,0.0,0.0,0.0,0.0,-1.0717,-1.0717,-1.0717,-1.0717,-1.0717,-1.0717,-1.0717,-1.0717,-1.0717,-1.0717,-0.7569,-0.5429,-0.5429,-0.2148,0.0,0.0,0.0,0.0,0.0,0.0,0.0,0.0,0.0,0.0,0.0,0.0,0.0,0.0,0.0,0.0,0.0,0.0,0.0,0.0,0.0,0.0,0.0,0.0,0.0,0.0,0.0,0.0,0.0,0.0,0.0,0.0,0.0,0.0,0.0,0.0,0.0,0.0,0.0,0.0,0.0,0.0,0.0,0.0,0.0,0.0,0.0,0.0,0.0,0.0,-1.084,0.0,0.0,0.0,0.0,-1.0717,-1.0717,-1.0717,-1.0717,-1.0717,0.0,0.0,-1.0717,-1.0527,-1.0378,0.0,-1.012,-0.9903,-0.9822,-0.9822,-0.9822,-0.9822,-0.9822,-0.9822,-0.9822,-0.9822,-0.9822,-0.9822,-0.9822,-0.9822,-0.9822,-0.9822,-0.9822,-0.9822,-0.9822,-0.9822,0.0,0.0,0.0,0.0,0.0,0.0,0.0,0.0,0.0,0.0,0.0,0.0,0.0,0.0,0.0,0.0,0.0,-1.0717,-1.0717,-1.0717,-1.0717,-1.0717,-1.0717,-1.0717,-1.0717,-1.0717,-0.7569,-0.5429,-0.5429,-0.2148,0.0,0.0,0.0,0.0,0.0,0.0,0.0,0.0,0.0,0.0,0.0,0.0,0.0,0.0,0.0,0.0,0.0,0.0,0.0,0.0,0.0,0.0,0.0,0.0,0.0,0.0,0.0,0.0,0.0,0.0,0.0,0.0,0.0,0.0,0.0,0.0,0.0,0.0,0.0,0.0,0.0,0.0,0.0,0.0,-1.1416,-1.1402,-1.1341,-1.1185,0.0,0.0,0.0,0.0,0.0,0.0,0.0,0.0,-1.0717,-1.0717,0.0,0.0,0.0,0.0,-1.0711,-1.0426,-1.029,-1.0276,-1.012,-0.9903,-0.9822,0.0,0.0,-0.9822,-0.9822,-0.9822,-0.9822,-0.9822,-0.9822,-0.9822,-0.9822,-0.9822,-0.9822,-0.9822,-0.9822,-0.9822,-0.9822,-0.9822,0.0,0.0,0.0,0.0,0.0,0.0,0.0,0.0,0.0,0.0,0.0,0.0,0.0,0.0,0.0,0.0,0.0,0.0,-1.0717,-1.0717,-1.0717,-1.0717,-1.0717,-1.0717,-1.0717,-1.0717,-0.7569,-0.5429,-0.5429,-0.2148,0.0,0.0,0.0,0.0,0.0,0.0,0.0,0.0,0.0,0.0,0.0,0.0,0.0,0.0,0.0,0.0,0.0,0.0,0.0,0.0,0.0,0.0,0.0,0.0,0.0,0.0,0.0,0.0,0.0,0.0,0.0,0.0,0.0,0.0,0.0,0.0,0.0,0.0,0.0,0.0,0.0,0.0,0.0,0.0,0.0,-0.7837,-0.8243,-0.924,-1.0206,0.0,0.0,0.0,0.0,0.0,0.0,0.0,0.0,0.0,0.0,0.0,0.0,-1.067,-1.0568,-1.0371,-1.0229,-1.0127,-0.9971,-0.9869,-0.9822,-0.9822,0.0,-0.9822,-0.9822,-0.9822,-0.9822,0.0,0.0,-0.9836,-0.9869,-0.9903,-0.9923,-1.008,0.0,0.0,0.0,0.0,0.0,0.0,0.0,0.0,0.0,0.0,0.0,0.0,0.0,0.0,0.0,0.0,0.0,0.0,0.0,0.0,0.0,0.0,0.0,-1.0717,-1.0717,-1.0717,-1.0717,-1.0717,-1.0246,-0.9105,-0.6831,-0.4961,-0.3756,-0.1411,0.0,0.0,0.0,0.0,0.0,0.0,0.0,0.0,0.0,0.0,0.0,0.0,0.0,0.0,0.0,0.0,0.0,0.0,0.0,0.0,0.0,0.0,0.0,0.0,0.0,0.0,0.0,0.0,0.0,0.0,0.0,0.0,0.0,0.0,0.0,0.0,0.0,0.0,0.0,0.0,0.0,0.0,0.0,0.0,0.0,0.0,-0.6134,-0.7206,-0.8282,-0.9178,-0.9775,-0.9775,0.0,0.0,0.0,0.0,0.0,0.0,0.0,0.0,0.0,0.0,0.0,-1.0344,-1.0195,-0.9977,-0.989,-0.9822,0.0,0.0,0.0,-0.9822,-0.9822,-0.9822,-0.9829,0.0,0.0,0.0,0.0,0.0,0.0,0.0,0.0,0.0,0.0,0.0,0.0,0.0,0.0,0.0,-0.9822,0.0,0.0,0.0,0.0,0.0,0.0,0.0,0.0,0.0,0.0,0.0,0.0,0.0,0.0,0.0,-1.0717,-1.0717,-1.0717,-1.0717,-1.0047,-0.823,-0.6431,-0.4693,-0.2887,-0.1076,0.0,0.0,0.0,0.0,0.0,0.0,0.0,0.0,0.0,0.0,0.0,0.0,0.0,0.0,0.0,0.0,0.0,0.0,0.0,0.0,0.0,0.0,0.0,0.0,0.0,0.0,0.0,0.0,0.0,0.0,0.0,0.0,0.0,0.0,0.0,0.0,0.0,0.0,0.0,0.0,0.0,-0.5631,0.0,0.0,0.0,0.0,0.0,-0.5302,-0.5362,-0.6164,-0.7897,-0.803,0.0,0.0,0.0,0.0,0.0,0.0,0.0,0.0,0.0,0.0,0.0,0.0,-1.0188,-0.997,-0.989,-0.9822,-0.9822,0.0,-0.9822,-0.9822,0.0,-0.9829,-0.9842,0.0,0.0,0.0,-1.0229,-1.029,0.0,-1.029,0.0,0.0,0.0,0.0,0.0,0.0,0.0,0.0,0.0,0.0,0.0,0.0,0.0,0.0,-0.8182,0.0,0.0,0.0,0.0,0.0,0.0,0.0,0.0,0.0,0.0,-1.0717,-1.0717,-1.0651,-0.9981,-0.8163,-0.6364,-0.4626,-0.2819,-0.1009,0.0,0.0,0.0,0.0,0.0,0.0,0.0,0.0,0.0,0.0,0.0,0.0,0.0,0.0,0.0,0.0,0.0,0.0,0.0,0.0,0.0,0.0,0.0,0.0,0.0,0.0,0.0,0.0,0.0,0.0,0.0,0.0,0.0,0.0,0.0,0.0,0.0,0.0,0.0,0.0,-0.1573,0.0,0.0,0.0,-0.1579,-0.2716,-0.3503,-0.3423,-0.4626,-0.6164,-0.7897,-0.803,-0.8834,-1.0651,0.0,0.0,0.0,0.0,0.0,0.0,0.0,0.0,0.0,0.0,0.0,0.0,-0.9842,-0.9822,-0.9822,-0.9822,0.0,-0.9829,-0.9883,-0.9923,0.0,0.0,0.0,0.0,0.0,-1.0432,-1.0453,0.0,-1.0426,-1.0175,0.0,0.0,0.0,0.0,0.0,0.0,-0.9822,0.0,0.0,0.0,0.0,0.0,-0.9443,-0.9381,-0.8955,0.0,0.0,0.0,0.0,0.0,0.0,0.0,0.0,0.0,-1.0717,-0.9576,-0.8102,-0.6297,-0.4559,-0.2752,-0.0941,-0.0269,0.0,0.0,0.0,0.0,0.0,0.0,0.0,0.0,0.0,0.0,0.0,0.0,0.0,0.0,0.0,0.0,0.0,0.0,0.0,0.0,0.0,0.0,0.0,0.0,0.0,0.0,0.0,0.0,0.0,0.0,0.0,0.0,0.0,0.0,0.0,0.0,0.0,0.0,0.0,0.0,0.0,0.0,0.0,0.0,0.0,-0.0946,-0.1545,-0.1545,-0.2551,-0.389,-0.5693,-0.5759,-0.6631,-0.844,0.0,0.0,0.0,0.0,0.0,0.0,0.0,0.0,0.0,0.0,0.0,0.0,-0.9822,-0.9822,0.0,0.0,0.0,0.0,-0.9883,0.0,0.0,-1.0222,-1.0283,0.0,0.0,0.0,-1.0602,-1.069,-1.0561,0.0,0.0,0.0,0.0,0.0,0.0,0.0,0.0,0.0,0.0,0.0,0.0,0.0,-0.8195,-0.7873,-0.7268,0.0,0.0,0.0,0.0,0.0,0.0,0.0,0.0,0.0,-0.8501,-0.7569,-0.6231,-0.4492,-0.3354,-0.2016,-0.0202,0.0,0.0,0.0,0.0,0.0,0.0,0.0,0.0,0.0,0.0,0.0,0.0,0.0,0.0,0.0,0.0,0.0,0.0,0.0,0.0,0.0,0.0,0.0,0.0,0.0,0.0,0.0,0.0,0.0,0.0,0.0,0.0,0.0,0.0,0.0,0.0,0.0,0.0,0.0,0.0,0.0,0.0,0.0,0.0,0.0,0.0,0.0,0.0,0.0,0.0,-0.074,-0.2551,-0.2685,0.0,0.0,0.0,0.0,0.0,0.0,0.0,0.0,0.0,0.0,0.0,0.0,0.0,0.0,-0.9822,-0.9822,-0.9822,0.0,0.0,-0.9977,-0.9917,-0.9964,0.0,0.0,-1.0331,-1.0365,-1.0629,-1.0717,-1.0717,-1.0683,-1.0595,0.0,0.0,0.0,0.0,0.0,-0.9836,0.0,0.0,0.0,0.0,0.0,-0.9822,0.0,-0.6154,-0.5466,-0.4533,-0.1221,0.0,0.0,0.0,0.0,0.0,0.0,0.0,0.0,0.0,-0.5228,-0.4492,-0.2887,-0.2551,-0.1747,-0.0135,0.0,0.0,0.0,0.0,0.0,0.0,0.0,0.0,0.0,0.0,0.0,0.0,0.0,0.0,0.0,0.0,0.0,0.0,0.0,0.0,0.0,0.0,0.0,0.0,0.0,0.0,0.0,0.0,0.0,0.0,0.0,0.0,0.0,0.0,0.0,0.0,0.0,0.0,0.0,0.0,0.0,0.0,0.0,0.0,0.0,0.0,0.0,0.0,0.0,0.0,-0.074,-0.2551,-0.2685,0.0,0.0,0.0,0.0,0.0,0.0,0.0,0.0,0.0,0.0,0.0,0.0,0.0,0.0,-0.9822,-0.9822,-0.9822,0.0,0.0,-0.9997,-1.0154,0.0,-1.0426,-1.0575,-1.0636,-1.0643,-1.0697,-1.0717,-1.0683,-1.0446,-1.0426,-1.0432,0.0,0.0,0.0,-0.995,0.0,0.0,0.0,0.0,0.0,0.0,-0.9822,0.0,-0.91,-0.8934,-0.7948,0.0,0.0,0.0,0.0,0.0,0.0,0.0,0.0,0.0,0.0,0.0,-0.3088,-0.2752,-0.1411,-0.0404,-0.0067,0.0,0.0,0.0,0.0,0.0,0.0,0.0,0.0,0.0,0.0,0.0,0.0,0.0,0.0,0.0,0.0,0.0,0.0,0.0,0.0,0.0,0.0,0.0,0.0,0.0,0.0,0.0,0.0,0.0,0.0,0.0,0.0,0.0,0.0,0.0,0.0,0.0,0.0,0.0,0.0,0.0,0.0,0.0,0.0,0.0,0.0,0.0,0.0,0.0,0.0,-0.0398,-0.1317,0.0,0.0,0.0,0.0,0.0,0.0,0.0,0.0,0.0,0.0,0.0,0.0,0.0,0.0,0.0,0.0,0.0,0.0,0.0,-1.0025,-1.0168,-1.0168,0.0,-1.0399,-1.0548,-1.0609,-1.0616,-1.069,-1.0717,-1.0683,-1.046,-1.0432,0.0,-1.0236,-1.0051,-0.9984,0.0,-0.9876,-0.9822,0.0,0.0,0.0,-0.8836,-0.8587,0.0,0.0,-0.6236,-0.5502,-0.304,0.0,0.0,0.0,0.0,0.0,0.0,0.0,0.0,0.0,0.0,0.0,-0.1344,-0.0538,0.0,0.0,0.0,0.0,0.0,0.0,0.0,0.0,0.0,0.0,0.0,0.0,0.0,0.0,0.0,0.0,0.0,0.0,0.0,0.0,0.0,0.0,0.0,0.0,0.0,0.0,0.0,0.0,0.0,0.0,0.0,0.0,0.0,0.0,0.0,0.0,0.0,0.0,0.0,0.0,0.0,0.0,0.0,0.0,0.0,0.0,0.0,0.0,0.0,0.0,0.0,0.0,0.0,0.0,0.0,0.0,0.0,0.0,-0.2178,0.0,0.0,0.0,0.0,0.0,0.0,0.0,0.0,0.0,0.0,0.0,0.0,0.0,0.0,0.0,-0.9303,0.0,-0.9893,-1.0337,-1.048,-1.0319,-0.9987,-1.0128,-1.0386,-1.0697,-1.0541,-1.0312,-1.0045,-1.0267,-0.9936,0.0,0.0,0.0,0.0,0.0,0.0,0.0,0.0,0.0,-0.6198,0.0,0.0,0.0,0.0,0.0,0.0,0.0,0.0,0.0,0.0,0.0,0.0,0.0,0.0,0.0,0.0,0.0,0.0,0.0,0.0,0.0,0.0,0.0,0.0,0.0,0.0,0.0,0.0,0.0,0.0,0.0,0.0,0.0,0.0,0.0,0.0,0.0,0.0,0.0,0.0,0.0,0.0,0.0,0.0,0.0,0.0,0.0,0.0,0.0,0.0,0.0,0.0,0.0,0.0,0.0,0.0,0.0,0.0,0.0,0.0,0.0,0.0,0.0,0.0,0.0,0.0,0.0,0.0,0.0,0.0,0.0,0.0,0.0,0.0,0.0,0.0,-0.0316,0.0,0.0,0.0,0.0,0.0,0.0,0.0,-0.6263,-0.7667,-0.7667,0.0,0.0,0.0,-0.6836,0.0,-0.7343,-0.9016,0.0,-1.0636,-0.9617,-0.8149,-0.826,-0.9305,-1.0697,0.0,-0.9514,-0.8508,0.0,-0.917,-0.7854,-0.7874,0.0,0.0,0.0,0.0,0.0,0.0,-0.5161,0.0,0.0,0.0,-0.4183,-0.2529,0.0,0.0,0.0,0.0,0.0,0.0,0.0,0.0,0.0,0.0,0.0,0.0,0.0,0.0,0.0,0.0,0.0,0.0,0.0,0.0,0.0,0.0,0.0,0.0,0.0,0.0,0.0,0.0,0.0,0.0,0.0,0.0,0.0,0.0,0.0,0.0,0.0,0.0,0.0,0.0,0.0,0.0,0.0,0.0,0.0,0.0,0.0,0.0,0.0,0.0,0.0,0.0,0.0,0.0,0.0,0.0,0.0,0.0,0.0,0.0,0.0,0.0,0.0,0.0,0.0,0.0,0.0,0.0,0.0,0.0,0.0,0.0,0.0,0.0,0.0,0.0,-0.2708,0.0,0.0,0.0,-0.5284,-0.5957,-0.5945,0.0,-0.5968,0.0,-0.5661,0.0,0.0,0.0,0.0,-0.8695,-0.8005,-0.6448,-0.6485,-0.6965,-0.7626,0.0,-0.7026,0.0,0.0,0.0,0.0,-0.61,0.0,0.0,0.0,0.0,0.0,0.0,0.0,0.0,-0.2282,0.0,-0.1848,0.0,0.0,0.0,0.0,0.0,0.0,0.0,-0.0434,0.0,0.0,0.0,0.0,0.0,0.0,0.0,0.0,0.0,0.0,0.0,0.0,0.0,0.0,0.0,0.0,0.0,0.0,0.0,0.0,0.0,0.0,0.0,0.0,0.0,0.0,0.0,0.0,0.0,0.0,0.0,0.0,0.0,0.0,0.0,0.0,0.0,0.0,0.0,0.0,0.0,0.0,0.0,0.0,0.0,0.0,0.0,0.0,0.0,0.0,0.0,0.0,0.0,0.0,0.0,0.0,0.0,0.0,0.0,0.0,0.0,0.0,0.0,0.0,0.0,0.0,0.0,0.0,0.0,0.0,0.0,0.0,0.0,0.0,-0.4244,0.0,-0.4264,-0.4239,0.0,-0.4104,-0.3774,-0.4404,-0.4592,-0.4621,-0.5954,-0.6007,-0.5362,-0.4827,-0.4961,-0.5429,-0.5429,-0.4993,0.0,-0.5122,0.0,-0.4264,0.0,0.0,0.0,-0.3658,0.0,0.0,0.0,0.0,0.0,0.0,0.0,0.0,0.0,0.0,0.0,0.0,0.0,0.0,0.0,0.0,0.0,0.0,0.0,0.0,0.0,0.0,0.0,0.0,0.0,0.0,0.0,0.0,0.0,0.0,0.0,0.0,0.0,0.0,0.0,0.0,0.0,0.0,0.0,0.0,0.0,0.0,0.0,0.0,0.0,0.0,0.0,0.0,0.0,0.0,0.0,0.0,0.0,0.0,0.0,0.0,0.0,0.0,0.0,0.0,0.0,0.0,0.0,0.0,0.0,0.0,0.0,0.0,0.0,0.0,0.0,0.0,0.0,0.0,0.0,0.0,0.0,0.0,0.0,0.0,0.0,0.0,0.0,0.0,0.0,0.0,0.0,0.0,0.0,0.0,0.0,0.0,-0.2566,-0.2569,-0.2573,-0.1636,-0.0336,-0.208,-0.2749,-0.2744,0.0,-0.3777,-0.5162,-0.3423,0.0,0.0,-0.5429,-0.4225,0.0,0.0,0.0,0.0,0.0,0.0,0.0,0.0,0.0,0.0,-0.0064,0.0,0.0,0.0,0.0,0.0,0.0,0.0,0.0,0.0,0.0,0.0,0.0,0.0,0.0,0.0,0.0,0.0,0.0,0.0,0.0,0.0,0.0,0.0,0.0,0.0,0.0,0.0,0.0,0.0,0.0,0.0,0.0,0.0,0.0,0.0,0.0,0.0,0.0,0.0,0.0,0.0,0.0,0.0,0.0,0.0,0.0,0.0,0.0,0.0,0.0,0.0,0.0,0.0,0.0,0.0,0.0,0.0,0.0,0.0,0.0,0.0,0.0,0.0,0.0,0.0,0.0,0.0,0.0,0.0,0.0,0.0,0.0,0.0,0.0,0.0,0.0,0.0,0.0,0.0,0.0,0.0,0.0,0.0,0.0,0.0,0.0,0.0,0.0,0.0,-0.0823,0.0,0.0,0.0,0.0,0.0,-0.0923,-0.1049,0.0,-0.2274,-0.1747,-0.1143,-0.1277,0.0,-0.1814,-0.1411,-0.1007,-0.1537,-0.1326,-0.0855,-0.0851,-0.0844,-0.0711,0.0,0.0,0.0,0.0,0.0,0.0,0.0,0.0,0.0,0.0,0.0,0.0,0.0,0.0,0.0,0.0,0.0,0.0,0.0,0.0,0.0,0.0,0.0,0.0,0.0,0.0,0.0,0.0,0.0,0.0,0.0,0.0,0.0,0.0,0.0,0.0,0.0,0.0,0.0,0.0,0.0,0.0,0.0,0.0,0.0,0.0,0.0,0.0,0.0,0.0,0.0,0.0,0.0,0.0,0.0,0.0,0.0,0.0,0.0,0.0,0.0,0.0,0.0,0.0,0.0,0.0,0.0,0.0,0.0,0.0,0.0,0.0,0.0,0.0,0.0,0.0,0.0,0.0,0.0,0.0,0.0,0.0,0.0,0.0,0.0,0.0,0.0,0.0,0.0,0.0,0.0,0.0,0.0,0.0,0.0,0.0,0.0,0.0,0.0,0.0,0.0,0.0,-0.1001,0.0,0.0,0.0,0.0,0.0,0.0,0.0,0.0,0.0,0.0,0.0,0.0,0.0,0.0,0.0,0.0,0.0,0.0,0.0,0.0,0.0,0.0,0.0,0.0,0.0,0.0,0.0,0.0,0.0,0.0,0.0,0.0,0.0,0.0,0.0,0.0,0.0,0.0,0.0,0.0,0.0,0.0,0.0,0.0,0.0,0.0,0.0,0.0,0.0,0.0,0.0,0.0,0.0,0.0,0.0,0.0,0.0,0.0,0.0,0.0,0.0,0.0,0.0,0.0,0.0,0.0,0.0,0.0,0.0,0.0,0.0,0.0,0.0,0.0,0.0,0.0,0.0,0.0,0.0,0.0,0.0,0.0,0.0,0.0,0.0,0.0,0.0,0.0,0.0,0.0,0.0,0.0,0.0,0.0,0.0,0.0,0.0,0.0,0.0,0.0,0.0,0.0,0.0,0.0,0.0,0.0,0.0,0.0,0.0,0.0,0.0,0.0,0.0,0.0,0.0,0.0,0.0,0.0,0.0,0.0,0.0,0.0,0.0,0.0,0.0,0.0,0.0,0.0,0.0,0.0,0.0,0.0,0.0,0.0,0.0,0.0,0.0,0.0,0.0,0.0,0.0,0.0,0.0,0.0,0.0,0.0,0.0,0.0,0.0,0.0,0.0,0.0,0.0,0.0,0.0,0.0,0.0,0.0,0.0,0.0,0.0,0.0,0.0,0.0,0.0,0.0,0.0,0.0,0.0,0.0,0.0,0.0,0.0,0.0,0.0,0.0,0.0,0.0,0.0,0.0,0.0,0.0,0.0,0.0,0.0,0.0,0.0,0.0,0.0,0.0,0.0,0.0,0.0,0.0,0.0,0.0,0.0,0.0,0.0,0.0,0.0,0.0,0.0,0.0,0.0,0.0,0.0,0.0,0.0,0.0,0.0,0.0,0.0,0.0,0.0,0.0,0.0,0.0,0.0,0.0,0.0,0.0,0.0,0.0,0.0,0.0,0.0,0.0,0.0,0.0,0.0,0.0,0.0,0.0,0.0,0.0,0.0,0.0,0.0,0.0,0.0,0.0,0.0,0.0,0.0,0.0,0.0,0.0,0.0,0.0,0.0,0.0,0.0,0.0,0.0,0.0,0.0,0.0,0.0,0.0,0.0,0.0,0.0,0.0,0.0,0.0,0.0,0.0,0.0,0.0,0.0,0.0,0.0,0.0,0.0,0.0,0.0,0.0,0.0,0.0,0.0,0.0,0.0,0.0,0.0,0.0,0.0,0.0,0.0,0.0,0.0,0.0,0.0,0.0,0.0,0.0,0.0,0.0,0.0,0.0,0.0,0.0,0.0,0.0,0.0,0.0,0.0,0.0,0.0,0.0,0.0,0.0,0.0,0.0,0.0,0.0,0.0,0.0,0.0,0.0,0.0,0.0,0.0,0.0,0.0,0.0,0.0,0.0,0.0,0.0,0.0,0.0,0.0,0.0,0.0,0.0,0.0,0.0,0.0,0.0,0.0,0.0,0.0,0.0,0.0,0.0,0.0,0.0,0.0,0.0,0.0,0.0,0.0,0.0,0.0,0.0,0.0,0.0,0.0,0.0,0.0,0.0,0.0,0.0,0.0,0.0,0.0,0.0,0.0,0.0,0.0,0.0,0.0,0.0,0.0,0.0,0.0,0.0,0.0,0.0,0.0,0.0,0.0,0.0,0.0,0.0,0.0,0.0,0.0,0.0,0.0,0.0,0.0,0.0,0.0,0.0,0.0,0.0,0.0,0.0,0.0,0.0,0.0,0.0,0.0,0.0,0.0,0.0,0.0,0.0,0.0,0.0,0.0,0.0,0.0,0.0,0.0,0.0,0.0,0.0,0.0,0.0,0.0,0.0,0.0,0.0,0.0,0.0,0.0,0.0,0.0,0.0,0.0,0.0,0.0,0.0,0.0,0.0,0.0,0.0,0.0,0.0,0.0,0.0,0.0,0.0,0.0,0.0,0.0,0.0,0.0,0.0,0.0,0.0,0.0,0.0,0.0,0.0,0.0,0.0,0.0,0.0,0.0,0.0,0.0,0.0,0.0,0.0,0.0,0.0,0.0,0.0,0.0,0.0,0.0,0.0,0.0,0.0,0.0,0.0,0.0,0.0,0.0,0.0,0.0,0.0,0.0,0.0,0.0,0.0,0.0,0.0,0.0,0.0,0.0,0.0,0.0,0.0,0.0,0.0,0.0,0.0,0.0,0.0,0.0,0.0,0.0,0.0,0.0,0.0,0.0,0.0,0.0,0.0,0.0,0.0,0.0,0.0,0.0,0.0,0.0,0.0,0.0,0.0,0.0,0.0,0.0,0.0,0.0,0.0,0.0,0.0,0.0,0.0,0.0,0.0,0.0,0.0,0.0,0.0,0.0,0.0,0.0,0.0,0.0,0.0,0.0,0.0,0.0,0.0,0.0,0.0,0.0,0.0,0.0,0.0,0.0,0.0,0.0,0.0,0.0,0.0,0.0,0.0,0.0,0.0,0.0,0.0,0.0,0.0,0.0,0.0,0.0,0.0,0.0,0.0,0.0,0.0,0.0,0.0,0.0,0.0,0.0,0.0,0.0,0.0,0.0,0.0,0.0,0.0,0.0,0.0,0.0,0.0,0.0,0.0,0.0,0.0,0.0,0.0,0.0,0.0,0.0,0.0,0.0,0.0,0.0,0.0,0.0,0.0,0.0,0.0,0.0,0.0,0.0,0.0,0.0,0.0,0.0,0.0,0.0,0.0,0.0,0.0,0.0,0.0,0.0,0.0,0.0,0.0,0.0,0.0,0.0,0.0,0.0,0.0,0.0,0.0,0.0,0.0,0.0,0.0,0.0,0.0,0.0,0.0,0.0,0.0,0.0,0.0,0.0,0.0,0.0,0.0,0.0,0.0,0.0,0.0,0.0,0.0,0.0,0.0,0.0,0.0,0.0,0.0,0.0,0.0,0.0,0.0,0.0,0.0,0.0,0.0,0.0,0.0,0.0,0.0,0.0,0.0,0.0,0.0,0.0,0.0,0.0,0.0,0.0,0.0,0.0,0.0,0.0,0.0,0.0,0.0,0.0,0.0,0.0,0.0,0.0,0.0,0.0,0.0,0.0,0.0,0.0,0.0,0.0,0.0,0.0,0.0,0.0,0.0,0.0,0.0,0.0,0.0,0.0,0.0,0.0,0.0,0.0,0.0,0.0,0.0,0.0,0.0,0.0,0.0,0.0,0.0,0.0,0.0,0.0,0.0,0.0,0.0,0.0,0.0,0.0,0.0,0.0,0.0,0.0,0.0,0.0,0.0,0.0,0.0,0.0,0.0,0.0,0.0,0.0,0.0,0.0,0.0,0.0,0.0,0.0,0.0,0.0,0.0,0.0,0.0,0.0,0.0,0.0,0.0,0.0,0.0,0.0,0.0,0.0,0.0,0.0,0.0,0.0,0.0,0.0,0.0,0.0,0.0,0.0,0.0,0.0,0.0,0.0,0.0,0.0,0.0,0.0,0.0,0.0,0.0,0.0,0.0,0.0,0.0,0.0,0.0,0.0,0.0,0.0,0.0,0.0,0.0,0.0,0.0,0.0,0.0,0.0,0.0,0.0,0.0,0.0,0.0,0.0,0.0,0.0,0.0,0.0,0.0,0.0,0.0,0.0,0.0,0.0,0.0,0.0,0.0,0.0,0.0,0.0,0.0,0.0,0.0,0.0,0.0,0.0,0.0,0.0,0.0,0.0,0.0,0.0,0.0,0.0,0.0,0.0,0.0,0.0,0.0,0.0,0.0,0.0,0.0,0.0,0.0,0.0,0.0,0.0,0.0,0.0,0.0,0.0,0.0,0.0,0.0,0.0,0.0,0.0,0.0,0.0,0.0,0.0,0.0,0.0,0.0,0.0,0.0,0.0,0.0,0.0,0.0,0.0,0.0,0.0,0.0,0.0,0.0,0.0,0.0,0.0,0.0,0.0,0.0,0.0,0.0,0.0,0.0,0.0,0.0,0.0,0.0,0.0,0.0,0.0,0.0,0.0,0.0,0.0,0.0,0.0,0.0,0.0,0.0,0.0,0.0,0.0,0.0,0.0,0.0,0.0,0.0,0.0,0.0,0.0,0.0,0.0,0.0,0.0,0.0,0.0,0.0,0.0,0.0,0.0,0.0,0.0,0.0,0.0,0.0,0.0,0.0,0.0,0.0,0.0,0.0,0.0,0.0,0.0,0.0,0.0,0.0,0.0,0.0,0.0,0.0,0.0,0.0,0.0,0.0,0.0,0.0,0.0,0.0,0.0,0.0,0.0,0.0,0.0,0.0,0.0,0.0,0.0,0.0,0.0,0.0,0.0,0.0,0.0,0.0,0.0,0.0,0.0,0.0,0.0,0.0,0.0,0.0,0.0,0.0,0.0,0.0,0.0,0.0,0.0,0.0,0.0,0.0,0.0,0.0,0.0,0.0,0.0,0.0,0.0,0.0,0.0,0.0,0.0,0.0,0.0,0.0,0.0,0.0,0.0,0.0,0.0,0.0,0.0,0.0,0.0,0.0,0.0,0.0,0.0,0.0,0.0,0.0,0.0,0.0,0.0,0.0,0.0,0.0,0.0,0.0,0.0,0.0,0.0,0.0,0.0,0.0,0.0,0.0,0.0,0.0,0.0,0.0,0.0,0.0,0.0,0.0,0.0,0.0,0.0,0.0,0.0,0.0,0.0,0.0,0.0,0.0,0.0,0.0,0.0,0.0,0.0,0.0,0.0,0.0,0.0,0.0,0.0,0.0,0.0,0.0,0.0,0.0,0.0,0.0,0.0,0.0,0.0,0.0,0.0,0.0,0.0,0.0,0.0,0.0,0.0,0.0,0.0,0.0,0.0,0.0,0.0,0.0,0.0,0.0,0.0,0.0,0.0,0.0,0.0,0.0,0.0,0.0,0.0,0.0,0.0,0.0,0.0,0.0,0.0,0.0,0.0,0.0,0.0,0.0,0.0,0.0,0.0,0.0,0.0,0.0,0.0,0.0,0.0,0.0,0.0,0.0,0.0,0.0,0.0,0.0,0.0,0.0,0.0,0.0,0.0,0.0,0.0,0.0,0.0,0.0,0.0,0.0,0.0,0.0,0.0,0.0,0.0,0.0,0.0,0.0,0.0,0.0,0.0,0.0,0.0,0.0,0.0,0.0,0.0,0.0,0.0,0.0,0.0,0.0,0.0,0.0,0.0,0.0,0.0,0.0,0.0,0.0,0.0,0.0,0.0,0.0,0.0,0.0,0.0,0.0,0.0,0.0,0.0,0.0,0.0,0.0,0.0,0.0,0.0,0.0,0.0,0.0,0.0,0.0,0.0,0.0,0.0,0.0,0.0,0.0,0.0,0.0,0.0,0.0,0.0,0.0,0.0,0.0,0.0,0.0,0.0,0.0,0.0,0.0,0.0,0.0,0.0,0.0,0.0,0.0,0.0,0.0,0.0,0.0,0.0,0.0,0.0,0.0,0.0,0.0,0.0,0.0,0.0,0.0,0.0,0.0,0.0,0.0,0.0,0.0,0.0,0.0,0.0,0.0,0.0,0.0,0.0,0.0,0.0,0.0,0.0,0.0,0.0,0.0,0.0,0.0,0.0,0.0,0.0,0.0,0.0,0.0,0.0,0.0,0.0,0.0,0.0,0.0,0.0,0.0,0.0,0.0,0.0,0.0,0.0,0.0,0.0,0.0,0.0,0.0,0.0,0.0,0.0,0.0,0.0,0.0,0.0,0.0,0.0,0.0,0.0,0.0,0.0,0.0,0.0,0.0,0.0,0.0,0.0,0.0,0.0,0.0,0.0,0.0,0.0,0.0,0.0,0.0,0.0,0.0,0.0,0.0,0.0,0.0,0.0,0.0,0.0,0.0,0.0,0.0,0.0,0.0,0.0,0.0,0.0,0.0,0.0,0.0,0.0,0.0,0.0,0.0,0.0,0.0,0.0,0.0,0.0,0.0,0.0,0.0,0.0,0.0,0.0,0.0,0.0,0.0,0.0,0.0,0.0,0.0,0.0,0.0,0.0,0.0,0.0,0.0,0.0,0.0,0.0,0.0,0.0,0.0,0.0,0.0,0.0,0.0,0.0,0.0,0.0,0.0,0.0,0.0,0.0,0.0,0.0,0.0,0.0,0.0,0.0,0.0,0.0,0.0,0.0,0.0,0.0,0.0,0.0,0.0,0.0,0.0,0.0,0.0,0.0,0.0,0.0,0.0,0.0,0.0,0.0,0.0,0.0,0.0,0.0,0.0,0.0,0.0,0.0,0.0,0.0,0.0,0.0,0.0,0.0,0.0,0.0,0.0,0.0,0.0,0.0,0.0,0.0,0.0,0.0,0.0,0.0,0.0,0.0,0.0,0.0,0.0,0.0,0.0,0.0,0.0,0.0,0.0,0.0,0.0,0.0,0.0,0.0,0.0,0.0,0.0,0.0,0.0,0.0,0.0,0.0,0.0,0.0,0.0,0.0,0.0,0.0,0.0,0.0,0.0,0.0,0.0,0.0,0.0,0.0,0.0,0.0,0.0,0.0,0.0,0.0,0.0,0.0,0.0,0.0,0.0,0.0,0.0,0.0,0.0,0.0,0.0,0.0,0.0,0.0,0.0,0.0,0.0,0.0,0.0,0.0,0.0,0.0,0.0,0.0,0.0,0.0,0.0,0.0,0.0,0.0,0.0,0.0,0.0,0.0,0.0,0.0,0.0,0.0,0.0,0.0,0.0,0.0,0.0,0.0,0.0,0.0,0.0,0.0,0.0,0.0,0.0,0.0,0.0,0.0,0.0,0.0,0.0,0.0,0.0,0.0,0.0,0.0,0.0,0.0,0.0,0.0,0.0,0.0,0.0,0.0,0.0,0.0,0.0,0.0,0.0,0.0,0.0,0.0,0.0,0.0,0.0,0.0,0.0,0.0,0.0,0.0,0.0,0.0,0.0,0.0,0.0,0.0,0.0,0.0,0.0,0.0,0.0,0.0,0.0,0.0,0.0,0.0,0.0,0.0,0.0,0.0,0.0,0.0,0.0,0.0,0.0,0.0,0.0,0.0,0.0,0.0,0.0,0.0,0.0,0.0,0.0,0.0,0.0,0.0,0.0,0.0,0.0,0.0,0.0,0.0,0.0,0.0,0.0,0.0,0.0,0.0,0.0,0.0,0.0,0.0,0.0,0.0,0.0,0.0,0.0,0.0,0.0,0.0,0.0,0.0,0.0,0.0,0.0,0.0,0.0,0.0,0.0,0.0,0.0,0.0,0.0,0.0,0.0,0.0,0.0,0.0,0.0,0.0,0.0,0.0,0.0,0.0,0.0,0.0,0.0,0.0,0.0,0.0,0.0,0.0,0.0,0.0,0.0,0.0,0.0,0.0,0.0,0.0,0.0,0.0,0.0,0.0,0.0,0.0,0.0,0.0,0.0,0.0,0.0,0.0,0.0,0.0,0.0,0.0,0.0,0.0,0.0,0.0,0.0,0.0,0.0,0.0,0.0,0.0,0.0,0.0,0.0,0.0,0.0,0.0,0.0,0.0,0.0,0.0,0.0,0.0,0.0,0.0,0.0,0.0,0.0,0.0,0.0,0.0,0.0,0.0,0.0,0.0,0.0,0.0,0.0,0.0,0.0,0.0,0.0,0.0,0.0,0.0,0.0,0.0,0.0,0.0,0.0,0.0,0.0,0.0,0.0,0.0,0.0,0.0,0.0,0.0,0.0,0.0,0.0,0.0,0.0,0.0,0.0,0.0,0.0,0.0,0.0,0.0,0.0,0.0,0.0,0.0,0.0,0.0,0.0,0.0,0.0,0.0,0.0,0.0,0.0,0.0,0.0,0.0,0.0,0.0,0.0,0.0,0.0,0.0,0.0,0.0,0.0,0.0,0.0,0.0,0.0,0.0,0.0,0.0,0.0,0.0,0.0,0.0,0.0,0.0,0.0,0.0,0.0,0.0,0.0,0.0,0.0,0.0,0.0,0.0,0.0,0.0,0.0,0.0,0.0,0.0,0.0,0.0,0.0,0.0,0.0,0.0,0.0,0.0,0.0,0.0,0.0,0.0,0.0,0.0,0.0,0.0,0.0,0.0,0.0,0.0,0.0,0.0,0.0,0.0,0.0,0.0,0.0,0.0,0.0,0.0,0.0,0.0,0.0,0.0,0.0,0.0,0.0,0.0,0.0,0.0,0.0,0.0,0.0,0.0,0.0,0.0,0.0,0.0,0.0,0.0,0.0,0.0,0.0,0.0,0.0,0.0,0.0,0.0,0.0,0.0,0.0,0.0,0.0,0.0,0.0,0.0,0.0,0.0,0.0,0.0,0.0,0.0,0.0,0.0,0.0,0.0,0.0,0.0,0.0,0.0,0.0,0.0,0.0,0.0,0.0,0.0,0.0,0.0,0.0,0.0,0.0,0.0,0.0,0.0,0.0,0.0,0.0,0.0,0.0,0.0,0.0,0.0,0.0,0.0,0.0,0.0,0.0,0.0,0.0,0.0,0.0,0.0,0.0,0.0,0.0,0.0,0.0,0.0,0.0,0.0,0.0,0.0,0.0,0.0,0.0,0.0,0.0,0.0,0.0,0.0,0.0,0.0,0.0,0.0,0.0,0.0,0.0,0.0,0.0,0.0,0.0,0.0,0.0,0.0,0.0,0.0,0.0,0.0,0.0,0.0,0.0,0.0,0.0,0.0,0.0,0.0,0.0,0.0,0.0,0.0,0.0,0.0,0.0,0.0,0.0,0.0,0.0,0.0,0.0,0.0,0.0,0.0,0.0,0.0,0.0,0.0,0.0,0.0,0.0,0.0,0.0,0.0,0.0,0.0,0.0,0.0,0.0,0.0,0.0,0.0,0.0,0.0,0.0,0.0,0.0,0.0,0.0,0.0,0.0,0.0,0.0,0.0,0.0,0.0,0.0,0.0,0.0,0.0,0.0,0.0,0.0,0.0,0.0,0.0,0.0,0.0,0.0,0.0,0.0,0.0,0.0,0.0,0.0,0.0,0.0,0.0,0.0,0.0,0.0,0.0,0.0,0.0,0.0,0.0,0.0,0.0,0.0,0.0,0.0,0.0,0.0,0.0,0.0,0.0,0.0,0.0,0.0,0.0,0.0,0.0,0.0,0.0,0.0,0.0,0.0,0.0,0.0,0.0,0.0,0.0,0.0,0.0,0.0,0.0,0.0,0.0,0.0,0.0,0.0,0.0,0.0,0.0,0.0,0.0,0.0,0.0,0.0,0.0,0.0,0.0,0.0,0.0,0.0,0.0,0.0,0.0,0.0,0.0,0.0,0.0,0.0,0.0,0.0,0.0,0.0,0.0,0.0,0.0,0.0,0.0,0.0,0.0,0.0,0.0,0.0,0.0,0.0,0.0,0.0,0.0,0.0,0.0,0.0,0.0,0.0,0.0,0.0,0.0,0.0,0.0,0.0,0.0,0.0,0.0,0.0,0.0,0.0,0.0,0.0,0.0,0.0,0.0,0.0,0.0,0.0,0.0,0.0,0.0,0.0,0.0,0.0,0.0,0.0,0.0,0.0,0.0,0.0,0.0,0.0,0.0,0.0,0.0,0.0,0.0,0.0,0.0,0.0,0.0,0.0,0.0,0.0,0.0,0.0,0.0,0.0,0.0,0.0,0.0,0.0,0.0,0.0,0.0,0.0,0.0,0.0,0.0,0.0,0.0,0.0,0.0,0.0,0.0,0.0,0.0,0.0,0.0,0.0,0.0,0.0,0.0,0.0,0.0,0.0,0.0,0.0,0.0,0.0,0.0,0.0,0.0,0.0,0.0,0.0,0.0,0.0,0.0,0.0,0.0,0.0,0.0,0.0,0.0,0.0,0.0,0.0,0.0,0.0,0.0,0.0,0.0,0.0,0.0,0.0,0.0,0.0,0.0,0.0,0.0,0.0,0.0,0.0,0.0,0.0,0.0,0.0,0.0,0.0,0.0,0.0,0.0,0.0,0.0,0.0,0.0,0.0,0.0,0.0,0.0,0.0,0.0,0.0,0.0,0.0,0.0,0.0,0.0,0.0,0.0,0.0,0.0,0.0,0.0,0.0,0.0,0.0,0.0,0.0,0.0,0.0,0.0,0.0,0.0,0.0,0.0,0.0,0.0,0.0,0.0,0.0,0.0,0.0,0.0,0.0,0.0,0.0,0.0,0.0,0.0,0.0,0.0,0.0,0.0,0.0,0.0,0.0,0.0,0.0,0.0,0.0,0.0,0.0,0.0,0.0,0.0,0.0,0.0,0.0,0.0,0.0,0.0,0.0,0.0,0.0,0.0,0.0,0.0,0.0,0.0,0.0,0.0,0.0,0.0,0.0,0.0,0.0,0.0,0.0,0.0,0.0,0.0,0.0,0.0,0.0,0.0,0.0,0.0,0.0,0.0,0.0,0.0,0.0,0.0,0.0,0.0,0.0,0.0,0.0,0.0,0.0,0.0,0.0,0.0,0.0,0.0,0.0,0.0,0.0,0.0,0.0,0.0,0.0,0.0,0.0,0.0,0.0,0.0,0.0,0.0,0.0,0.0,0.0,0.0,0.0,0.0,0.0,0.0,0.0,0.0,0.0,0.0,0.0,0.0,0.0,0.0,0.0,0.0,0.0,0.0,0.0,0.0,0.0,0.0,0.0,0.0,0.0,0.0,0.0,0.0,0.0,0.0,0.0,0.0,0.0,0.0,0.0,0.0,0.0,0.0,0.0,0.0,0.0,0.0,0.0,0.0,0.0,0.0,0.0,0.0,0.0,0.0,0.0,0.0,0.0,0.0,0.0,0.0,0.0,0.0,0.0,0.0,0.0,0.0,0.0,0.0,0.0,0.0,0.0,0.0,0.0,0.0,0.0,0.0,0.0,0.0,0.0,0.0,0.0,0.0,0.0,0.0,0.0,0.0,0.0,0.0,0.0,0.0,0.0,0.0,0.0,0.0,0.0,0.0,0.0,0.0,0.0,0.0,0.0,0.0,0.0,0.0,0.0,0.0,0.0,0.0,0.0,0.0,0.0,0.0,0.0,0.0,0.0,0.0,0.0,0.0,0.0,0.0,0.0,0.0,0.0,0.0,0.0,0.0,0.0,0.0,0.0,0.0,0.0,0.0,0.0,0.0,0.0,0.0,0.0,0.0,0.0,0.0,0.0,0.0,0.0,0.0,0.0,0.0,0.0,0.0,0.0,0.0,0.0,0.0,0.0,0.0,0.0,0.0,0.0,0.0,0.0,0.0,0.0,0.0,0.0,0.0,0.0,0.0,0.0,0.0,0.0,0.0,0.0,0.0,0.0,0.0,0.0,0.0,0.0,0.0,0.0,0.0,0.0,0.0,0.0,0.0,0.0,0.0,0.0,0.0,0.0,0.0,0.0,0.0,0.0,0.0,0.0,0.0,0.0,0.0,0.0,0.0,0.0,0.0,0.0,0.0,0.0,0.0,0.0,0.0,0.0,0.0,0.0,0.0,0.0,0.0,0.0,0.0,0.0,0.0,0.0,0.0,0.0,0.0,0.0,0.0,0.0,0.0,0.0,0.0,0.0,0.0,0.0,0.0,0.0,0.0,0.0,0.0,0.0,0.0,0.0,0.0,0.0,0.0,0.0,0.0,0.0,0.0,0.0,0.0,0.0,0.0,0.0,0.0,0.0,0.0,0.0,0.0,0.0,0.0,0.0,0.0,0.0,0.0,0.0,0.0,0.0,0.0,0.0,0.0,0.0,0.0,0.0,0.0,0.0,0.0,0.0,0.0,0.0,0.0,0.0,0.0,0.0,0.0,0.0,0.0,0.0,0.0,0.0,0.0,0.0,0.0,0.0,0.0,0.0,0.0,0.0,0.0,0.0,0.0,0.0,0.0,0.0,0.0,0.0,0.0,0.0,0.0,0.0,0.0,0.0,0.0,0.0,0.0,0.0,0.0,0.0,0.0,0.0,0.0,0.0,0.0,0.0,0.0,0.0,0.0,0.0,0.0,0.0,0.0,0.0,0.0,0.0,0.0,0.0,0.0,0.0,0.0,0.0,0.0,0.0,0.0,0.0,0.0,0.0,0.0,0.0,0.0,0.0,0.0,0.0,0.0,0.0,0.0,0.0,0.0,0.0,0.0,0.0,0.0,0.0,0.0,0.0,0.0,0.0,0.0,0.0,0.0,0.0,0.0,0.0,0.0,0.0,0.0,0.0,0.0,0.0,0.0,0.0,0.0,0.0,0.0,0.0,0.0,0.0,0.0,0.0,0.0,0.0,0.0,0.0,0.0,0.0,0.0,0.0,0.0,0.0,0.0,0.0,0.0,0.0,0.0,0.0,0.0,0.0,0.0,0.0,0.0,0.0,0.0,0.0,0.0,0.0,0.0,0.0,0.0,0.0,0.0,0.0,0.0,0.0,0.0,0.0,0.0,0.0,0.0,0.0,0.0,0.0,0.0,0.0,0.0,0.0,0.0,0.0,0.0,0.0,0.0,0.0,0.0,0.0,0.0,0.0,0.0,0.0,0.0,0.0,0.0,0.0,0.0,0.0,0.0,0.0,0.0,0.0,0.0,0.0,0.0,0.0,0.0,0.0,0.0,0.0,0.0,0.0,0.0,0.0,0.0,0.0,0.0,0.0,0.0,0.0,0.0,0.0,0.0,0.0,0.0,0.0,0.0,0.0,0.0,0.0,0.0,0.0,0.0,0.0,0.0,0.0,0.0,0.0,0.0,0.0,0.0,0.0,0.0,0.0,0.0,0.0,0.0,0.0,0.0,0.0,0.0,0.0,0.0,0.0,0.0,0.0,0.0,0.0,0.0,0.0,0.0,0.0,0.0,0.0,0.0,0.0,0.0,0.0,0.0,0.0,0.0,0.0,0.0,0.0,0.0,0.0,0.0,0.0,0.0,0.0,0.0,0.0,0.0,0.0,0.0,0.0,0.0,0.0,0.0,0.0,0.0,0.0,0.0,0.0,0.0,0.0,0.0,0.0,0.0,0.0,0.0,0.0,0.0,0.0,0.0,0.0,0.0,0.0,0.0,0.0,0.0,0.0,0.0,0.0,0.0,0.0,0.0,0.0,0.0,0.0,0.0,0.0,0.0,0.0,0.0,0.0,0.0,0.0,0.0,0.0,0.0,0.0,0.0,0.0,0.0,0.0,0.0,0.0,0.0,0.0,0.0,0.0,0.0,0.0,0.0,0.0,0.0,0.0,0.0,0.0,0.0,0.0,0.0,0.0,0.0,0.0,0.0,0.0,0.0,0.0,0.0,0.0,0.0,0.0,0.0,0.0,0.0,0.0,0.0,0.0,0.0,0.0,0.0,0.0,0.0,0.0,0.0,0.0,0.0,0.0,0.0,0.0,0.0,0.0,0.0,0.0,0.0,0.0,0.0,0.0,0.0,0.0,0.0,0.0,0.0,0.0,0.0,0.0,0.0,0.0,0.0,0.0,0.0,0.0,0.0,0.0,0.0,0.0,0.0,0.0,0.0,0.0,0.0,0.0,0.0,0.0,0.0,0.0,0.0,0.0,0.0,0.0,0.0,0.0,0.0,0.0,0.0,0.0,0.0,0.0,0.0,0.0,0.0,0.0,0.0,0.0,0.0,0.0,0.0,0.0,0.0,0.0,0.0,0.0,0.0,0.0,0.0,0.0,0.0,0.0,0.0,0.0,0.0,0.0,0.0,0.0,0.0,0.0,0.0,0.0,0.0,0.0,0.0,0.0,0.0,0.0,0.0,0.0,0.0,0.0,0.0,0.0,0.0,0.0,0.0,0.0,0.0,0.0,0.0,0.0,0.0,0.0,0.0,0.0,0.0,0.0,0.0,0.0,0.0,0.0,0.0,0.0,0.0,0.0,0.0,0.0,0.0,0.0,0.0,0.0,0.0,0.0,0.0,0.0,0.0,0.0,0.0,0.0,0.0,0.0,0.0,0.0,0.0,0.0,0.0,0.0,0.0,0.0,0.0,0.0,0.0,0.0,0.0,0.0,0.0,0.0,0.0,0.0,0.0,0.0,0.0,0.0,0.0,0.0,0.0,0.0,0.0,0.0,0.0,0.0,0.0,0.0,0.0,0.0,0.0,0.0,0.0,0.0,0.0,0.0,0.0,0.0,0.0,0.0,0.0,0.0,0.0,0.0,0.0,0.0,0.0,0.0,0.0,0.0,0.0,0.0,0.0,0.0,0.0,0.0,0.0,0.0,0.0,0.0,0.0,0.0,0.0,0.0,0.0,0.0,0.0,0.0,0.0,0.0,0.0,0.0,0.0,0.0,0.0,0.0,0.0,0.0,0.0,0.0,0.0,0.0,0.0,0.0,0.0,0.0,0.0,0.0,0.0,0.0,0.0,0.0,0.0,0.0,0.0,0.0,0.0,0.0,0.0,0.0,0.0,0.0,0.0,0.0,0.0,0.0,0.0,0.0,0.0,0.0,0.0,0.0,0.0,0.0,0.0,0.0,0.0,0.0,0.0,0.0,0.0,0.0,0.0,0.0,0.0,0.0,0.0,0.0,0.0,0.0,0.0,0.0,0.0,0.0,0.0,0.0,0.0,0.0,0.0,0.0,0.0,0.0,0.0,0.0,0.0,0.0,0.0,0.0,0.0,0.0,0.0,0.0,0.0,0.0,0.0,0.0,0.0,0.0,0.0,0.0,0.0,0.0,0.0,0.0,0.0,0.0,0.0,0.0,0.0,0.0,0.0,0.0,0.0,0.0,0.0,0.0,0.0,0.0,0.0,0.0,0.0,0.0,0.0,0.0,0.0,0.0,0.0,0.0,0.0,0.0,0.0,0.0,0.0,0.0,0.0,0.0,0.0,0.0,0.0,0.0,0.0,0.0,0.0,0.0,0.0,0.0,0.0,0.0,0.0,0.0,0.0,0.0,0.0,0.0,0.0,0.0,0.0,0.0,0.0,0.0,0.0,0.0,0.0,0.0,0.0,0.0,0.0,0.0,0.0,0.0,0.0,0.0,0.0,0.0,0.0,0.0,0.0,0.0,0.0,0.0,0.0,0.0,0.0,0.0,0.0,0.0,0.0,0.0,0.0,0.0,0.0,0.0,0.0,0.0,0.0,0.0,0.0,0.0,0.0,0.0,0.0,0.0,0.0,0.0,0.0,0.0,0.0,0.0,0.0,0.0,0.0,0.0,0.0,0.0,0.0,0.0,0.0,0.0,0.0,0.0,0.0,0.0,0.0,0.0,0.0,0.0,0.0,0.0,0.0,0.0,0.0,0.0,0.0,0.0,0.0,0.0,0.0,0.0,0.0,0.0,0.0,0.0,0.0,0.0,0.0,0.0,0.0,0.0,0.0,0.0,0.0,0.0,0.0,0.0,0.0,0.0,0.0,0.0,0.0,0.0,0.0,0.0,0.0,0.0,0.0,0.0,0.0,0.0,0.0,0.0,0.0,0.0,0.0,0.0,0.0,0.0,0.0,0.0,0.0,0.0,0.0,0.0,0.0,0.0,0.0,0.0,0.0,0.0,0.0,0.0,0.0,0.0,0.0,0.0,0.0,0.0,0.0,0.0,0.0,0.0,0.0,0.0,0.0,0.0,0.0,0.0,0.0,0.0,0.0,0.0,0.0,0.0,0.0,0.0,0.0,0.0,0.0,0.0,0.0,0.0,0.0,0.0,0.0,0.0,0.0,0.0,0.0,0.0,0.0,0.0,0.0,0.0,0.0,0.0,0.0,0.0,0.0,0.0,0.0,0.0,0.0,0.0,0.0,0.0,0.0,0.0,0.0,0.0,0.0,0.0,0.0,0.0,0.0,0.0,0.0,0.0,0.0,0.0,0.0,0.0,0.0,0.0,0.0,0.0,0.0,0.0,0.0,0.0,0.0,0.0,0.0,0.0,0.0,0.0,0.0,0.0,0.0,0.0,0.0,0.0,0.0,0.0,0.0,0.0,0.0,0.0,0.0,0.0,0.0,0.0,0.0,0.0,0.0,0.0,0.0,0.0,0.0,0.0,0.0,0.0,0.0,0.0,0.0,0.0,0.0,0.0,0.0,0.0,0.0,0.0,0.0,0.0,0.0,0.0,0.0,0.0,0.0,0.0,0.0,0.0,0.0,0.0,0.0,0.0,0.0,0.0,0.0,0.0,0.0,0.0,0.0,0.0,0.0,0.0,0.0,0.0,0.0,0.0,0.0,0.0,0.0,0.0,0.0,0.0,0.0,0.0,0.0,0.0,0.0,0.0,0.0,0.0,0.0,0.0,0.0,0.0,0.0,0.0,0.0,0.0,0.0,0.0,0.0,0.0,0.0,0.0,0.0,0.0,0.0,0.0,0.0,0.0,0.0,0.0,0.0,0.0,0.0,0.0,0.0,0.0,0.0,0.0,0.0,0.0,0.0,0.0,0.0,0.0,0.0,0.0,0.0,0.0,0.0,0.0,0.0,0.0,0.0,0.0,0.0,0.0,0.0,0.0,0.0,0.0,0.0,0.0,0.0,0.0,0.0,0.0,0.0,0.0,0.0,0.0,0.0,0.0,0.0,0.0,0.0,0.0,0.0,0.0,0.0,0.0,0.0,0.0,0.0,0.0,0.0,0.0,0.0,0.0,0.0,0.0,0.0,0.0,0.0,0.0,0.0,0.0,0.0,0.0,0.0,0.0,0.0,0.0,0.0,0.0,0.0,0.0,0.0,0.0,0.0,0.0,0.0,0.0,0.0,0.0,0.0,0.0,0.0,0.0,0.0,0.0,0.0,0.0,0.0,0.0,0.0,0.0,0.0,0.0,0.0,0.0,0.0,0.0,0.0,0.0,0.0,0.0,0.0084,0.1346,0.2603,0.3608,0.2352,0.1849,0.1933]}]]